     2              OBSERVATION DATA    GPS                 RINEX VERSION / TYPE
teqc 1998Mar9 19981006 18:49:46UTC                          PGM / RUN BY / DATE
                                                            COMMENT
Original Marker Name: OCOT                                  COMMENT
Campaign Name: HPGN 1998                                    COMMENT
4-Character Station Name: OCOT                              COMMENT
6-Character Antenna Code: TRMCMP                            COMMENT
Vertical Measurement Point: BPA                             COMMENT
Vertical Offset to Rinex Ref. Point: 0.0000                 COMMENT
Radial Measurement Point: RRP                               COMMENT
Radial Offset to Rinex Ref. Point: 0.0000                   COMMENT
Antenna Height from Field Measurement: 2.0000 m             COMMENT
Original XYZ: -2335597.6588 -4832237.2168 3434389.7195      COMMENT
New XYZ position is based on association with SCEC monument COMMENT
E1C8V7N3+0011. Position of that monument is believed to be  COMMENT
valid to within 1 m horizontally; vertical accuracy         COMMENT
should be no worse than 3-times this value.                 COMMENT
                                                            COMMENT
Revised Rinex header created by UCSD GPS archive for        COMMENT
GSAC on 10-Apr-1999 (1999:100) 05:37:22 GMT                 COMMENT
For assistance contact dagnew@ucsd.edu or hjohnson@ucsd.edu COMMENT
                                                            COMMENT
OCOTILLO NCMN 7270                                          MARKER NAME
unknown CALIF DEPT TRANSPORTATION                           OBSERVER / AGENCY
4883 TRIMBLE 4000 SSE NP 7.25; SP 3.07                      REC # / TYPE / VERS
76723 TR GEOD L1/L2 GP                                      ANT # / TYPE
 -2335602.0000 -4832244.0000  3434393.0000                  APPROX POSITION XYZ
        2.0000        0.0000        0.0000                  ANTENNA: DELTA H/E/N
     1     1     0                                          WAVELENGTH FACT L1/2
     7    L1    L2    C1    P2    P1    D1    D2            # / TYPES OF OBSERV
     0                                                      INTERVAL
  1998     6    11    20     4   45.000000                  TIME OF FIRST OBS
  1998     6    12     1    37   45.000000                  TIME OF LAST OBS
                                                            END OF HEADER
 98  6 11 20  4 45.0000000  0  8G 5G 6G26G10G13G17G30G24
    418691.51156    326252.44355  22639470.6484   22639476.1564
     -2532.0164      -1972.9994
   -392285.39357   -305676.39856  21285783.3914   21285785.7584
      2417.5944       1883.8394
   -531214.53954   -261047.27552  24473166.4924   24473173.4574
      3404.2814       2652.6874
    199023.06257    155082.63056  21676413.7974   21676416.6454
     -1214.4064       -946.2914
   -171352.97454   -115293.08952  24920422.3754   24920426.9574
      1046.2344        815.2484
   -425710.86356   -331722.02955  22682884.5234   22682889.2114
      2622.1254       2043.2144
    165034.27657     95658.62457  21144314.6564   21144317.2344
     -1049.7504       -817.9874
    306537.91855    213165.96253  24013356.3754   24013361.7304
     -1821.6094      -1419.4364
 98  6 11 20  5  0.0000000  0  8G 5G 6G26G10G13G17G30G24
    456672.21546    355847.74645  22646698.3444   22646704.0274
     -2532.2344      -1973.1704
   -428553.69947   -333937.39746  21278881.8284   21278884.0314
      2417.9384       1884.1074
   -582312.35844   -300863.64243  24463442.3674   24463449.8244
      3408.5784       2656.0354
    217267.61347    169299.17346  21679885.2504   21679888.0864
     -1218.3914       -949.3954
   -187020.23244   -127501.31142  24917441.2424   24917442.3794
      1042.5634        812.3864
   -465051.84546   -362377.29845  22675398.5164   22675403.7664
      2623.1884       2044.0424
    180815.03747    107955.31547  21147317.5784   21147320.1804
     -1054.4844       -821.6764
    333825.20145    234428.72743  24018548.4454   24018553.9884
     -1816.8594      -1415.7354
 98  6 11 20  5 15.0000000  0  8G 5G 6G26G10G13G17G30G24
    494659.38246    385448.07345  22653927.1644   22653932.8954
     -2532.7504      -1973.5714
   -464821.58847   -362198.07046  21271979.8834   21271982.1334
      2417.7814       1883.9854
   -633470.40943   -340726.89042  24453706.8594   24453715.4534
      3412.4064       2659.0184
    235578.30247    183567.25246  21683369.9614   21683372.9144
     -1223.0944       -953.0604
   -202627.89045   -139663.07042  24914471.8134   24914474.2504
      1038.4534        809.1844
   -504404.18946   -393041.41545  22667909.8134   22667914.6884
      2623.6884       2044.4324
    196670.29647    120310.05647  21150334.7734   21150337.3404
     -1059.6094       -825.6704
    361045.84145    255639.63343  24023728.4144   24023734.1564
     -1812.5784      -1412.3994
 98  6 11 20  5 30.0000000  0  8G 5G 6G26G10G13G17G30G24
    532655.95146    415055.74745  22661157.5394   22661162.7424
     -2533.5784      -1974.2174
   -501085.63147   -390455.74646  21265079.6094   21265081.8954
      2417.2194       1883.5474
   -684682.72843   -380632.49642  24443960.6724   24443970.1914
      3415.7344       2661.6114
    253962.56747    197892.65846  21686868.1954   21686871.1374
     -1228.2974       -957.1144
   -218172.50945   -151775.74242  24911513.2274   24911517.1644
      1034.0004        805.7144
   -543760.93546   -423708.97745  22660420.4224   22660424.9924
      2623.6884       2044.4324
    212605.03747    132726.73347  21153367.1334   21153369.7344
     -1065.2344       -830.0534
    388204.84745    276802.43343  24028896.6024   24028900.9384
     -1808.8284      -1409.4764
 98  6 11 20  5 45.0000000  0  8G 5G 6G26G10G13G17G30G24
    570666.54846    444674.35245  22668390.8134   22668396.5784
     -2534.4064      -1974.8624
   -537337.62347   -418704.02946  21258180.7814   21258182.9384
      2416.4534       1882.9504
   -735941.60843   -420574.31642  24434208.5634   24434216.5944
      3418.8134       2664.0104
    272427.38347    212280.83546  21690381.8364   21690384.9304
     -1233.5624       -961.2184
   -233647.40544   -163834.05542  24908567.7974   24908571.2194
      1029.3914        802.1234
   -583112.57346   -454372.55745  22652932.3754   22652936.9924
      2623.2344       2044.0794
    228628.53947    145212.56847  21156416.3054   21156419.0124
     -1071.1564       -834.6674
    415311.34045    297924.35444  24034054.7034   24034060.7034
     -1805.2814      -1406.7134
 98  6 11 20  6  0.0000000  0  8G 5G 6G26G10G13G17G30G24
    608689.77746    474302.78345  22675626.4384   22675632.3914
     -2535.3594      -1975.6054
   -573576.95147   -446942.45146  21251284.7584   21251286.9844
      2415.4694       1882.1834
   -787244.81044   -460550.66242  24424445.4304   24424454.0944
      3421.5784       2666.1654
    290972.82147    226731.83446  21693910.8834   21693913.9774
     -1239.1564       -965.5764
   -249051.06144   -175836.89742  24905636.1804   24905639.4964
      1024.4224        798.2514
   -622453.51746   -485027.79845  22645445.8444   22645449.5824
      2622.1724       2043.2514
    244742.47147    157768.87247  21159482.6644   21159485.1374
     -1077.3284       -839.4764
    442366.23845    319006.09844  24039203.2814   24039208.9654
     -1802.0314      -1404.1804
 98  6 11 20  6 15.0000000  0  8G 5G 6G26G10G13G17G30G24
    646728.54046    503943.32645  22682864.8984   22682870.6174
     -2536.2664      -1976.3114
   -609801.45547   -475169.31847  21244391.4534   21244393.8554
      2414.7344       1881.6114
   -838588.60344   -500558.67043  24414675.0944   24414684.5314
      3424.4844       2668.4294
    309600.91447    241247.23246  21697455.7734   21697458.8674
     -1244.3284       -969.6064
   -264381.07944   -187782.33142  24902719.7584   24902722.3834
      1019.7974        794.6474
   -661776.40546   -515668.97545  22637962.9454   22637966.5904
      2621.1254       2042.4354
    260948.19447    170396.70147  21162566.3054   21162568.5664
     -1083.1724       -844.0304
    469372.13345    340049.61843  24044342.7894   24044347.4304
     -1798.5004      -1401.4294
 98  6 11 20  6 30.0000000  0  8G 5G 6G26G10G13G17G30G24
    684784.88246    533597.55945  22690107.2114   22690112.7424
     -2538.2194      -1977.8334
   -646011.58447   -503384.98347  21237500.9614   21237503.3054
      2412.9694       1880.2354
   -889971.62244   -540597.24943  24404896.9144   24404905.8594
      3426.3444       2669.8784
    328309.68847    255825.50446  21701015.9694   21701019.2274
     -1250.4694       -974.3914
   -279637.93844   -199670.77542  24899816.4144   24899821.3364
      1014.1724        790.2644
   -701079.66646   -546294.85645  22630483.9614   22630487.5004
      2618.9224       2040.7184
    277243.83247    183094.58947  21165667.5234   21165669.9844
     -1089.8444       -849.2294
    496329.25045    361055.11643  24049472.5554   24049478.1804
     -1796.1414      -1399.5904
 98  6 11 20  6 45.0000000  0  8G 5G 6G26G10G13G17G30G24
    722867.73746    563272.45345  22697354.1954   22697360.1724
     -2539.4844      -1978.8194
   -682195.77547   -531580.43847  21230615.3134   21230617.6334
      2411.5314       1879.1154
   -941383.59543   -580658.39643  24395112.9694   24395122.3594
      3428.5004       2671.5584
    347111.37647    270476.17646  21704593.8134   21704597.0594
     -1256.5314       -979.1154
   -294812.08844   -211494.72842  24896928.5944   24896932.8834
      1008.9844        786.2224
   -740350.09046   -576895.15645  22623010.6094   22623014.6994
      2617.0634       2039.2694
    293638.27547    195869.47447  21168787.3134   21168789.7974
     -1096.1254       -854.1234
    523252.22245    382034.10843  24054595.9534   24054602.1414
     -1793.6094      -1397.6184
 98  6 11 20  7  0.0000000  0  8G 5G 6G26G10G13G17G30G24
    760973.74846    592965.40045  22704605.6884   22704611.1254
     -2541.3914      -1980.3044
   -718355.36247   -559756.72347  21223734.5314   21223736.6054
      2409.7664       1877.7394
   -992823.49343   -620741.27642  24385324.6334   24385333.4144
      3430.1254       2672.8254
    366009.57247    285202.05046  21708190.0784   21708193.3364
     -1263.2504       -984.3514
   -309903.19544   -223254.00342  24894056.9304   24894059.4024
      1003.1414        781.6684
   -779589.60046   -607471.36745  22615543.5864   22615547.9344
      2614.8754       2037.5654
    310130.00847    208720.16647  21171925.5234   21171928.2304
     -1102.7974       -859.3224
    550140.17145    402985.70943  24059713.0004   24059719.4694
     -1791.4224      -1395.9134
 98  6 11 20  7 15.0000000  0  8G 5G 6G26G10G13G17G30G24
    799110.93746    622682.63845  22711862.8134   22711867.9694
     -2543.5944      -1982.0214
   -754486.72147   -587911.01247  21216858.8594   21216861.0984
      2407.7194       1876.1444
  -1044285.39043   -660841.30943  24375531.0314   24375537.5124
      3431.4384       2673.8474
    385009.50247    300007.19846  21711805.5474   21711808.9924
     -1270.0474       -989.6474
   -324906.01844   -234944.49342  24891201.8754   24891205.5554
       997.1564        777.0054
   -818794.71446   -638020.77945  22608083.0944   22608087.8164
      2612.4064       2035.6414
    326722.46247    221649.33847  21175082.9224   21175085.5004
     -1109.5474       -864.5824
    576996.76745    423912.90143  24064823.5234   24064828.6454
     -1789.4534      -1394.3794
 98  6 11 20  7 30.0000000  0  8G 5G 6G26G10G13G17G30G24
    837282.50646    652426.65145  22719126.3204   22719131.5824
     -2545.9534      -1983.8604
   -790586.47847   -616040.67647  21209989.1414   21209991.4024
      2405.6254       1874.5134
  -1095763.64643   -700954.14342  24365735.1954   24365743.9884
      3432.2664       2674.4934
    404111.70647    314892.03346  21715440.4144   21715443.4844
     -1276.8754       -994.9684
   -339816.52644   -246563.03542  24888364.6334   24888369.7664
       990.9064        772.1354
   -857958.59446   -668538.05945  22600630.5004   22600634.7774
      2609.3914       2033.2914
    343417.45947    234658.41747  21178260.0474   21178262.7424
     -1116.4224       -869.9394
    603825.17445    444818.09243  24069928.5554   24069932.3054
     -1787.6564      -1392.9794
 98  6 11 20  7 45.0000000  0  8G 5G 6G26G10G13G17G30G24
    875489.26846    682198.09845  22726396.8754   22726402.2074
     -2548.2504      -1985.6494
   -826654.68447   -644145.75747  21203125.8284   21203128.1484
      2403.4384       1872.8084
  -1147254.34443   -741076.64742  24355937.0164   24355945.9614
      3433.1414       2675.1754
    423313.90146    329854.78646  21719094.5234   21719097.8284
     -1283.4064      -1000.0574
   -354633.59344   -258108.75242  24885545.5704   24885551.3014
       984.7194        767.3134
   -897076.63846   -699019.61845  22593186.7274   22593191.4384
      2606.3914       2030.9544
    360214.50747    247747.01447  21181456.2734   21181458.8984
     -1123.1724       -875.1994
    630626.11045    465701.91243  24075028.1334   24075033.9344
     -1785.7814      -1391.5184
 98  6 11 20  8  0.0000000  0  8G 5G 6G26G10G13G17G30G24
    913731.93146    711997.50345  22733674.5784   22733680.3204
     -2550.9534      -1987.7564
   -862688.89347   -672224.34147  21196268.6414   21196270.9144
      2400.9534       1870.8734
  -1198756.90243   -781208.38142  24346135.8984   24346144.5394
      3433.7344       2675.6374
    442614.73646    344894.40146  21722767.5634   21722771.0554
     -1290.1724      -1005.3294
   -369357.80444   -269582.12942  24882742.5634   24882746.5004
       978.3754        762.3704
   -936150.54546   -729466.78645  22585751.0554   22585755.7304
      2603.3444       2028.5804
    377112.95647    260914.62647  21184671.9384   21184674.4804
     -1130.0784       -880.5804
    657399.83345    486564.52843  24080123.7114   24080129.8284
     -1784.1254      -1390.2274
 98  6 11 20  8 15.0000000  0  8G 5G 6G26G10G13G17G30G24
    952017.19246    741830.12645  22740959.9304   22740965.6604
     -2553.8284      -1989.9964
   -898684.31947   -700272.70947  21189418.8054   21189420.9144
      2398.3914       1868.8764
  -1250266.20042   -821345.38442  24336333.7424   24336340.6134
      3434.1414       2675.9544
    462018.98846    360014.60246  21726460.1334   21726463.3914
     -1297.0624      -1010.6984
   -383986.41544   -280981.02642  24879959.9384   24879964.7664
       972.0314        757.4274
   -975178.74246   -759878.34345  22578324.1954   22578329.1644
      2600.4064       2026.2914
    394116.00947    274163.74047  21187907.5634   21187910.2114
     -1137.0474       -886.0114
    684148.20345    507407.41743  24085213.1884   24085218.2734
     -1782.3754      -1388.8644
 98  6 11 20  8 30.0000000  0  8G 5G 6G26G10G13G17G30G24
    990348.48046    771698.59945  22748254.5234   22748259.4924
     -2557.0314      -1992.4924
   -934639.10047   -728289.40647  21182576.9224   21182578.8914
      2395.5474       1866.6604
  -1301779.57342   -861485.47442  24326531.6804   24326541.3404
      3434.2344       2676.0274
    481527.34746    375215.92246  21730172.4774   21730175.8524
     -1304.1564      -1016.2264
   -398517.65444   -292304.05342  24877194.0864   24877199.4884
       965.3754        752.2404
  -1014162.92246   -790255.59745  22570905.7034   22570910.0634
      2597.4534       2023.9894
    411225.48347    287495.78647  21191163.3754   21191166.4804
     -1144.2974       -891.6604
    710872.36745    528231.41343  24090299.1564   24090303.7974
     -1780.8444      -1387.6704
 98  6 11 20  8 45.0000000  0  8G 5G 6G26G10G13G17G30G24
   1028725.30946    801602.57145  22755557.4534   22755562.8914
     -2559.8594      -1994.6964
   -970552.57047   -756273.90747  21175742.7974   21175744.8484
      2392.8914       1864.5904
  -1353295.48142   -901627.63742  24316727.7344   24316737.0314
      3434.5164       2676.2464
    501142.06146    390500.12346  21733904.8594   21733908.0124
     -1311.1414      -1021.6684
   -412949.36444   -303549.50742  24874448.5554   24874453.5824
       958.8284        747.1394
  -1053104.57546   -820599.71446  22563495.1254   22563499.0394
      2594.7504       2021.8834
    428442.94347    300911.97947  21194439.8134   21194442.6254
     -1151.4224       -897.2124
    737571.72045    549036.05443  24095379.8204   24095384.2734
     -1779.0314      -1386.2584
 98  6 11 20  9  0.0000000  0  8G 5G 6G26G10G13G17G30G24
   1067146.10246    831540.79145  22762868.9694   22762874.8164
     -2562.9534      -1997.1064
  -1006423.56847   -784225.31947  21168916.9144   21168919.0234
      2389.9224       1862.2774
  -1404812.18443   -941770.41842  24306924.5474   24306932.4024
      3434.4224       2676.1734
    520862.29347    405866.53746  21737657.6024   21737660.9774
     -1318.1254      -1027.1104
   -427278.54544   -314715.06442  24871720.7814   24871724.7074
       951.7344        741.6114
  -1092004.58246   -850911.38646  22556093.1254   22556097.5434
      2591.9224       2019.6794
    445771.26247    314414.55447  21197737.3134   21197740.4184
     -1158.9844       -903.1054
    764245.25545    569820.62943  24100456.1174   24100461.2624
     -1777.3914      -1384.9804
 98  6 11 20  9 15.0000000  0  8G 5G 6G26G10G13G17G30G24
   1105617.37546    861518.34845  22770189.3674   22770194.3714
     -2566.4064      -1999.7974
  -1042248.66147   -812140.96147  21162099.4534   21162101.5514
      2386.8134       1859.8544
  -1456327.98443   -981912.47442  24297122.3524   24297131.4964
      3434.3594       2676.1244
    540686.19346    421313.73446  21741429.8284   21741432.7704
     -1325.0004      -1032.4684
   -441499.11344   -325795.99042  24869014.9454   24869018.8594
       944.4384        735.9254
  -1130861.31646   -881189.33546  22548698.7344   22548703.2464
      2589.0474       2017.4394
    463213.86347    328006.17647  21201056.5554   21201059.4964
     -1166.6414       -909.0714
    790895.54645    590587.06343  24105527.1024   24105531.7194
     -1775.9224      -1383.8354
 98  6 11 20  9 30.0000000  0  8G 5G 6G26G10G13G17G30G24
   1144136.44346    891533.14345  22777519.2194   22777524.9144
     -2569.3444      -2002.0864
  -1078027.79747   -840020.78847  21155290.9774   21155293.0164
      2383.8914       1857.5774
  -1507843.39143  -1022054.20542  24287317.5944   24287326.8204
      3434.4534       2676.1974
    560611.40246    436839.87746  21745221.8674   21745225.0204
     -1331.5784      -1037.5934
   -455611.11044   -336792.31542  24866329.3134   24866332.3834
       937.2344        730.3134
  -1169673.99246   -911432.95246  22541313.2034   22541317.7154
      2586.0784       2015.1264
    480771.11547    341687.13547  21204397.6644   21204400.5824
     -1174.2194       -914.9764
    817524.51045    611336.86743  24110594.6564   24110599.5434
     -1774.5004      -1382.7274
 98  6 11 20  9 45.0000000  0  8G 5G 6G26G10G13G17G30G24
   1182700.13646    921582.71545  22784857.5944   22784863.3364
     -2572.5314      -2004.5704
  -1113762.21447   -867865.77547  21148490.8754   21148492.9964
      2380.6884       1855.0814
  -1559358.52543  -1062195.72542  24277515.2664   24277522.2074
      3434.2194       2676.0154
    580637.15246    452444.35846  21749032.6094   21749035.7734
     -1338.5784      -1043.0484
   -469612.09044   -347702.14942  24863665.5474   24863669.2384
       929.5634        724.3344
  -1208441.27746   -941641.19946  22533935.8054   22533940.1764
      2582.9224       2012.6664
    498444.41747    355458.52547  21207760.7194   21207763.5904
     -1182.2504       -921.2344
    844134.02545    632071.52243  24115658.2814   24115663.1334
     -1773.4694      -1381.9244
 98  6 11 20 10  0.0000000  0  8G 5G 6G26G10G13G17G30G24
   1221313.00646    951670.58545  22792206.0864   22792211.5004
     -2575.8444      -2007.1514
  -1149447.97247   -895672.84447  21141700.0474   21141702.0634
      2377.4694       1852.5734
  -1610872.17044  -1102336.11542  24267713.4064   24267721.7074
      3434.3134       2676.0884
    600768.55047    468131.15746  21752863.2344   21752866.3524
     -1345.6414      -1048.5514
   -483499.64944   -358523.60142  24861022.7584   24861026.1564
       922.1414        718.5514
  -1247164.65146   -971815.22746  22526566.9144   22526570.9224
      2580.2664       2010.5974
    516238.93847    369324.36947  21211146.7814   21211149.7344
     -1190.3594       -927.5534
    870728.80245    652794.72843  24120719.1414   24120724.0514
     -1772.4534      -1381.1324
 98  6 11 20 10 15.0000000  0  8G 5G 6G26G10G13G17G30G24
   1259975.10846    981796.85745  22799562.6884   22799567.0824
     -2579.1414      -2009.7204
  -1185088.28947   -923444.49847  21134918.1334   21134920.2194
      2374.5634       1850.3084
  -1662388.62844  -1142478.69842  24257909.2424   24257915.7234
      3434.4694       2676.2094
    621005.09947    483899.89546  21756714.1484   21756717.1604
     -1352.6094      -1053.9814
   -497276.03144   -369258.37542  24858401.3754   24858403.4734
       914.6564        712.7194
  -1285848.27046  -1001958.28346  22519205.8284   22519210.0824
      2577.4384       2008.3934
    534154.43747    383284.48747  21214556.1414   21214558.9774
     -1198.4534       -933.8604
    897306.82745    673504.82643  24125776.1954   24125781.4454
     -1771.3284      -1380.2564
 98  6 11 20 10 30.0000000  0  8G 5G 6G26G10G13G17G30G24
   1298685.25046   1011960.53945  22806929.3284   22806934.8244
     -2582.1564      -2012.0704
  -1220686.43147   -951183.29647  21128143.9694   21128146.3134
      2371.8914       1848.2264
  -1713907.01544  -1182622.80042  24248105.7734   24248113.7704
      3434.6884       2676.3804
    641345.86247    499749.84246  21760585.0634   21760587.8634
     -1359.4534      -1059.3144
   -510939.64344   -379905.36242  24855800.8984   24855805.1054
       907.1564        706.8754
  -1324487.87946  -1032067.03346  22511852.8984   22511857.2234
      2574.5784       2006.1654
    552193.27347    397340.70647  21217989.0314   21217992.1484
     -1206.6254       -940.2274
    923870.18045    694203.54243  24130831.2114   24130835.2544
     -1770.4374      -1379.5624
 98  6 11 20 10 45.0000000  0  8G 5G 6G26G10G13G17G30G24
   1337440.60446   1042159.44545  22814303.9304   22814309.1684
     -2585.1724      -2014.4204
  -1256241.87947   -978888.82647  21121378.0234   21121380.4964
      2368.7664       1845.7914
  -1765427.34544  -1222768.44742  24238301.6094   24238307.9614
      3434.6414       2676.3434
    661790.34647    515680.60946  21764475.4774   21764478.1954
     -1366.5314      -1064.8304
   -524489.44744   -390463.61842  24853222.8524   24853226.2034
       899.4844        700.8974
  -1363083.36946  -1062141.41946  22504508.4844   22504513.1254
      2571.4534       2003.7304
    570354.50847    411492.29747  21221444.9064   21221447.7664
     -1214.9534       -946.7174
    950422.98845    714893.99243  24135884.9534   24135888.4574
     -1769.9224      -1379.1604
 98  6 11 20 11  0.0000000  0  8G 5G 6G26G10G13G17G30G24
   1376237.67146   1072390.85245  22821687.3444   22821692.5004
     -2587.8444      -2016.5024
  -1291751.13947  -1006558.35847  21114620.7034   21114623.1414
      2365.6724       1843.3814
  -1816947.63944  -1262913.96842  24228497.5944   24228505.3914
      3434.5944       2676.3074
    682339.42847    531692.88046  21768385.9454   21768388.7464
     -1373.4064      -1070.1874
   -537927.03544   -400934.44242  24850665.7974   24850668.9734
       892.0784        695.1264
  -1401632.79646  -1092179.90246  22497172.9614   22497177.4384
      2568.3754       2001.3314
    588639.79847    425740.56047  21224924.3284   21224927.2934
     -1223.2034       -953.1454
    976966.14445    735576.96443  24140935.4614   24140941.7544
     -1769.2664      -1378.6494
 98  6 11 20 11 15.0000000  0  8G 5G 6G26G10G13G17G30G24
   1415073.87046   1102652.76745  22829077.4844   22829082.2304
     -2590.4844      -2018.5594
  -1327215.06147  -1034192.57147  21107872.0474   21107874.3554
      2362.7034       1841.0674
  -1868467.90144  -1303059.51843  24218693.7584   24218701.3324
      3434.6254       2676.3314
    702989.70847    547784.01046  21772315.3674   21772318.3204
     -1380.1564      -1075.4464
   -551253.67044   -411318.81242  24848129.9304   24848133.0824
       884.7034        689.3794
  -1440136.27246  -1122182.58346  22489845.5864   22489850.2034
      2565.2504       1998.8964
    607047.78747    440084.42847  21228427.3754   21228430.3284
     -1231.3594       -959.5014
   1003498.96345    756251.90143  24145984.8364   24145989.5004
     -1768.5944      -1378.1254
 98  6 11 20 11 30.0000000  0  8G 5G 6G26G10G13G17G30G24
   1453949.59546   1132945.47045  22836475.5234   22836480.7034
     -2592.8444      -2020.3984
  -1362633.18547  -1061791.09147  21101132.3054   21101134.7304
      2359.7344       1838.7544
  -1919987.24144  -1343204.32942  24208890.0864   24208896.0164
      3434.5784       2676.2954
    723743.89847    563956.10446  21776264.8914   21776268.0204
     -1387.0944      -1080.8524
   -564470.30144   -421617.46342  24845614.1254   24845618.3794
       877.5314        683.7914
  -1478591.29046  -1152147.50946  22482527.8594   22482532.2894
      2562.0474       1996.4004
    625578.39847    454523.85047  21231953.7504   21231956.5744
     -1239.3594       -965.7354
   1030022.33145    776919.39843  24151031.6724   24151036.9574
     -1767.8124      -1377.5164
 98  6 11 20 11 45.0000000  0  8G 5G 6G26G10G13G17G30G24
   1492860.00646   1163265.21445  22843879.9144   22843885.7154
     -2595.2814      -2022.2974
  -1398006.64147  -1089354.80647  21094400.7584   21094403.1254
      2356.6724       1836.3684
  -1971505.35444  -1383348.16142  24199085.3984   24199094.0744
      3434.5784       2676.2954
    744601.75247    580208.98046  21780233.9144   21780237.0434
     -1394.0004      -1086.2344
   -577580.96344   -431833.48442  24843119.6174   24843124.8554
       870.5634        678.3604
  -1516997.86646  -1182074.68146  22475219.4844   22475224.0784
      2558.8914       1993.9414
    644228.41947    469056.31547  21235502.7974   21235505.6684
     -1247.2814       -971.9074
   1056531.98445    797576.27543  24156075.9224   24156080.0004
     -1766.8284      -1376.7494
 98  6 11 20 12  0.0000000  0  8G 5G 6G26G10G13G17G30G24
   1531811.22446   1193616.74545  22851292.2274   22851297.9224
     -2598.1414      -2024.5254
  -1433329.47247  -1116879.07647  21087679.2344   21087681.5314
      2353.0944       1833.5804
  -2023021.17644  -1423490.25242  24189282.6024   24189290.2584
      3434.2034       2676.0024
    765567.89047    596546.22546  21784223.7814   21784226.8524
     -1401.4534      -1092.0414
   -590584.62144   -441966.17642  24840644.5864   24840649.9304
       863.4064        672.7844
  -1555356.77946  -1211964.71746  22467919.8834   22467924.1024
      2555.6884       1991.4454
    663000.20947    483683.66747  21239074.9454   21239077.7814
     -1255.5624       -978.3604
   1083029.64445    818223.76043  24161118.8134   24161122.6804
     -1766.1414      -1376.2134
 98  6 11 20 12 15.0000000  0  8G 5G 6G26G10G13G17G30G24
   1570803.00946   1223999.87845  22858711.8594   22858717.9304
     -2600.6414      -2026.4734
  -1468598.68647  -1144361.56747  21080967.7974   21080970.1054
      2349.4844       1830.7674
  -2074531.58744  -1463628.10143  24179480.6414   24179488.2154
      3433.8594       2675.7354
    786644.81847    612969.80346  21788234.6414   21788237.6294
     -1408.7664      -1097.7394
   -603481.67544   -452015.82642  24838190.4384   24838194.1884
       856.2034        667.1714
  -1593666.98746  -1241816.80746  22460629.7584   22460633.9414
      2552.3444       1988.8394
    681896.20847    498407.80147  21242670.6414   21242673.3954
     -1263.8284       -984.8014
   1109514.16945    838861.02043  24166158.7344   24166163.3754
     -1765.0944      -1375.3984
 98  6 11 20 12 30.0000000  0  8G 5G 6G26G10G13G17G30G24
   1609829.83346   1254410.32445  22866138.8444   22866144.8094
     -2602.7814      -2028.1414
  -1503813.73547  -1171801.85147  21074266.4844   21074268.6884
      2345.9064       1827.9794
  -2126034.20744  -1503759.90043  24169680.1484   24169688.0514
      3433.2504       2675.2604
    807830.55047    629478.16546  21792266.0004   21792269.0824
     -1415.9224      -1103.3164
   -616269.58744   -461980.40942  24835756.7504   24835761.9414
       848.9844        661.5464
  -1631925.66046  -1271628.73746  22453349.5084   22453353.7854
      2548.9534       1986.1974
    700915.13647    513227.73047  21246290.1484   21246292.9384
     -1271.9534       -991.1324
   1135983.28345    859486.30843  24171195.7664   24171200.0664
     -1764.0164      -1374.5584
 98  6 11 20 12 45.0000000  0  8G 5G 6G26G10G13G17G30G24
   1648888.37846   1284845.47845  22873571.5004   22873576.5744
     -2604.9374      -2029.8214
  -1538972.20347  -1199198.04547  21067576.2664   21067578.4694
      2341.9224       1824.8744
  -2177526.91644  -1543883.95443  24159881.0164   24159888.4844
      3432.5314       2674.7004
    829124.87847    646071.14746  21796318.3984   21796321.5634
     -1423.2504      -1109.0264
   -628950.01844   -471861.20742  24833344.4454   24833348.5944
       841.7504        655.9094
  -1670134.97546  -1301402.20046  22446078.1954   22446082.7304
      2545.7194       1983.6774
    720056.03647    528142.69947  21249932.5784   21249935.1914
     -1280.0004       -997.4034
   1162435.81345    880098.59642  24176229.1174   24176234.4844
     -1762.8444      -1373.6444
 98  6 11 20 13  0.0000000  0  8G 5G 6G26G10G13G17G30G24
   1687979.05946   1315305.68445  22881010.2114   22881015.6024
     -2607.0944      -2031.5024
  -1574069.95547  -1226546.92947  21060897.3134   21060899.2934
      2337.8914       1821.7334
  -2229008.55944  -1583999.40743  24150083.9454   24150091.4384
      3431.7504       2674.0914
    850528.44747    662749.25646  21800391.1564   21800394.3094
     -1430.4694      -1114.6514
   -641522.24944   -481657.75042  24830952.0704   24830955.1524
       834.6094        650.3454
  -1708296.07046  -1331138.09746  22438816.5634   22438820.5354
      2542.4844       1981.1574
    739315.24347    543149.85447  21253597.5394   21253600.1994
     -1287.8444      -1003.5154
   1188867.55245    900694.75643  24181258.4534   24181262.5664
     -1761.2664      -1372.4154
 98  6 11 20 13 15.0000000  0  8G 5G 6G26G10G13G17G30G24
   1727102.85746   1345791.68745  22888454.9844   22888459.9304
     -2609.4534      -2033.3404
  -1609110.62547  -1253851.33847  21054229.1484   21054231.4804
      2334.2194       1818.8724
  -2280479.11344  -1624106.20543  24140289.8984   24140297.0514
      3431.0474       2673.5434
    872039.14847    679510.83346  21804484.6334   21804487.7384
     -1437.5944      -1120.2034
   -653986.97744   -491370.47442  24828580.2274   24828580.9654
       827.3284        644.6714
  -1746408.30846  -1360835.92746  22431563.9844   22431568.4614
      2539.1884       1978.5884
    758690.90747    558247.75747  21257284.5004   21257287.1374
     -1295.5314      -1009.5054
   1215274.41445    921271.49743  24186283.9454   24186288.4104
     -1759.6414      -1371.1494
 98  6 11 20 13 30.0000000  0  8G 5G 6G26G10G13G17G30G24
   1766263.69846   1376306.56045  22895906.9614   22895912.4804
     -2611.9844      -2035.3124
  -1644095.87847  -1281112.56047  21047571.6174   21047574.0554
      2330.5314       1815.9984
  -2331940.90444  -1664206.16543  24130496.4694   24130503.2074
      3430.5944       2673.1904
    893657.24546    696356.10946  21808598.3834   21808601.5944
     -1444.8124      -1125.8284
   -666342.02644   -500997.78842  24826228.7344   24826234.0904
       820.0944        639.0344
  -1784472.23346  -1390496.10946  22424320.6724   22424325.1724
      2536.0634       1976.1534
    778180.99747    573434.81847  21260993.2344   21260995.8364
     -1303.0624      -1015.3734
   1241657.32645    941829.58643  24191304.5944   24191308.6134
     -1758.0624      -1369.9194
 98  6 11 20 13 45.0000000  0  8G 5G 6G26G10G13G17G30G24
   1805462.24846   1406850.82145  22903366.5944   22903372.2304
     -2614.5164      -2037.2854
  -1679025.56747  -1308330.48447  21040924.7974   21040927.1764
      2326.7814       1813.0764
  -2383395.68945  -1704300.67443  24120705.5864   24120712.7504
      3430.0474       2672.7644
    915385.03147    713286.84546  21812732.9774   21812736.2934
     -1452.1874      -1131.5754
   -678589.53344   -510541.25042  24823897.5784   24823903.5904
       812.8594        633.3974
  -1822490.28146  -1420120.53246  22417086.0864   22417090.2234
      2532.9844       1973.7544
    797782.41447    588708.63647  21264723.3984   21264726.0124
     -1310.4844      -1021.1574
   1268016.62145    962369.24843  24196320.3674   24196326.9414
     -1756.4844      -1368.6894
 98  6 11 20 14  0.0000000  0  8G 5G 6G26G10G13G17G30G24
   1844701.89346   1437427.09245  22910833.4384   22910838.7234
     -2617.3444      -2039.4894
  -1713897.66247  -1335503.53547  21034288.7664   21034291.0984
      2322.8914       1810.0454
  -2434841.45545  -1744388.19043  24110915.8204   24110924.0274
      3429.4694       2672.3134
    937223.79547    730304.06546  21816889.0084   21816891.9264
     -1459.5784      -1137.3344
   -690725.91044   -519998.14142  24821587.5474   24821592.9144
       805.3284        627.5284
  -1860460.72846  -1449707.87846  22409860.4144   22409864.8204
      2529.8444       1971.3074
    817497.99347    604071.40547  21268475.1334   21268477.9104
     -1318.2194      -1027.1834
   1294354.22544    982892.05743  24201332.5004   24201337.8444
     -1755.1414      -1367.6424
 98  6 11 20 14 15.0000000  0  8G 5G 6G26G10G13G17G30G24
   1883981.07745   1468034.16245  22918308.2114   22918313.8364
     -2619.8284      -2041.4254
  -1748712.42147  -1362631.90847  21027663.7274   21027666.0354
      2319.1724       1807.1474
  -2486278.93344  -1784469.22443  24101127.1644   24101134.1414
      3428.8594       2671.8384
    959171.58647    747406.23446  21821065.3914   21821068.6374
     -1466.7194      -1142.8984
   -702748.55544   -529366.39142  24819300.7814   24819305.0234
       797.7034        621.5874
  -1898384.64046  -1479258.95046  22402644.1174   22402648.6644
      2526.7034       1968.8604
    837329.17847    619524.25647  21272248.8594   21272251.6134
     -1325.8284      -1033.1134
   1320670.73744   1003398.34542  24206340.5394   24206344.5944
     -1753.6874      -1366.5104
 98  6 11 20 14 30.0000000  0  8G 5G 6G26G10G13G17G30G24
   1923298.11945   1498670.75445  22925790.1414   22925795.8484
     -2622.3914      -2043.4214
  -1783472.28047  -1389717.49647  21021049.3204   21021051.7344
      2315.5474       1804.3224
  -2537708.00544  -1824543.67543  24091339.6024   24091345.9184
      3428.4064       2671.4854
    981225.10147    764590.79746  21825261.8364   21825264.9064
     -1473.7344      -1148.3644
   -714656.46244   -538645.25342  24817035.1254   24817038.2774
       790.0944        615.6574
  -1936261.67246  -1508773.50146  22395435.8364   22395440.1954
      2523.6884       1966.5104
    857271.75147    635063.90247  21276044.0004   21276046.6024
     -1333.0944      -1038.7744
   1346966.22345   1023888.32142  24211344.7504   24211349.7194
     -1752.3594      -1365.4754
 98  6 11 20 14 45.0000000  0  8G 5G 6G26G10G13G17G30G24
   1962656.74545   1529339.74345  22933279.9924   22933284.9264
     -2625.4224      -2045.7834
  -1818176.96147  -1416760.09247  21014445.1954   21014447.6684
      2311.7664       1801.3764
  -2589128.18745  -1864611.21343  24081554.8524   24081562.9414
      3427.7194       2670.9504
   1003385.51047    781858.64246  21829478.7274   21829481.6804
     -1480.9534      -1153.9894
   -726449.89144   -547834.92542  24814790.4144   24814793.2274
       782.3754        609.6434
  -1974093.29046  -1538252.66746  22388237.0474   22388241.8054
      2520.5944       1964.0994
    877323.45647    650688.58847  21279859.7734   21279862.3874
     -1340.3914      -1044.4604
   1373244.26745   1044364.73342  24216344.7894   24216349.7934
     -1751.2814      -1364.6354
 98  6 11 20 15  0.0000000  0  8G 5G 6G26G10G13G17G30G24
   2002064.31145   1560046.87045  22940778.7814   22940784.4654
     -2628.9534      -2048.5354
  -1852823.83847  -1443757.65047  21007851.9694   21007854.3714
      2307.8444       1798.3204
  -2640538.33745  -1904670.93143  24071771.9384   24071779.2424
      3426.9384       2670.3414
   1025654.24047    799210.90346  21833716.8444   21833719.7274
     -1488.2034      -1159.6394
   -738124.91644   -556932.30642  24812568.6334   24812570.8954
       774.2504        603.3124
  -2011877.98346  -1567695.26346  22381046.9384   22381051.2974
      2517.3754       1961.5914
    897483.94047    666398.03047  21283696.0864   21283698.4774
     -1347.6414      -1050.1104
   1399506.68745   1064828.92243  24221343.2114   24221349.1414
     -1750.4064      -1363.9534
 98  6 11 20 15 15.0000000  0  8G 5G 6G26G10G13G17G30G24
   2041525.44445   1590795.72345  22948287.8674   22948292.9184
     -2632.6724      -2051.4334
  -1887413.78147  -1470710.84247  21001269.9384   21001272.0474
      2304.0784       1795.3864
  -2691937.15545  -1944721.87543  24061990.6254   24062000.3554
      3426.1414       2669.7204
   1048031.26547    816647.54046  21837974.7584   21837977.7934
     -1495.5624      -1165.3734
   -749678.68344   -565935.23242  24810369.5704   24810371.4804
       766.1564        597.0054
  -2049615.23846  -1597100.89546  22373865.5864   22373869.6414
      2514.1564       1959.0834
    917753.86247    682192.75847  21287553.4224   21287555.9654
     -1355.2194      -1056.0154
   1425756.02445   1085282.91443  24226337.7194   24226344.0004
     -1749.6254      -1363.3444
 98  6 11 20 15 30.0000000  0  8G 5G 6G26G10G13G17G30G24
   2081042.27145   1621587.98845  22955807.5944   22955813.5594
     -2636.1874      -2054.1724
  -1921947.36547  -1497620.12347  20994698.1724   20994700.3404
      2300.3444       1792.4764
  -2743324.77444  -1984764.05243  24052212.3674   24052221.2194
      3425.4844       2669.2094
   1070519.78247    834171.06546  21842254.1724   21842257.2774
     -1502.8754      -1171.0714
   -761110.77244   -574843.33442  24808194.5474   24808200.0664
       758.0944        590.7224
  -2087305.16746  -1626469.65346  22366693.2504   22366697.4224
      2511.2344       1956.8064
    938139.54347    698077.68447  21291432.7894   21291435.4844
     -1362.9064      -1062.0054
   1451993.67845   1105727.79843  24231330.9774   24231335.8404
     -1748.7504      -1362.6624
 98  6 11 20 15 45.0000000  0  8G 5G 6G26G10G13G17G30G24
   2120613.88845   1652422.94145  22963338.3204   22963343.7704
     -2639.8594      -2057.0334
  -1956419.90547  -1524481.83347  20988138.3524   20988140.5664
      2296.1254       1789.1884
  -2794697.01244  -2024794.25843  24042436.6024   24042444.6214
      3424.1724       2668.1864
   1093121.63346    851782.89046  21846555.2424   21846558.5004
     -1510.5624      -1177.0624
   -772418.30244   -583654.36842  24806042.8524   24806045.9694
       749.6724        584.1604
  -2124947.98446  -1655801.70546  22359530.4774   22359534.8954
      2507.9064       1954.2134
    958645.80647    714056.56747  21295334.9384   21295337.4694
     -1371.1564      -1068.4334
   1478222.87545   1126166.08642  24236322.0944   24236329.8444
     -1748.3444      -1362.3464
 98  6 11 20 16  0.0000000  0  9G 5G 6G26G10G13G17G30G24G23
   2160236.38545   1683297.54045  22970878.5634   22970884.3164
     -2643.1724      -2059.6144
  -1990832.03047  -1551296.46247  20981590.0394   20981592.2424
      2292.0474       1786.0114
  -2846049.09544  -2064808.73443  24032664.6334   24032672.4884
      3422.6884       2667.0294
   1115835.33146    869481.87446  21850877.6024   21850880.7774
     -1517.9374      -1182.8084
   -783600.75444   -592367.89842  24803915.1414   24803920.1684
       741.2344        577.5854
  -2162542.20246  -1685095.87846  22352376.1484   22352380.4734
      2504.5784       1951.6194
    979273.96147    730130.43147  21299260.3674   21299262.9574
     -1379.3444      -1074.8134
   1504442.29645   1146596.78843  24241311.0004   24241316.1094
     -1747.7034      -1361.8474
    -46406.51044                  24614935.1334
      4218.3914
 98  6 11 20 16 15.0000000  0  9G 5G 6G26G10G13G17G30G24G23
   2199909.41145   1714211.51045  22978427.9384   22978433.7504
     -2646.5784      -2062.2694
  -2025179.75247  -1578060.91247  20975053.9774   20975056.1094
      2287.5634       1782.5164
  -2897377.28144  -2104804.60743  24022896.7504   24022903.2774
      3420.9694       2665.6904
   1138659.51046    887266.94646  21855220.9384   21855224.1484
     -1525.3444      -1188.5804
   -794654.88044   -600981.53542  24801811.0234   24801813.5784
       732.5784        570.8404
  -2200084.85046  -1714349.85946  22345232.3444   22345237.1134
      2501.0784       1948.8924
   1000026.91647    746301.54347  21303209.2664   21303211.8914
     -1387.7194      -1081.3394
   1530655.27145   1167022.45542  24246299.4614   24246304.8284
     -1747.4064      -1361.6154
   -109666.46144                  24602897.3674
      4216.2814
 98  6 11 20 16 30.0000000  0  9G 5G 6G26G10G13G17G30G24G23
   2239634.60245   1745166.14245  22985987.3674   22985992.9804
     -2650.1724      -2065.0694
  -2059459.24447  -1604772.19647  20968530.7424   20968532.9804
      2283.0314       1778.9854
  -2948675.75944  -2144777.33843  24013135.8284   24013142.7814
      3418.7974       2663.9984
   1161596.33846    905139.79846  21859585.4774   21859588.5944
     -1532.9224      -1194.4854
   -805578.91144   -609493.74142  24799732.5474   24799737.7974
       723.9384        564.1074
  -2237573.55246  -1743561.81846  22338098.2584   22338103.1804
      2497.3914       1946.0194
   1020903.80647    762569.21947  21307182.1564   21307184.8054
     -1395.8754      -1087.6954
   1556864.35745   1187445.09143  24251287.4064   24251292.3874
     -1747.1874      -1361.4454
   -172894.84343                  24590865.1644
      4214.1094
 98  6 11 20 16 45.0000000  0  9G 5G 6G26G10G13G17G30G24G23
   2279413.91745   1776162.93645  22993557.1334   22993562.9224
     -2653.7664      -2067.8694
  -2093670.98747  -1631430.69247  20962020.3524   20962022.4844
      2278.5314       1775.4794
  -2999942.25944  -2184725.16943  24003379.1334   24003385.0514
      3416.7034       2662.3664
   1184646.53746    923100.99546  21863972.0864   21863975.3794
     -1540.4844      -1200.3774
   -816373.25844   -617904.88142  24797678.1644   24797682.4304
       715.2814        557.3624
  -2275005.96446  -1772729.90446  22330975.2424   22330979.7424
      2493.5474       1943.0244
   1041904.44947    778933.33847  21311178.6644   21311181.1374
     -1404.2814      -1094.2454
   1583070.28245   1207865.23943  24256273.8204   24256278.4964
     -1746.9694      -1361.2744
   -236088.64743                  24578838.9694
      4211.6724
 98  6 11 20 17  0.0000000  0  9G 5G 6G26G10G13G17G30G24G23
   2319246.96845   1807201.59545  23001137.3834   23001143.6174
     -2657.3754      -2070.6824
  -2127815.97047  -1658037.16147  20955522.8284   20955525.0204
      2274.1094       1772.0334
  -3051176.84044  -2224648.05343  23993629.0634   23993635.5314
      3414.5784       2660.7104
   1207809.16846    941149.79646  21868379.8284   21868383.0744
     -1547.8594      -1206.1244
   -827036.90244   -626214.24442  24795649.1094   24795655.6134
       706.4844        550.5074
  -2312379.68346  -1801852.26046  22323863.1174   22323867.3364
      2489.5784       1939.9314
   1063031.98147    795396.32947  21315198.9064   21315201.6954
     -1412.7344      -1100.8324
   1609272.60044   1228282.60543  24261260.0474   24261266.3984
     -1746.7034      -1361.0674
   -299244.57243    -39364.82953  24566821.5084   24566831.4024
      4209.0944       3279.8134
 98  6 11 20 17 15.0000000  0  9G 5G 6G26G10G13G17G30G24G23
   2359134.22245   1838282.48245  23008727.5864   23008733.3524
     -2660.8124      -2073.3604
  -2161893.32847  -1684590.93447  20949038.1254   20949040.2114
      2269.5474       1768.4784
  -3102378.54044  -2264545.39143  23983885.7034   23983892.7034
      3412.3594       2658.9814
   1231083.04346    959285.28446  21872808.4614   21872811.5664
     -1555.3284      -1211.9444
   -837567.65844   -634419.93642  24793645.7344   24793649.8134
       697.6884        543.6534
  -2349692.68146  -1830927.30046  22316762.6174   22316766.6724
      2485.5314       1936.7784
   1084287.94047    811959.39347  21319243.8984   21319246.6294
     -1421.4224      -1107.6014
   1635472.41545   1248698.04642  24266245.5314   24266250.9104
     -1746.5784      -1360.9704
   -362359.44543    -88545.14342  24554810.6954   24554819.1954
      4206.2664       3277.6104
 98  6 11 20 17 30.0000000  0  9G 5G 6G26G10G13G17G30G24G23
   2399069.74545   1869400.99145  23016327.4144   23016333.1214
     -2663.9534      -2075.8084
  -2195900.84347  -1711090.29047  20942566.7344   20942568.9144
      2264.7504       1764.7404
  -3153547.33044  -2304417.04743  23974148.8204   23974155.8674
      3410.1564       2657.2654
   1254469.78346    977508.71046  21877258.6414   21877261.8054
     -1562.9374      -1217.8734
   -847967.73044   -642523.90642  24791666.1254   24791669.7464
       688.8914        536.7984
  -2386943.09046  -1859953.56946  22309674.1724   22309678.4024
      2481.0944       1933.3204
   1105675.65647    828625.12547  21323313.8284   21323316.4184
     -1430.2664      -1114.4934
   1661671.80645   1269113.07442  24271230.7274   24271236.4104
     -1746.7194      -1361.0804
   -425431.45143   -137691.98642  24542807.9534   24542818.8094
      4203.2664       3275.2724
 98  6 11 20 17 45.0000000  0  9G 5G 6G26G10G13G17G30G24G23
   2439048.21845   1900552.97845  23023934.9304   23023941.1054
     -2666.6724      -2077.9264
  -2229838.09347  -1737534.88947  20936108.5164   20936110.6254
      2260.0634       1761.0884
  -3204685.45143  -2344264.84942  23964417.5164   23964423.7384
      3408.0634       2655.6334
   1277966.80346    995818.07346  21881730.1334   21881733.4494
     -1570.1724      -1223.5114
   -858237.05244   -650525.95542  24789712.2894   24789715.1724
       680.2034        530.0284
  -2424127.91246  -1888928.73446  22302597.8674   22302602.6604
      2476.7034       1929.8994
   1127190.28247    845389.74147  21327407.9694   21327410.5354
     -1438.4374      -1120.8604
   1687872.26245   1289529.01142  24276216.8594   24276223.7424
     -1746.8914      -1361.2134
   -488461.01243   -186805.76742  24530814.3524   24530824.5744
      4200.5634       3273.1664
 98  6 11 20 18  0.0000000  0  9G 5G 6G26G10G13G17G30G24G23
   2479069.96845   1931738.66345  23031550.9224   23031556.6644
     -2669.6564      -2080.2524
  -2263703.98947  -1763923.89047  20929664.0864   20929665.9264
      2255.2814       1757.3624
  -3255791.05143  -2384087.23842  23954692.5084   23954698.4734
      3405.9694       2654.0024
   1301574.71746   1014213.85246  21886222.4844   21886225.8834
     -1577.6094      -1229.3064
   -868374.77644   -658425.45942  24787783.2504   24787788.3014
       671.4224        523.1864
  -2461243.66146  -1917850.07646  22295535.0944   22295539.7464
      2472.0004       1926.2344
   1148826.20647    862248.87747  21331525.2584   21331527.7304
     -1446.4064      -1127.0704
   1714077.38245   1309948.56742  24281203.3594   24281207.2734
     -1747.2194      -1361.4694
   -551448.39143   -235886.76942  24518827.8524   24518838.2974
      4197.7034       3270.9384
 98  6 11 20 18 15.0000000  0  9G 5G 6G26G10G13G17G30G24G23
   2519139.72845   1962961.77245  23039176.1174   23039182.0824
     -2672.9224      -2082.7964
  -2297495.08947  -1790254.61247  20923234.1884   20923236.0274
      2250.3134       1753.4904
  -3306865.91743  -2423885.71942  23944972.8204   23944980.9924
      3404.0784       2652.5284
   1325296.23046   1032698.14246  21890736.7894   21890739.9774
     -1585.1414      -1235.1754
   -878379.68044   -666221.48542  24785878.3914   24785882.7154
       662.6724        516.3684
  -2498287.45546  -1946715.34646  22288485.8984   22288490.8794
      2467.2974       1922.5694
   1170582.80347    879202.04447  21335665.4774   21335668.0664
     -1454.3914      -1133.2914
   1740290.45545   1330374.27842  24286191.8054   24286197.5594
     -1747.7344      -1361.8714
   -614392.73743   -284934.17442  24506849.7034   24506858.2734
      4195.0164       3268.8434
 98  6 11 20 18 30.0000000  0  9G 5G 6G26G10G13G17G30G24G23
   2559260.60145   1994224.71545  23046810.8054   23046817.0514
     -2676.4844      -2085.5724
  -2331211.56447  -1816527.18147  20916818.0164   20916819.7974
      2245.3134       1749.5944
  -3357912.65643  -2463662.24542  23935258.6804   23935265.8794
      3402.2194       2651.0804
   1349130.77646   1051270.51346  21895272.2274   21895275.4964
     -1592.7974      -1241.1404
   -888252.71544   -673914.74342  24784000.5944   24784003.8754
       653.8134        509.4644
  -2535261.67046  -1975526.39846  22281449.9064   22281454.3834
      2462.6724       1918.9654
   1192460.54447    896249.61347  21339828.3984   21339831.2584
     -1462.5624      -1139.6594
   1766510.58745   1350805.52143  24291181.1334   24291185.3054
     -1748.1724      -1362.2124
   -677297.55943   -333950.78042  24494879.4774   24494885.8284
      4192.3594       3266.7744
 98  6 11 20 18 45.0000000  0  9G 5G 6G26G10G13G17G30G24G23
   2599434.43445   2025528.90245  23054456.0314   23054461.9614
     -2680.1254      -2088.4094
  -2364855.47547  -1842743.20747  20910415.6804   20910417.5204
      2240.4384       1745.7954
  -3408932.56743  -2503417.88242  23925549.3524   23925554.0744
      3400.4064       2649.6674
   1373081.12046   1069933.11746  21899829.7424   21899832.8594
     -1600.6414      -1247.2524
   -897993.87645   -681505.22442  24782146.6564   24782151.6604
       644.9224        502.5374
  -2572166.53646  -2004283.40746  22274427.2734   22274431.7274
      2457.9224       1915.2644
   1214459.81547    913391.87346  21344014.9614   21344017.8794
     -1470.8594      -1146.1244
   1792736.15345   1371241.01243  24296171.7034   24296177.8914
     -1748.7034      -1362.6264
   -740162.73143   -382936.46341  24482916.0164   24482923.5904
      4189.5944       3264.6194
 98  6 11 20 19  0.0000000  0  9G 5G 6G26G10G13G17G30G24G23
   2639662.16345   2056875.10245  23062110.8674   23062116.4104
     -2683.6254      -2091.1364
  -2398426.66147  -1868902.56347  20904027.2194   20904029.2464
      2235.6094       1742.0334
  -3459927.02543  -2543153.69242  23915845.2734   23915854.6414
      3398.7504       2648.3774
   1397148.04746   1088686.56846  21904409.6254   21904412.7424
     -1608.3914      -1253.2914
   -907603.02044   -688992.89342  24780318.0634   24780322.1414
       636.2344        495.7674
  -2609002.81646  -2032986.98446  22267417.2894   22267421.4024
      2453.5314       1911.8434
   1236585.78447    930632.86346  21348225.3444   21348228.0984
     -1479.2974      -1152.6994
   1818969.13345   1391682.24542  24301164.1884   24301170.1994
     -1749.0944      -1362.9304
   -802987.36443   -431890.59742  24470960.8284   24470967.8404
      4187.0164       3262.6104
 98  6 11 20 19 15.0000000  0  9G 5G 6G26G10G13G17G30G24G23
   2679943.86445   2088263.36445  23069776.2034   23069781.9574
     -2687.2034      -2093.9254
  -2431920.60247  -1895001.72947  20897653.7814   20897655.8204
      2230.2504       1737.8574
  -3510894.11944  -2582868.19842  23906147.6564   23906153.3754
      3396.8444       2646.8914
   1421334.62946   1107533.25246  21909012.1484   21909015.1604
     -1616.4694      -1259.5864
   -917080.00244   -696377.48642  24778514.9694   24778519.7854
       627.4224        488.9004
  -2645771.94546  -2061638.21746  22260420.4534   22260424.6844
      2449.0314       1908.3364
   1258838.78547    947972.83946  21352459.8754   21352462.6994
     -1487.7344      -1159.2744
   1845209.55245   1412129.29343  24306156.8754   24306162.3484
     -1749.5624      -1363.2954
   -865771.18343   -480812.86242  24459014.5864   24459023.4264
      4184.1884       3260.4064
 98  6 11 20 19 30.0000000  0  9G 5G 6G26G10G13G17G30G24G23
   2720275.78045   2119690.73145  23077451.2504   23077457.1214
     -2690.4844      -2096.4814
  -2465334.70247  -1921038.67647  20891295.3284   20891297.3794
      2224.8754       1733.6694
  -3561832.96744  -2622560.73143  23896454.0474   23896460.1884
      3394.8444       2645.3334
   1445642.57446   1126474.50546  21913637.8444   21913641.1844
     -1624.6874      -1265.9904
   -926426.58944   -703660.54242  24776735.6564   24776739.8754
       618.6724        482.0824
  -2682474.27046  -2090237.41346  22253436.3054   22253440.9574
      2444.5004       1904.8054
   1281217.83847    965411.03746  21356718.5394   21356721.3164
     -1496.2664      -1165.9214
   1871455.08545   1432580.33442  24311151.7274   24311158.9264
     -1749.9064      -1363.5634
   -928512.76843   -529702.31541  24447074.4774   24447081.2734
      4181.3134       3258.1664
 98  6 11 20 19 45.0000000  0  9G 5G 6G26G10G13G17G30G24G23
   2760660.57545   2151159.33545  23085136.6564   23085142.5744
     -2694.3124      -2099.4644
  -2498667.85747  -1947012.55047  20884952.1024   20884954.2234
      2219.4694       1729.4564
  -3612738.50844  -2662227.21043  23886766.5084   23886773.0354
      3392.3914       2643.4214
   1470074.79846   1145512.60046  21918287.0944   21918290.1764
     -1633.0624      -1272.5164
   -935640.08344   -710839.89142  24774982.5314   24774986.9144
       609.6254        475.0324
  -2719105.99846  -2118781.58546  22246465.5084   22246469.9844
      2439.6564       1901.0314
   1303725.62047    982949.54746  21361001.6724   21361004.5434
     -1504.9064      -1172.6544
   1897707.96345   1453037.05943  24316147.7344   24316153.7464
     -1750.5164      -1364.0384
   -991209.66543   -578556.84642  24435143.7814   24435151.4964
      4178.1724       3255.7184
 98  6 11 20 20  0.0000000  0  9G 5G 6G26G10G13G17G30G24G23
   2801103.89645   2182673.53945  23092832.5634   23092838.2114
     -2698.1254      -2102.4354
  -2531920.50847  -1972923.69847  20878624.3524   20878626.2624
      2214.3444       1725.4634
  -3663604.43945  -2701862.87343  23877087.9454   23877093.5124
      3389.7974       2641.4004
   1494632.58446   1164648.53546  21922960.2584   21922963.6684
     -1641.2504      -1278.8964
   -944716.71644   -717912.53942  24773255.6414   24773261.0784
       600.6564        468.0444
  -2755668.16246  -2147271.55646  22239507.9924   22239512.6334
      2435.3914       1897.7074
   1326364.76647   1000590.41346  21365309.6024   21365312.6024
     -1513.6724      -1179.4854
   1923968.40545   1473499.74242  24321145.0864   24321150.6174
     -1750.7034      -1364.1844
  -1053861.78943   -627376.52542  24423219.9224   24423226.9924
      4175.5164       3253.6494
 98  6 11 20 20 15.0000000  0  9G 5G 6G26G10G13G17G30G24G23
   2841607.27345   2214234.51845  23100540.0474   23100545.7074
     -2702.2664      -2105.6624
  -2565095.22847  -1998774.12347  20872311.4304   20872313.3404
      2208.9384       1721.2504
  -3714429.96945  -2741467.07343  23867415.6254   23867421.4024
      3386.9534       2639.1844
   1519313.10646   1183880.10646  21927656.8914   21927660.1374
     -1649.4064      -1285.2524
   -953658.86044   -724880.50142  24771553.9304   24771556.7074
       591.6564        461.0314
  -2792165.93746  -2175711.36246  22232562.4694   22232566.5944
      2431.0634       1894.3344
   1349139.29647   1018336.77746  21369643.8134   21369646.7074
     -1522.9534      -1186.7174
   1950230.53245   1493963.69742  24326142.3444   24326147.1134
     -1750.8914      -1364.3304
  -1116472.75243   -676164.11142  24411306.2504   24411314.1994
      4172.6564       3251.4204
 98  6 11 20 20 30.0000000  0  9G 5G 6G26G10G13G17G30G24G23
   2882174.00145   2245844.85445  23108259.8914   23108265.8444
     -2706.4844      -2108.9494
  -2598187.28447  -2024560.13547  20866014.3594   20866016.0944
      2203.5164       1717.0254
  -3765208.85445  -2781034.91843  23857752.4924   23857758.2584
      3383.7034       2636.6524
   1544116.30246   1203207.26646  21932376.8364   21932380.2344
     -1657.5164      -1291.5714
   -962464.74144   -731742.16842  24769878.4304   24769880.1414
       582.5944        453.9694
  -2828598.28246  -2204100.17846  22225629.7664   22225633.8554
      2426.7664       1890.9864
   1372055.05847   1036193.19446  21374004.2194   21374006.8794
     -1532.2974      -1193.9984
   1976496.72145   1514430.77642  24331140.8284   24331144.7074
     -1751.0164      -1364.4284
  -1179040.40543   -724917.99042  24399399.8674   24399407.4534
      4169.8444       3249.2294
 98  6 11 20 20 45.0000000  0  9G 5G 6G26G10G13G17G30G24G23
   2922801.75445   2277502.76945  23115990.8754   23115997.2034
     -2710.3594      -2111.9684
  -2631199.21347  -2050283.70247  20859732.2734   20859734.1724
      2198.2034       1712.8864
  -3815939.41345  -2820565.07343  23848098.8594   23848106.1294
      3380.5004       2634.1564
   1569039.64946   1222628.05146  21937119.6024   21937123.0594
     -1665.5314      -1297.8174
   -971135.19544   -738498.40042  24768227.9844   24768234.5004
       573.5944        446.9564
  -2864966.98946  -2232439.41046  22218708.8364   22218713.3134
      2422.4694       1887.6384
   1395109.13047   1054157.37946  21378391.3364   21378394.3714
     -1541.4064      -1201.0964
   2002762.89244   1534897.97042  24336138.9454   24336143.1994
     -1750.9694      -1364.3914
  -1241566.54143   -773639.44342  24387501.2894   24387509.2734
      4167.0944       3247.0864
 98  6 11 20 21  0.0000000  0  9G 5G 6G26G10G13G17G30G24G23
   2963487.07645   2309205.52145  23123733.1094   23123739.2034
     -2714.2814      -2115.0244
  -2664130.51947  -2075944.45147  20853465.7734   20853467.7774
      2192.6414       1708.5514
  -3866620.47545  -2860056.66343  23838454.1724   23838459.9844
      3377.0314       2631.4534
   1594084.02146   1242143.14846  21941885.1024   21941888.2664
     -1673.5784      -1304.0874
   -979670.13144   -745148.98242  24766604.7504   24766609.7194
       564.4534        439.8344
  -2901269.58746  -2260727.12246  22211800.7584   22211805.2234
      2417.9844       1884.1444
   1418299.27247   1072227.59346  21382804.5634   21382807.4804
     -1550.5624      -1208.2314
   2029029.57644   1555365.45742  24341137.2584   24341141.9454
     -1751.1874      -1364.5624
  -1304051.81043   -822329.07942  24375610.2814   24375620.4694
      4164.2974       3244.9074
 98  6 11 20 21 15.0000000  0  9G 5G 6G26G10G13G17G30G24G23
   3004231.23545   2340954.10845  23131486.2504   23131491.8284
     -2718.0944      -2117.9954
  -2696975.94147  -2101538.27947  20847215.3524   20847217.2504
      2186.9064       1704.0834
  -3917248.29245  -2899506.80843  23828820.6334   23828826.5164
      3373.5314       2628.7264
   1619248.84146   1261752.09546  21946674.0394   21946677.1334
     -1681.5004      -1310.2604
   -988067.54144   -751692.35742  24765006.1414   24765012.1644
       555.3444        432.7354
  -2937504.77346  -2288962.31046  22204905.6484   22204910.2304
      2413.4534       1880.6134
   1441626.19347   1090404.39346  21387243.4064   21387246.0204
     -1559.4224      -1215.1344
   2055299.71344   1575835.64142  24346136.5784   24346142.7194
     -1751.2664      -1364.6234
  -1366493.01344   -870984.43442  24363728.4844   24363736.7854
      4161.4064       3242.6544
 98  6 11 20 21 30.0000000  0  9G 5G 6G26G10G13G17G30G24G23
   3045031.77545   2372746.64645  23139250.8524   23139256.9104
     -2721.9534      -2121.0024
  -2729736.45147  -2127065.94147  20840981.2974   20840983.0434
      2181.2664       1699.6884
  -3967823.33945  -2938915.78943  23819195.8134   23819201.8834
      3369.8754       2625.8774
   1644529.41646   1281451.24446  21951484.5864   21951487.8674
     -1689.1874      -1316.2504
   -996327.49744   -758128.69642  24763433.4924   24763436.9614
       546.0164        425.4674
  -2973671.29446  -2317143.99446  22198023.3524   22198027.5594
      2408.7504       1876.9484
   1465082.97247   1108682.38446  21391707.2424   21391710.0314
     -1568.1564      -1221.9404
   2081570.26044   1596306.20242  24351135.6254   24351141.7304
     -1751.4534      -1364.7694
  -1428891.66444   -919606.59542  24351854.5474   24351863.3404
      4158.4534       3240.3534
 98  6 11 20 21 45.0000000  0  9G 5G 6G26G10G13G17G30G24G23
   3085890.67145   2404584.67945  23147026.3444   23147032.9064
     -2726.0004      -2124.1564
  -2762413.97847  -2152528.94147  20834762.9694   20834764.9024
      2175.6254       1695.2924
  -4018344.83645  -2978283.07643  23809581.4694   23809586.8714
      3366.2504       2623.0524
   1669924.17846   1301239.36246  21956317.2424   21956320.6524
     -1696.8124      -1322.1924
  -1004448.83544   -764457.01042  24761888.2504   24761892.5514
       536.7194        418.2224
  -3009767.82346  -2345271.14046  22191154.3204   22191158.9024
      2404.0784       1873.3084
   1488670.31547   1127062.10246  21396195.8284   21396198.5594
     -1576.8594      -1228.7224
   2107844.09244   1616779.25942  24356135.5474   24356141.3134
     -1751.8124      -1365.0494
  -1491247.98844   -968195.77142  24339987.1254   24339995.4264
      4155.5784       3238.1134
 98  6 11 20 22  0.0000000  0  9G 5G 6G26G10G13G17G30G24G23
   3126806.43745   2436466.98745  23154812.2114   23154819.1884
     -2729.5784      -2126.9444
  -2795009.87347  -2177928.33047  20828560.0634   20828561.9844
      2170.2664       1691.1164
  -4068817.01845  -3017611.94844  23799977.5394   23799983.2934
      3363.1564       2620.6414
   1695429.13246   1321113.35646  21961170.5164   21961173.8554
     -1704.0474      -1327.8294
  -1012434.15844   -770679.30942  24760368.7734   24760370.8834
       527.8284        411.2954
  -3045798.44746  -2373346.93046  22184297.9224   22184302.2234
      2399.8914       1870.0454
   1512382.83947   1145539.36946  21400708.1644   21400710.8484
     -1585.0004      -1235.0654
   2134119.70844   1637253.69042  24361135.7424   24361139.1884
     -1751.7504      -1365.0004
  -1553564.24244  -1016753.70442  24328129.6884   24328139.3134
      4153.0474       3236.1404
 98  6 11 20 22 15.0000000  0  9G 5G 6G26G10G13G17G30G24G23
   3167783.37245   2468396.99345  23162609.8054   23162615.9804
     -2733.7814      -2130.2194
  -2827515.27247  -2203257.20747  20822374.6094   20822376.3674
      2163.9534       1686.1974
  -4119235.84845  -3056899.19243  23790382.6254   23790388.6024
      3359.6094       2617.8774
   1721051.19846   1341078.59146  21966046.5314   21966050.0474
     -1712.0474      -1334.0624
  -1020278.64944   -776791.86342  24758876.3914   24758879.3794
       518.3134        403.8804
  -3081758.39846  -2401367.65246  22177454.7974   22177458.9344
      2394.9064       1866.1614
   1536225.26747   1164117.85846  21405245.0784   21405247.9024
     -1593.7664      -1241.8954
   2160402.41344   1657733.71642  24366136.5474   24366139.5944
     -1752.4064      -1365.5114
  -1615832.60444  -1065274.32842  24316280.5004   24316289.2114
      4149.5004       3233.3774
 98  6 11 20 22 30.0000000  0  9G 5G 6G26G10G13G17G30G24G23
   3208816.92645   2500371.09545  23170418.0944   23170424.6684
     -2737.2344      -2132.9104
  -2859927.46147  -2228513.44547  20816206.6724   20816208.4414
      2157.7344       1681.3514
  -4169606.83545  -3096149.17943  23780797.6254   23780802.7814
      3356.6094       2615.5404
   1746789.89546   1361134.71346  21970944.3594   21970947.8404
     -1719.7664      -1340.0774
  -1027985.01944   -782796.85242  24757410.5164   24757413.7624
       509.1884        396.7694
  -3117646.17646  -2429332.13446  22170625.8134   22170629.9844
      2390.1564       1862.4594
   1560192.58347   1182793.65846  21409805.9224   21409808.8284
     -1601.7974      -1248.1534
   2186691.57645   1678218.74642  24371139.3594   24371143.8134
     -1752.8124      -1365.8284
  -1678049.25044  -1113754.67442  24304441.0554   24304447.9734
      4146.0944       3230.7224
 98  6 11 20 22 45.0000000  0  9G 5G 6G26G10G13G17G30G24G23
   3249901.02145   2532384.57545  23178236.6954   23178242.6484
     -2740.6094      -2135.5404
  -2892247.60647  -2253697.96647  20810056.3204   20810058.1724
      2151.6564       1676.6154
  -4219933.63645  -3135364.77943  23771220.4144   23771225.6644
      3353.6724       2613.2514
   1772646.59346   1381282.78546  21975864.5634   21975867.8094
     -1727.8284      -1346.3604
  -1035551.30744   -788692.62142  24755970.7734   24755973.6214
       499.6564        389.3434
  -3153460.83546  -2457239.64846  22163810.4534   22163814.5904
      2385.1094       1858.5274
   1584279.76347   1201562.86746  21414389.5084   21414392.5084
     -1609.8284      -1254.4124
   2212986.94344   1698708.58742  24376143.9614   24376148.1564
     -1753.2344      -1366.1574
  -1740213.40044  -1162194.12842  24292611.1024   24292618.4884
      4142.4384       3227.8734
 98  6 11 20 23  0.0000000  0  9G 5G 6G26G10G13G17G30G24G23
   3291032.96745   2564435.35945  23186063.3594   23186069.6524
     -2743.7814      -2138.0114
  -2924477.47647  -2278812.13947  20803923.3284   20803925.2504
      2145.5314       1671.8434
  -4270219.36545  -3174548.33443  23761651.5084   23761657.1214
      3350.9384       2611.1204
   1798623.57046   1401524.58246  21980807.7504   21980811.0784
     -1735.9224      -1352.6664
  -1042975.74144   -794477.89742  24754557.3364   24754561.8244
       490.1564        381.9404
  -3189199.29046  -2485087.78246  22157009.3984   22157013.2894
      2379.8754       1854.4484
   1608487.79247   1220426.24046  21418996.4224   21418999.1884
     -1618.0474      -1260.8164
   2239289.32744   1719203.93742  24381148.6254   24381152.3054
     -1753.8754      -1366.6564
  -1802321.78843  -1210590.16542  24280792.0314   24280798.9734
      4138.5004       3224.8054
 98  6 11 20 23 15.0000000  0  9G 5G 6G26G10G13G17G30G24G23
   3332212.94945   2596523.53945  23193900.0554   23193906.0434
     -2747.0624      -2140.5684
  -2956617.54247  -2303856.33747  20797806.9454   20797808.7734
      2139.6884       1667.2894
  -4320465.51545  -3213701.04343  23752089.8284   23752097.8364
      3348.4224       2609.1604
   1824720.06146   1421859.49946  21985774.0164   21985777.4494
     -1743.7344      -1358.7544
  -1050258.99244   -800153.15343  24753171.1564   24753173.0664
       480.7664        374.6234
  -3224861.23846  -2512876.29246  22150223.4774   22150227.6604
      2374.8914       1850.5644
   1632817.54547   1239384.45746  21423626.1954   21423628.8674
     -1626.1094      -1267.0984
   2265600.56644   1739706.14442  24386155.7664   24386161.7544
     -1754.4694      -1367.1194
  -1864370.46844  -1258939.60942  24268985.1484   24268991.7934
      4134.4534       3221.6524
 98  6 11 20 23 30.0000000  0  9G 5G 6G26G10G13G17G30G24G23
   3373444.20545   2628651.71545  23201746.5554   23201752.0634
     -2750.4224      -2143.1864
  -2988669.29347  -2328831.71747  20791707.8204   20791709.8244
      2133.9534       1662.8214
  -4370670.76445  -3252821.88443  23742535.8914   23742543.3134
      3345.6254       2606.9814
   1850936.89846   1442288.20146  21990762.9064   21990766.3524
     -1751.8914      -1365.1104
  -1057398.01144   -805715.97742  24751813.0234   24751818.9774
       471.0784        367.0744
  -3260444.36946  -2540603.39346  22143451.7344   22143455.9064
      2369.4844       1846.3514
   1657271.20447   1258439.23246  21428279.8364   21428282.6134
     -1634.3914      -1273.5514
   2291923.35944   1760217.38441  24391165.3674   24391170.6524
     -1755.2664      -1367.7394
  -1926355.66944  -1307239.52643  24257189.0704   24257197.1254
      4130.2034       3218.3404
 98  6 11 20 23 45.0000000  0  9G 5G 6G26G10G13G17G30G24G23
   3414724.12645   2660817.78645  23209601.3444   23209607.1334
     -2753.6094      -2145.6704
  -3020637.48647  -2353741.99247  20785624.4454   20785626.3914
      2128.4064       1658.4984
  -4420835.21445  -3291910.94843  23732990.1334   23732995.8874
      3342.8754       2604.8384
   1877276.64946   1462812.68346  21995775.4224   21995778.8094
     -1760.1874      -1371.5754
  -1064392.65544   -811166.34242  24750481.1884   24750485.5354
       461.5164        359.6234
  -3295948.67246  -2568269.06946  22136695.8674   22136699.8874
      2364.3594       1842.3584
   1681849.92047   1277591.45346  21432956.6884   21432959.3714
     -1642.8914      -1280.1754
   2318257.95044                  24396176.0314
     -1756.0474
  -1988278.47444  -1355490.93643  24245406.0394   24245412.9694
      4126.0474       3215.1014
 98  6 11 20 24  0.0000000  0  9G 5G 6G26G10G13G17G30G24G23
   3456053.40345   2693022.31245  23217465.9304   23217472.0944
     -2756.9224      -2148.2514
  -3052520.77847  -2378586.10947  20779557.1644   20779559.1564
      2122.7344       1654.0794
  -4470957.91745  -3330967.49543  23723451.5394   23723457.6214
      3340.1414       2602.7074
   1903744.18446   1483436.72346  22000811.5864   22000814.5164
     -1768.7974      -1378.2834
  -1071242.37344   -816503.75042  24749178.7424   24749185.2704
       451.7664        352.0254
  -3331374.63346  -2595873.69646  22129954.5944   22129958.5784
      2359.1094       1838.2674
   1706558.68247   1296845.00646  21437658.7114   21437661.5004
     -1651.6094      -1286.9684
   2344604.45844                  24401190.4694
     -1756.8124
  -2050135.77544  -1403691.26343  24233634.4384   24233641.9064
      4121.5784       3211.6194
 98  6 11 20 24 15.0000000  0  9G 5G 6G26G10G13G17G30G24G23
   3497433.01445   2725266.06245  23225340.7344   23225346.6054
     -2760.3124      -2150.8934
  -3084319.35647  -2403364.21147  20773506.1414   20773508.1454
      2117.1564       1649.7324
  -4521035.54344  -3369988.87343  23713922.1804   23713928.2154
      3337.0004       2600.2604
   1930342.27046   1504162.50146  22005873.3364   22005876.4414
     -1777.5164      -1385.0774
  -1077944.13244   -821725.91143  24747902.8984   24747907.4694
       441.8444        344.2944
  -3366720.48346  -2623415.90346  22123228.4844   22123232.3874
      2353.7664       1834.1034
   1731400.81447   1316202.48946  21442386.0084   21442388.9384
     -1660.6094      -1293.9814
   2370964.36544                  24406206.1334
     -1757.7034
  -2111925.28244  -1451838.79043  24221875.1884   24221881.5864
      4117.1094       3208.1374
 98  6 11 20 24 30.0000000  0  9G 5G 6G26G10G13G17G30G24G23
   3538862.83545   2757548.96045  23233224.7274   23233231.1024
     -2763.7034      -2153.5354
  -3116035.41547  -2428078.01647  20767470.8914   20767473.0354
      2111.6414       1645.4344
  -4571067.63345  -3408974.77843  23704401.1094   23704407.2854
      3333.9064       2597.8494
   1957068.52446   1524988.14446  22010959.1094   22010962.5314
     -1785.9844      -1391.6764
  -1084497.48344   -826832.41442  24746656.0234   24746658.6604
       431.8914        336.5384
  -3401986.82546  -2650896.15646  22116517.5704   22116521.7194
      2348.3754       1829.9034
   1756376.97547   1335664.41246  21447138.7894   21447141.6724
     -1669.6094      -1300.9944
   2397335.56244                  24411223.9844
     -1758.4534
  -2173650.41744  -1499936.13043  24210130.1024   24210138.7304
      4112.9064       3204.8624
 98  6 11 20 24 45.0000000  0  9G 5G 6G26G10G13G17G30G24G23
   3580344.12445   2789871.92145  23241118.6024   23241123.9694
     -2767.1414      -2156.2134
  -3147670.32847  -2452728.58947  20761450.8134   20761452.9454
      2106.4064       1641.3564
  -4621050.76245  -3447922.57843  23694889.9064   23694896.4104
      3330.5004       2595.1954
   1983920.38346   1545911.66446  22016068.6804   22016071.7624
     -1794.2504      -1398.1174
  -1090902.36544   -831823.18342  24745437.2584   24745440.9734
       422.1254        328.9294
  -3437172.42846  -2678313.50046  22109822.0784   22109826.1914
      2343.0784       1825.7754
   1781489.39747   1355232.50346  21451917.7664   21451920.9774
     -1678.7194      -1308.0934
   2423718.02444                  24416244.3134
     -1759.1874
  -2235315.09943  -1547986.38343  24198395.1414   24198403.7814
      4109.0944       3201.8914
 98  6 11 20 25  0.0000000  0  9G 5G 6G26G10G13G17G30G24G23
   3621879.31745   2822236.91445  23249022.4224   23249028.4694
     -2771.0944      -2159.2944
  -3179227.84747  -2477318.85447  20755445.6724   20755447.7704
      2101.0004       1637.1434
  -4670981.26244  -3486829.31043  23685387.8444   23685394.1254
      3326.6884       2592.2244
   2010895.82546   1566931.47746  22021201.9694   22021205.1684
     -1802.6414      -1404.6554
  -1097161.95144   -836700.77542  24744246.0634   24744251.9694
       412.3754        321.3314
  -3472278.77946  -2705669.07746  22103141.5004   22103145.5434
      2337.5634       1821.4774
   1806739.54947   1374907.91846  21456722.5704   21456725.6174
     -1688.1414      -1315.4344
   2450111.55644     10967.73152  24421266.8834   24421272.6024
     -1760.1254      -1371.5264
  -2296923.02644  -1595992.39243  24186671.6174   24186680.4454
      4105.1414       3198.8114
 98  6 11 20 25 15.0000000  0  9G 5G 6G26G10G13G17G30G24G23
   3663475.46945   2854649.40545  23256937.8754   23256944.5204
     -2775.0474      -2162.3744
  -3210700.39647  -2501842.90947  20749456.7974   20749459.0824
      2095.3134       1632.7114
  -4720851.37944  -3525689.04443  23675897.9614   23675904.7814
      3322.5944       2589.0344
   2037997.60946   1588049.74846  22026359.4924   22026362.5864
     -1810.9374      -1411.1204
  -1103274.60744   -841463.86442  24743082.8754   24743085.6884
       402.6254        313.7344
  -3507301.64546  -2732959.60946  22096476.6644   22096480.6024
      2332.2194       1817.3134
   1832132.95247   1394694.96046  21461554.7344   21461557.6524
     -1697.6094      -1322.8124
   2476519.93744     31545.64741  24426292.5944   24426297.7624
     -1760.9534      -1372.1714
  -2358470.88844  -1643951.62242  24174959.8054   24174966.7464
      4101.3134       3195.8284
 98  6 11 20 25 30.0000000  0  9G 5G 6G26G10G13G17G30G24G23
   3705130.41445   2887107.68945  23264864.7734   23264870.6334
     -2778.8594      -2165.3454
  -3242086.47247  -2526299.58447  20743484.0234   20743486.1454
      2089.5004       1628.1824
  -4770657.67444  -3564498.99443  23666419.2894   23666426.1214
      3318.2194       2585.6254
   2065225.17146   1609266.01646  22031540.8364   22031544.0824
     -1819.3594      -1417.6834
  -1109239.84144   -846112.08543  24741947.2814   24741951.6644
       392.7504        306.0394
  -3542244.96146  -2760188.14346  22089827.3754   22089831.3714
      2326.9694       1813.2224
   1857667.24947   1414591.78946  21466413.9614   21466417.0314
     -1706.9534      -1330.0934
   2502939.85643     52132.59041  24431319.6094   24431327.6524
     -1761.6564      -1372.7194
  -2419962.63644  -1691867.17642  24163257.4384   24163263.9654
      4097.6414       3192.9674
 98  6 11 20 25 45.0000000  0  9G 5G 6G26G10G13G17G30G24G23
   3746840.72445   2919609.14145  23272801.7034   23272807.3984
     -2782.5784      -2168.2434
  -3273382.28947  -2550685.92547  20737528.6954   20737530.7584
      2083.1564       1623.2394
  -4820396.03644  -3603256.03843  23656954.9304   23656962.9844
      3313.5634       2581.9974
   2092579.88946   1630581.37446  22036746.1024   22036749.3014
     -1827.9694      -1424.3914
  -1115055.61144   -850643.87842  24740840.6954   24740842.6884
       382.7034        298.2104
  -3577109.29646  -2787355.14246  22083192.8834   22083196.7034
      2321.5944       1809.0344
   1883342.41747   1434598.39046  21471299.4774   21471302.5824
     -1716.4224      -1337.4724
   2529370.75943     72728.09542  24436349.2734   24436354.9454
     -1762.5004      -1373.3774
  -2481399.07844  -1739739.49143  24151566.5164   24151573.8674
      4093.9064       3190.0574
 98  6 11 20 26  0.0000000  0  9G 5G 6G26G10G13G17G30G24G23
   3788607.73045   2952154.75545  23280749.7504   23280755.8444
     -2786.1874      -2171.0554
  -3304579.18747  -2574995.19347  20731592.3364   20731594.3164
      2076.5164       1618.0644
  -4870065.03344  -3641959.03543  23647502.9454   23647508.0434
      3309.1094       2578.5274
   2120061.97946   1651995.98346  22041975.9144   22041979.1484
     -1836.1414      -1430.7594
  -1120721.73744   -855059.00142  24739762.8674   24739763.8404
       372.8754        290.5524
  -3611895.57046  -2814461.31446  22076573.2114   22076577.2664
      2316.6564       1805.1874
   1909159.79147   1454715.80146  21476212.8134   21476216.0124
     -1725.7194      -1344.7164
   2555812.35843     93331.89242  24441381.5634   24441390.0744
     -1762.9534      -1373.7304
  -2542781.40144  -1787569.77543  24139886.1564   24139892.9774
      4090.4694       3187.3784
 98  6 11 20 26 15.0000000  0  9G 5G 6G26G10G13G17G30G24G23
   3830428.72445   2984742.46545  23288708.2734   23288714.3674
     -2789.9064      -2173.9534
  -3335675.33847  -2599225.95447  20725674.7814   20725676.8794
      2069.6094       1612.6834
  -4919666.93644  -3680609.75343  23638064.4844   23638071.0474
      3304.4694       2574.9114
   2147665.15546   1673504.94146  22047228.6024   22047231.5434
     -1844.2194      -1437.0544
  -1126239.15044   -859358.28742  24738712.4924   24738717.0274
       362.7664        282.6754
  -3646606.05646  -2841508.42746  22069967.6334   22069971.8164
      2311.3914       1801.0844
   1935115.12447   1474940.70646  21481151.7114   21481154.8984
     -1734.9374      -1351.8994
   2582263.11843    113942.80642  24446414.7194   24446422.5044
     -1763.8284      -1374.4124
  -2604110.53644  -1835358.57643  24128215.8594   24128223.1524
      4086.8134       3184.5294
 98  6 11 20 26 30.0000000  0  9G 5G 6G26G10G13G17G30G24G23
   3872305.16445   3017373.32445  23296677.5704   23296683.4774
     -2793.5474      -2176.7904
  -3366666.23547  -2623374.69947  20719777.3524   20719779.6254
      2062.5314       1607.1674
  -4969198.22744  -3719205.43344  23628638.4534   23628645.0514
      3299.7664       2571.2464
   2175388.62846   1695107.63446  22052504.2814   22052507.3874
     -1852.2034      -1443.2754
  -1131605.01144   -863539.43042  24737691.7814   24737695.3914
       352.7034        274.8344
  -3681236.55646  -2868493.21146  22063378.3444   22063382.2234
      2306.0634       1796.9324
   1961207.92447   1495272.73746  21486117.0314   21486120.0784
     -1743.9844      -1358.9494
   2608728.22444    134564.95841  24451451.0864   24451457.4264
     -1764.7974      -1375.1664
  -2665385.17244  -1883104.91642  24116555.3204   24116562.2624
      4083.1564       3181.6804
 98  6 11 20 26 45.0000000  0  9G 5G 6G26G10G13G17G30G24G23
   3914234.83445   3050045.69245  23304656.3364   23304662.2894
     -2797.0784      -2179.5414
  -3397551.61647  -2647441.22046  20713900.0164   20713902.4064
      2055.5314       1601.7134
  -5018659.83144  -3757746.83543  23619226.3284   23619233.5744
      3295.0634       2567.5814
   2203230.42046   1716802.53046  22057802.3134   22057805.2074
     -1860.0784      -1449.4124
  -1136820.72444   -867603.65642  24736698.9924   24736703.7384
       342.7344        267.0664
  -3715788.00546  -2895416.41146  22056802.8444   22056806.5234
      2300.7974       1792.8294
   1987434.12047   1515708.70346  21491107.9614   21491111.1374
     -1752.9064      -1365.9014
   2635207.19444    155197.83642  24456489.2194   24456494.6214
     -1765.8124      -1375.9584
  -2726604.99644  -1930808.54843  24104904.9064   24104911.4104
      4079.4064       3178.7584
 98  6 11 20 27  0.0000000  0  9G 5G 6G26G10G13G17G30G24G23
   3956215.98945   3082758.19545  23312645.2344   23312651.7274
     -2800.4224      -2182.1474
  -3428332.27747  -2671426.14247  20708042.6724   20708044.8634
      2048.4844       1596.2224
  -5068051.72645  -3796233.90243  23609827.1484   23609832.6454
      3290.5474       2564.0634
   2231191.81746   1738590.62546  22063123.2034   22063126.3674
     -1868.1724      -1455.7184
  -1141887.17544   -871551.53042  24735735.1254   24735739.0044
       332.7194        259.2614
  -3750262.08646  -2922279.31246  22050242.7974   22050247.0274
      2295.7504       1788.8964
   2013792.65647   1536247.79046  21496123.7894   21496126.9414
     -1761.5314      -1372.6224
   2661702.67244    175843.64641  24461532.1724   24461539.2774
     -1766.9224      -1376.8224
  -2787767.46744  -1978467.47042  24093266.1724   24093273.0784
      4075.5004       3175.7144
 98  6 11 20 27 15.0000000  0  9G 5G 6G26G10G13G17G30G24G23
   3998246.50045   3115509.11644  23320643.4304   23320649.6294
     -2803.6254      -2184.6434
  -3459005.80247  -2695327.58646  20702205.8054   20702207.9964
      2041.3134       1590.6334
  -5117378.08845  -3834669.91644  23600440.9064   23600447.5744
      3286.3134       2560.7634
   2259274.56446   1760473.27146  22068466.9774   22068469.9414
     -1876.2504      -1462.0134
  -1146801.87345   -875381.13842  24734800.3204   24734803.1804
       322.5004        251.2994
  -3784661.77346  -2949084.24546  22043696.6024   22043700.7854
      2290.8914       1785.1104
   2040278.60747   1556886.16946  21501163.8204   21501166.8554
     -1769.9224      -1379.1604
   2688214.27844                  24466578.1094
     -1767.9064
  -2848870.66644  -2026080.22443  24081638.4924   24081644.7274
      4071.5474       3172.6344
 98  6 11 20 27 30.0000000  0  9G 5G 6G26G10G13G17G30G24G23
   4040324.94445   3148297.41844  23328650.6884   23328656.5354
     -2806.7194      -2187.0544
  -3489571.52147  -2719145.02147  20696389.2114   20696391.4384
      2034.2664       1585.1424
  -5166640.64845  -3873056.21244  23591066.1644   23591073.7734
      3282.1414       2557.5124
   2287479.08446   1782450.81546  22073834.3834   22073837.4184
     -1884.2344      -1468.2354
  -1151561.41645   -879089.85242  24733893.8444   24733896.3874
       312.2194        243.2874
  -3818990.15246  -2975833.61146  22037164.1954   22037168.4844
      2286.3284       1781.5544
   2066890.80147   1577622.91346  21506227.9844   21506231.3714
     -1778.2344      -1385.6374
   2714741.20744                  24471624.0554
     -1768.9374
  -2909912.57344  -2073645.21143  24070022.9384   24070029.6174
      4067.4844       3169.4684
 98  6 11 20 27 45.0000000  0  9G 5G 6G26G10G13G17G30G24G23
   4082450.97545   3181122.80544  23336667.3834   23336674.1454
     -2810.1564      -2189.7324
  -3520033.58547  -2742881.68847  20690592.5314   20690594.6994
      2027.3134       1579.7244
  -5215842.42745  -3911395.13844  23581703.2814   23581709.5394
      3278.1254       2554.3834
   2315801.33346   1804520.09546  22079224.1334   22079226.9924
     -1892.0004      -1474.2864
  -1156168.18644   -882679.53942  24733017.7734   24733020.3754
       302.0474        235.3614
  -3853249.73046  -3002529.36746  22030644.8984   22030648.7424
      2281.6094       1777.8774
   2093626.23347   1598455.68146  21511315.6724   21511318.8484
     -1786.5164      -1392.0904
   2741285.00744                  24476676.1334
     -1770.2664
  -2970892.78944  -2121162.16543  24058418.5394   24058425.4344
      4063.2194       3166.1444
 98  6 11 20 28  0.0000000  0  9G 5G 6G26G10G13G17G30G24G23
   4124631.81345   3213990.87844  23344694.0004   23344699.7774
     -2813.8914      -2192.6424
  -3550390.19647  -2766536.18447  20684815.7814   20684817.8444
      2020.3444       1574.2944
  -5264985.54645  -3949688.37943  23572351.7974   23572358.4414
      3274.3754       2551.4614
   2344238.66146   1826679.04346  22084635.4614   22084638.4494
     -1899.5474      -1480.1664
  -1160623.88745   -886151.50742  24732169.5474   24732170.1094
       292.1724        227.6664
  -3887437.10046  -3029168.85546  22024139.2974   22024142.9654
      2276.7974       1774.1274
   2120487.09247   1619386.19146  21516427.0944   21516430.1414
     -1794.8284      -1398.5674
   2767850.57644                  24481731.1484
     -1771.6874
  -3031808.84244  -2168629.09642  24046826.4774   24046834.1454
      4059.0164       3162.8694
 98  6 11 20 28 15.0000000  0  9G 5G 6G26G10G13G17G30G24G23
   4166865.96645   3246900.48044  23352730.9534   23352737.5984
     -2817.4374      -2195.4064
  -3580646.66747  -2790112.64947  20679058.2274   20679060.1134
      2013.7814       1569.1804
  -5314073.47845  -3987938.62443  23563010.1334   23563016.8594
      3270.5784       2548.5024
   2372785.30646   1848923.16946  22090067.7194   22090070.6254
     -1906.8124      -1485.8284
  -1164933.71245   -889509.82243  24731349.1484   24731352.5354
       282.3914        220.0454
  -3921554.69946  -3055753.97846  22017646.9454   22017650.4614
      2272.0164       1770.4024
   2147468.71747   1640410.80046  21521561.3984   21521564.9264
     -1802.8284      -1404.8014
   2794434.59244                  24486789.5474
     -1772.9844
  -3092662.19644  -2216047.13143  24035246.7584   24035253.6764
      4054.6414       3159.4604
 98  6 11 20 28 30.0000000  0  9G 5G 6G26G10G13G17G30G24G23
   4209154.27545   3279852.32644  23360778.8524   23360785.2384
     -2821.2344      -2198.3644
  -3610807.25647  -2813614.39547  20673318.7974   20673320.9414
      2007.4384       1564.2374
  -5363105.20945  -4026145.03444  23553680.3054   23553686.2934
      3266.8284       2545.5804
   2401441.01746   1871252.29046  22095520.6884   22095523.7464
     -1914.1724      -1491.5624
  -1169099.16045   -892755.61443  24730557.1414   24730560.5984
       272.8134        212.5814
  -3955599.16246  -3082282.11546  22011168.5004   22011172.2624
      2267.1094       1766.5794
   2174569.82047   1661528.50446  21526718.5944   21526721.9454
     -1810.8124      -1411.0234
   2821037.87645      5527.67453  24491852.5314   24491858.0164
     -1774.2504      -1382.5324
  -3153450.16544  -2263414.27643  24023678.6484   24023686.1764
      4050.2814       3156.0634
 98  6 11 20 28 45.0000000  0  9G 5G 6G26G10G13G17G30G24G23
   4251501.69045   3312850.20144  23368836.3444   23368843.1524
     -2825.0474      -2201.3354
  -3640870.98547  -2837040.67047  20667597.7894   20667599.9574
      2001.0784       1559.2824
  -5412079.41345  -4064306.61244  23544360.7274   23544367.1254
      3263.0784       2542.6584
   2430209.22546   1893669.06146  22100994.8594   22100998.0944
     -1921.5784      -1497.3344
  -1173120.62345   -895889.20142  24729791.3914   24729796.0314
       263.4384        205.2764
  -3989570.87946  -3108753.55946  22004703.8914   22004707.9694
      2262.4844       1762.9754
   2201791.51947   1682740.18746  21531898.8444   21531901.9964
     -1818.7344      -1417.1964
   2847658.83845     26271.23643  24496918.9614   24496925.2774
     -1775.1874      -1383.2634
  -3214172.01644  -2310729.86243  24012123.9384   24012132.2504
      4046.0004       3152.7274
 98  6 11 20 29  0.0000000  0  9G 5G 6G26G10G13G17G30G24G23
   4293907.91945   3345893.90144  23376906.4694   23376913.0784
     -2829.0004      -2204.4164
  -3670836.86247  -2860390.69447  20661895.5084   20661897.6294
      1994.4384       1554.1074
  -5460996.11445  -4102423.43643  23535051.9534   23535058.3524
      3259.2194       2539.6514
   2459089.85346   1916173.44246  22106490.7274   22106493.1764
     -1929.0784      -1503.1784
  -1176999.58345   -898911.77742  24729053.4454   24729056.7154
       253.8914        197.8374
  -4023471.20546  -3135169.37946  21998252.6954   21998256.7274
      2257.6724       1759.2254
   2229135.59247   1704047.22246  21537102.1564   21537105.3914
     -1827.0624      -1423.6854
   2874294.99945     47026.68543  24501986.8284   24501991.5514
     -1776.1724      -1384.0304
  -3274827.96744  -2357994.13143  24000581.7344   24000590.3754
      4041.5474       3149.2574
 98  6 11 20 29 15.0000000  0  9G 5G 6G26G10G13G17G30G24G23
   4336371.31345   3378982.16244  23384987.4844   23384993.9884
     -2832.8914      -2207.4474
  -3700703.06147  -2883663.04747  20656212.1094   20656214.2194
      1987.6724       1548.8354
  -5509856.47045  -4140496.32344  23525754.2584   23525760.5864
      3255.3134       2536.6074
   2488081.41846   1938764.26746  22112007.6414   22112010.8164
     -1936.5164      -1508.9734
  -1180737.99544   -901824.81542  24728341.9844   24728346.5084
       244.4534        190.4834
  -4057299.92446  -3161529.39946  21991815.2194   21991819.3914
      2252.7034       1755.3534
   2256602.27347   1725449.79446  21542329.2034   21542332.6374
     -1835.3124      -1430.1144
   2900942.55645     67790.90743  24507058.2584   24507064.0944
     -1776.9374      -1384.6274
  -3335418.26844  -2405207.21643  23989051.4614   23989059.0704
      4037.0474       3145.7514
 98  6 11 20 29 30.0000000  0  8G 5G 6G26G10G13G17G30G23
   4378893.09845   3412115.90444  23393078.4384   23393085.0704
     -2836.6724      -2210.3944
  -3730469.96747  -2906858.03847  20650547.7424   20650549.9224
      1981.2814       1543.8564
  -5558654.73345  -4178520.84944  23516468.0704   23516473.5314
      3251.0784       2533.3084
   2517182.28746   1961440.26146  22117545.4144   22117548.5784
     -1943.6724      -1514.5504
  -1184335.70445   -904628.21942  24727657.3524   24727660.1524
       235.1564        183.2394
  -4091052.93046  -3187830.43246  21985392.2894   21985396.7424
      2247.6724       1751.4334
   2284194.55247   1746950.24246  21547579.7034   21547582.7624
     -1843.7344      -1436.6764
  -3395940.79944  -2452367.51443  23977533.9534   23977541.1054
      4032.6254       3142.3054
 98  6 11 20 29 45.0000000  0  8G 5G 6G26G10G13G17G30G23
   4421472.42545   3445294.48344  23401181.5474   23401187.6294
     -2840.4694      -2213.3524
  -3760139.91147  -2929977.46247  20644901.7814   20644904.2424
      1974.7974       1538.8034
  -5607387.80245  -4216494.57544  23507194.2734   23507200.5664
      3246.7814       2529.9594
   2546391.56346   1984200.72746  22123103.6644   22123106.7114
     -1950.8124      -1520.1144
  -1187791.94745   -907321.34942  24726999.8524   24727001.9614
       225.7974        175.9464
  -4124727.75446  -3214070.52946  21978983.9454   21978987.9774
      2242.3284       1747.2694
   2311915.72947   1768551.12846  21552854.9774   21552858.2704
     -1852.3284      -1443.3734
  -3456395.69544  -2499475.10143  23966029.4844   23966036.9064
      4028.1414       3138.8114
 98  6 11 20 30  0.0000000  0  8G 5G 6G26G10G13G17G30G23
   4464105.64545   3478515.06544  23409294.2664   23409300.0784
     -2843.8754      -2216.0064
  -3789714.31547  -2953022.45147  20639274.1174   20639276.2154
      1968.4384       1533.8474
  -5656059.51645  -4254420.48444  23497932.4614   23497938.9304
      3242.7664       2526.8304
   2575707.29846   2007044.15146  22128682.3524   22128685.4574
     -1957.9844      -1525.7024
  -1191108.97545   -909906.08842  24726368.2274   24726370.5124
       216.4844        168.6894
  -4158322.77946  -3240248.44646  21972591.3984   21972595.4064
      2237.0474       1743.1534
   2339763.21347   1790250.43746  21558154.0864   21558157.5314
     -1860.6724      -1449.8744
  -3516786.13744  -2546532.48843  23954537.5084   23954544.9414
      4023.9534       3135.5484
 98  6 11 20 30 15.0000000  0  8G 5G 6G26G10G13G17G30G23
   4506790.94645   3511776.21144  23417417.0084   23417423.0434
     -2847.4224      -2218.7704
  -3819188.61647  -2975989.43247  20633665.0474   20633667.1334
      1961.5164       1528.4544
  -5704665.87345  -4292295.46444  23488682.5004   23488687.6684
      3238.0634       2523.1664
   2605136.81146   2029976.22946  22134282.6024   22134285.6954
     -1965.9374      -1531.8994
  -1194282.18044   -912378.70042  24725764.7424   24725769.6294
       206.6414        161.0194
  -4191835.27046  -3266362.05846  21966213.9534   21966217.5044
      2231.3284       1738.6974
   2367739.30647   1812049.95446  21563477.9144   21563481.3244
     -1869.3754      -1456.6564
  -3577110.77144  -2593538.57643  23943057.8054   23943066.1174
      4019.3754       3131.9814
 98  6 11 20 30 30.0000000  0  8G 5G 6G26G10G13G17G30G23
   4549526.18645   3545076.27244  23425549.7814   23425555.8874
     -2850.5784      -2221.2304
  -3848561.99147  -2998877.76947  20628075.6174   20628077.7274
      1954.9694       1523.3524
  -5753203.03545  -4330116.51244  23479446.7034   23479453.2894
      3233.6254       2519.7084
   2634683.46646   2052999.59646  22139905.2274   22139908.5904
     -1973.6414      -1537.9024
  -1197307.75244   -914736.25942  24725188.3594   24725190.7384
       196.8594        153.3974
  -4225264.32246  -3292410.65646  21959852.5554   21959856.6094
      2225.9064       1734.4724
   2395843.67047   1833949.43246  21568825.9144   21568829.0664
     -1877.8914      -1463.2914
  -3637368.81644  -2640492.80543  23931591.0474   23931597.3984
      4015.1094       3128.6574
 98  6 11 20 30 45.0000000  0  8G 5G 6G26G10G13G17G30G23
   4592309.74745   3578414.03744  23433691.2344   23433697.2584
     -2853.8914      -2223.8114
  -3877835.55347  -3021688.33547  20622505.1644   20622507.4144
      1948.1564       1518.0444
  -5801672.90245  -4367885.13643  23470222.6174   23470228.7704
      3228.9694       2516.0804
   2664348.46846   2076115.17246  22145550.2504   22145553.1214
     -1981.7504      -1544.2214
  -1200185.33245   -916978.53542  24724642.0704   24724645.3754
       186.7504        145.5194
  -4258611.80546  -3318395.69146  21953506.9924   21953510.9414
      2220.4224       1730.1994
   2424077.72747   1855949.95946  21574198.6254   21574201.7664
     -1886.6564      -1470.1224
  -3697563.20944  -2687397.40343  23920136.4534   23920143.6054
      4010.8134       3125.3084
 98  6 11 20 31  0.0000000  0  8G 5G 6G26G10G13G17G30G23
   4635142.31745   3611789.93644  23441841.6564   23441847.9844
     -2857.0474      -2226.2704
  -3907005.93447  -3044418.49247  20616954.2664   20616956.2344
      1941.2814       1512.6874
  -5850069.40045  -4405596.63844  23461013.4614   23461018.3134
      3223.8914       2512.1234
   2694136.59946   2099326.69946  22151218.7034   22151221.7384
     -1989.9534      -1550.6134
  -1202908.76945   -919100.67242  24724123.5004   24724125.7274
       176.3754        137.4354
  -4291873.68946  -3344314.02346  21947177.3984   21947181.9224
      2214.5004       1725.5844
   2452445.03147   1878054.31946  21579596.8524   21579599.8874
     -1895.6414      -1477.1234
  -3757690.33844  -2734249.57443  23908695.3444   23908702.8244
      4006.1884       3121.7054
 98  6 11 20 31 15.0000000  0  8G 5G 6G26G10G13G17G30G23
   4678019.75445   3645200.78644  23450001.3054   23450007.4104
     -2859.9224      -2228.5114
  -3936077.13547  -3067071.37247  20611422.0554   20611424.2114
      1934.9384       1507.7444
  -5898392.16945  -4443250.65743  23451817.5164   23451823.1054
      3219.1884       2508.4584
   2724044.14346   2122631.26846  22156909.8054   22156913.2974
     -1997.7194      -1556.6644
  -1205477.35744   -921102.19443  24723634.0944   24723636.8834
       166.1414        129.4604
  -4325049.06146  -3370164.94246  21940864.1804   21940868.4224
      2208.9224       1721.2384
   2480944.21647   1900261.43846  21585020.2114   21585023.3874
     -1904.1414      -1483.7464
  -3817749.87144  -2781049.13643  23897265.4064   23897271.9454
      4001.7814       3118.2714
 98  6 11 20 31 30.0000000  0  8G 5G 6G26G10G13G17G30G23
   4720941.27945   3678646.02844  23458169.7274   23458176.8914
     -2862.9224      -2230.8484
  -3965053.40947  -3089650.28147  20605908.1024   20605910.1294
      1928.5474       1502.7644
  -5946644.26145  -4480849.55344  23442635.8674   23442642.5354
      3214.4844       2504.7934
   2754069.33946   2146027.52646  22162623.4534   22162626.9694
     -2005.6254      -1562.8254
  -1207891.81545   -922983.54742  24723174.8834   24723178.1524
       155.7664        121.3764
  -4358140.64346  -3395950.57346  21934567.0234   21934571.2074
      2203.3594       1716.9034
   2509569.45947   1922566.78846  21590467.4844   21590470.7194
     -1912.5314      -1490.2844
  -3877743.37344  -2827797.16743  23885848.4694   23885855.7624
      3997.4064       3114.8624
 98  6 11 20 31 45.0000000  0  8G 5G 6G26G10G13G17G30G23
   4763909.05945   3712127.31545  23466345.5234   23466352.0274
     -2866.1414      -2233.3564
  -3993931.31247  -3112152.53447  20600412.9384   20600415.0124
      1921.7504       1497.4684
  -5994826.69545  -4518394.23744  23433466.7344   23433472.7584
      3209.8914       2501.2134
   2784214.16846   2169516.98946  22168360.0004   22168363.0354
     -2013.7344      -1569.1444
  -1210148.46145   -924741.93242  24722745.2504   24722747.7704
       145.0784        113.0484
  -4391150.05646  -3421672.16946  21928285.7974   21928289.7114
      2197.8754       1712.6304
   2538320.04947   1944969.81146  21595938.4924   21595941.8444
     -1920.9064      -1496.8104
  -3937671.86145  -2874494.58143  23874445.2344   23874453.2424
      3993.0004       3111.4294
 98  6 11 20 32  0.0000000  0  8G 5G 6G26G10G13G17G30G23
   4806925.48745   3745646.45844  23474531.7194   23474538.6374
     -2869.2504      -2235.7794
  -4022705.30047  -3134573.81547  20594937.2114   20594939.1914
      1914.8444       1492.0864
  -6042942.19245  -4555886.75944  23424310.2194   23424315.4574
      3205.5634       2497.8414
   2814479.78946   2193100.57946  22174119.3594   22174122.8874
     -2021.5624      -1575.2444
  -1212246.65544   -926376.92842  24722345.6094   24722348.1994
       134.7814        105.0244
  -4424077.67846  -3447330.04246  21922019.7504   21922023.6054
      2192.5634       1708.4904
   2567193.94747   1967468.91746  21601433.0944   21601436.6454
     -1928.8444      -1502.9954
  -3997534.73245  -2921140.90643  23863053.8594   23863060.1054
      3988.7504       3108.1174
 98  6 11 20 32 15.0000000  0  8G 5G 6G26G10G13G17G30G23
   4849988.92545   3779202.27344  23482726.3054   23482732.5634
     -2872.6254      -2238.4094
  -4051376.54947  -3156915.04447  20589481.3524   20589483.2154
      1907.9224       1486.6924
  -6090990.76345  -4593327.08844  23415166.6644   23415172.3594
      3200.7344       2494.0794
   2844861.72246   2216774.80446  22179900.9614   22179904.1844
     -2029.3914      -1581.3434
  -1214192.33244   -927893.02942  24721976.3284   24721979.9144
       124.5634         97.0624
  -4456926.81646  -3472926.75946  21915768.7114   21915772.8834
      2187.2814       1704.3754
   2596186.39847   1990060.40346  21606949.9774   21606953.3284
     -1936.8754      -1509.2534
  -4057334.02745  -2967737.62843  23851674.2424   23851679.9144
      3984.3754       3104.7084
 98  6 11 20 32 30.0000000  0  8G 5G 6G26G10G13G17G30G23
   4893104.28445   3812798.54044  23490930.9144   23490936.6804
     -2876.0944      -2241.1124
  -4079944.15947  -3179175.51547  20584045.1024   20584046.9534
      1901.1564       1481.4204
  -6138965.13045  -4630709.61544  23406037.5004   23406042.8094
      3195.8284       2490.2564
   2875359.12246   2240539.00346  22185704.3364   22185707.5704
     -2036.8914      -1587.1874
  -1215984.60345   -929289.55843  24721634.7194   24721638.3874
       114.3914         89.1364
  -4489696.63246  -3498461.66546  21909532.6954   21909536.5744
      2182.0164       1700.2724
   2625299.66847   2012746.03446  21612490.2194   21612493.4654
     -1944.9224      -1515.5244
  -4117066.10145  -3014281.98443  23840307.3284   23840314.8444
      3979.8754       3101.2014
 98  6 11 20 32 45.0000000  0  8G 5G 6G26G10G13G17G30G23
   4936270.37745   3846434.33544  23499145.0944   23499151.9884
     -2879.4224      -2243.7054
  -4108412.48847  -3201358.62047  20578627.6024   20578629.4774
      1894.5944       1476.3074
  -6186866.41845  -4668035.21044  23396922.1484   23396928.7934
      3190.9844       2486.4814
   2905967.44846   2264389.63846  22191528.8914   22191532.4654
     -2044.3124      -1592.9714
  -1217623.59145   -930566.70242  24721322.2814   24721326.8404
       104.1564         81.1614
  -4522387.90246  -3523935.36246  21903312.0394   21903316.0594
      2176.7664       1696.1814
   2654535.13847   2035526.88446  21618053.7114   21618056.6294
     -1953.1564      -1521.9404
  -4176729.36245  -3060772.73044  23828954.3754   23828960.3984
      3975.2034       3097.5614
 98  6 11 20 33  0.0000000  0  8G 5G 6G26G10G13G17G30G23
   4979488.29545   3880110.51444  23507370.2734   23507376.2274
     -2882.9064      -2246.4204
  -4136780.16547  -3223463.30047  20573229.5474   20573231.3984
      1887.7814       1470.9984
  -6234692.78645  -4705302.40044  23387820.8834   23387825.5234
      3185.9064       2482.5244
   2936689.53846   2288328.92746  22197375.0474   22197378.4924
     -2051.8914      -1598.8764
  -1219107.79645   -931723.16242  24721040.3524   24721040.3984
        93.8134         73.1014
  -4554998.69546  -3549346.34946  21897106.0474   21897110.0784
      2171.4224       1692.0174
   2683894.07547   2058403.94446  21623640.4064   21623643.2074
     -1961.2814      -1528.2714
  -4236319.47345  -3107206.48843  23817613.9454   23817620.1214
      3970.1564       3093.6284
 98  6 11 20 33 15.0000000  0  8G 5G 6G26G10G13G17G30G23
   5022757.66245   3913826.78144  23515604.0314   23515610.9264
     -2886.1724      -2248.9654
  -4165044.00047  -3245487.06047  20567851.2194   20567853.1764
      1880.8284       1465.5804
  -6282444.89445  -4742511.74543  23378733.8364   23378739.9774
      3181.2344       2478.8844
   2967522.71146   2312354.76346  22203242.5474   22203245.6524
     -2059.0474      -1604.4524
  -1220438.27045   -932759.91942  24720787.5864   24720790.2464
        83.7344         65.2484
  -4587531.56346  -3574696.62846  21890915.3914   21890919.7854
      2166.5314       1688.2064
   2713373.27547   2081374.72146  21629250.1804   21629253.2974
     -1969.1414      -1534.3954
  -4295834.29144  -3153581.51443  23806288.4304   23806294.3954
      3965.2974       3089.8424
 98  6 11 20 33 29.9990000  0  8G 5G 6G26G10G13G17G30G23
   5066074.90545   3947580.37044  23523846.2534   23523852.2884
     -2889.6414      -2251.6684
  -4193198.04647  -3267425.27347  20562493.6364   20562495.7334
      1873.4844       1459.8584
  -6330122.98345  -4779663.38744  23369660.9334   23369665.9484
      3176.4534       2475.1584
   2998463.52946   2336464.48446  22209130.1904   22209133.5194
     -2066.5164      -1610.2724
  -1221616.59045   -933678.11242  24720562.9874   24720566.7264
        73.5634         57.3214
  -4619988.47146  -3599987.70946  21884739.0734   21884742.8584
      2161.5164       1684.2984
   2742971.43147   2104438.17746  21634882.7304   21634886.0224
     -1977.3444      -1540.7874
  -4355270.80445  -3199895.59443  23794977.9644   23794984.2694
      3960.2814       3085.9334
 98  6 11 20 33 44.9990000  0  8G 5G 6G26G10G13G17G30G23
   5109444.41045   3981374.66144  23532099.9564   23532105.7694
     -2892.9534      -2254.2494
  -4221244.10547  -3289279.33947  20557156.6674   20557158.5654
      1866.0004       1454.0264
  -6377733.01545  -4816762.03344  23360601.0114   23360607.6444
      3171.5314       2471.3234
   3029518.03646   2360662.78746  22215039.6284   22215043.0974
     -2074.0624      -1616.1534
  -1222643.48445   -934478.23342  24720368.1284   24720371.7844
        63.3284         49.3474
  -4652373.14646  -3625222.50146  21878576.6984   21878580.6014
      2156.4844       1680.3774
   2772694.62547   2127599.07746  21640538.8234   21640542.0584
     -1985.7664      -1547.3504
  -4414637.10744  -3246154.95443  23783681.0654   23783687.5584
      3955.2034       3081.9764
 98  6 11 20 33 59.9990000  0  8G 5G 6G26G10G13G17G30G23
   5152859.61245   4015204.56644  23540361.2614   23540367.9994
     -2895.7664      -2256.4414
  -4249182.58747  -3311049.57747  20551840.2064   20551842.0694
      1859.1414       1448.6814
  -6425271.30945  -4853804.74844  23351554.6594   23351561.0344
      3166.7974       2467.6344
   3060682.28946   2384946.61046  22220970.1904   22220973.4954
     -2081.2504      -1621.7534
  -1223520.09045   -935161.28742  24720200.8314   24720202.3784
        53.5004         41.6884
  -4684685.38046  -3650400.85546  21872427.7304   21872431.9374
      2151.6884       1676.6404
   2802541.00347   2150855.96046  21646218.3314   21646221.3784
     -1993.8754      -1553.6694
  -4473930.35544  -3292357.32043  23772397.6514   23772405.0264
      3950.4844       3078.3004
 98  6 11 20 34 14.9990000  0  8G 5G 6G26G10G13G17G30G23
   5196319.56645   4049069.35544  23548631.4014   23548637.1324
     -2898.7344      -2258.7544
  -4277016.19047  -3332738.09847  20546543.5034   20546545.3084
      1852.1414       1443.2264
  -6472733.81845  -4890788.41744  23342523.1054   23342529.4804
      3161.6414       2463.6164
   3091958.86646   2409317.95646  22226921.9484   22226925.2884
     -2088.8914      -1627.7074
  -1224246.54745   -935727.37043  24720062.8944   24720066.7264
        43.4384         33.8474
  -4716921.46446  -3675519.86746  21866293.5734   21866297.6404
      2146.5474       1672.6344
   2832513.55347   2174211.15646  21651922.0504   21651925.3904
     -2002.3754      -1560.2924
  -4533148.56444  -3338501.28643  23761128.5114   23761135.8514
      3945.4064       3074.3434
 98  6 11 20 34 29.9990000  0  8G 5G 6G26G10G13G17G30G23
   5239823.87145   4082968.68544  23556910.0034   23556917.9524
     -2901.7664      -2261.1164
  -4304745.88047  -3354345.64647  20541266.7454   20541268.7724
      1845.1414       1437.7724
  -6520119.76945  -4927712.47444  23333505.7304   23333510.9564
      3156.5474       2459.6474
   3123352.19546   2433780.28146  22232895.9404   22232899.3274
     -2096.8754      -1633.9294
  -1224820.80945   -936174.82342  24719953.3704   24719959.2184
        33.0944         25.7874
  -4749080.09746  -3700578.53146  21860173.8784   21860177.8514
      2141.2974       1668.5434
   2862613.89947   2197665.93446  21657650.0654   21657653.4764
     -2010.9844      -1567.0014
  -4592289.95944  -3384585.38643  23749874.7614   23749879.5894
      3940.1414       3070.2394
 98  6 11 20 34 44.9990000  0  8G 5G 6G26G10G13G17G30G23
   5283369.27945   4116900.04544  23565196.4254   23565202.8124
     -2904.3284      -2263.1134
  -4332371.41347  -3375872.03047  20536009.9094   20536011.6204
      1838.1884       1432.3544
  -6567433.65945  -4964580.34744  23324501.8944   23324507.0154
      3151.9534       2456.0674
   3154863.77346   2458334.74646  22238892.4804   22238895.9374
     -2104.7814      -1640.0894
  -1225241.15145   -936502.34442  24719873.6834   24719878.3234
        22.9064         17.8494
  -4781161.98246  -3725577.38246  21854069.1904   21854073.0584
      2136.2344       1664.5984
   2892842.92047   2221220.98746  21663402.3864   21663405.3864
     -2019.5944      -1573.7094
  -4651355.01544  -3430609.99143  23738635.1204   23738641.7884
      3935.1414       3066.3434
 98  6 11 20 34 59.9990000  0  8G 5G 6G26G10G13G17G30G23
   5326953.57845   4150861.71043  23573491.2764   23573497.3944
     -2906.8914      -2265.1104
  -4359890.39647  -3397315.39347  20530773.0114   20530774.8624
      1830.9694       1426.7294
  -6614679.34945  -5001395.05744  23315511.5814   23315517.7104
      3147.5474       2452.6344
   3186495.62046   2482982.92546  22244911.6284   22244915.0034
     -2112.7504      -1646.2994
  -1225509.27645   -936711.26843  24719822.6984   24719827.9484
        12.9534         10.0934
  -4813169.05246  -3750517.94046  21847978.1514   21847981.8784
      2131.4534       1660.8734
   2923200.49747   2244876.21246  21669179.0654   21669182.1834
     -2028.0004      -1580.2604
  -4710345.26345  -3476576.30143  23727409.1754   23727415.8314
      3930.2814       3062.5574
 98  6 11 20 35 14.9990000  0  8G 5G 6G26G10G13G17G30G23
   5370579.63045   4184855.92943  23581792.5584   23581800.1674
     -2909.8444      -2267.4114
  -4387296.24347  -3418670.59647  20525558.1124   20525559.8354
      1823.2034       1420.6784
  -6661855.71945  -5038155.78044  23306533.8784   23306539.3624
      3142.6414       2448.8114
   3218248.43146   2507725.36146  22250954.0584   22250957.5264
     -2120.8914      -1652.6424
  -1225626.08045   -936802.27942  24719800.6904   24719801.4644
         2.6564          2.0704
  -4845103.16246  -3775401.64546  21841901.1674   21841905.0344
      2126.4694       1656.9894
   2953685.73647   2268630.89646  21674980.4564   21674984.1364
     -2036.6724      -1587.0174
  -4769260.78144  -3522484.35243  23716197.3704   23716204.4404
      3925.1724       3058.5754
 98  6 11 20 35 29.9990000  0  8G 5G 6G26G10G13G17G30G23
   5414245.38145   4218881.01943  23590101.6834   23590109.4444
     -2912.2814      -2269.3104
  -4414590.46047  -3439938.81647  20520364.2224   20520366.1794
      1816.0784       1415.1264
  -6708961.43145  -5074861.41744  23297570.2844   23297575.4294
      3138.0474       2445.2314
   3250118.70046   2532559.33046  22257019.0114   22257022.5504
     -2128.5314      -1658.5964
  -1225592.66145   -936776.22043  24719806.1444   24719809.7414
        -7.1094         -5.5404
  -4876965.23446  -3800229.22046  21835838.1834   21835842.1084
      2121.7814       1653.3364
   2984298.62847   2292485.06746  21680806.0114   21680809.6444
     -2045.0624      -1593.5554
  -4828105.35645  -3568337.20643  23705000.1754   23705006.6674
      3920.7194       3055.1064
 98  6 11 20 35 44.9990000  0  8G 5G 6G26G10G13G17G30G23
   5457951.04045   4252937.25643  23598418.5034   23598425.4334
     -2915.1254      -2271.5264
  -4441778.34547  -3461124.17446  20515190.3004   20515192.2224
      1809.0004       1409.6104
  -6755994.20645  -5111510.25645  23288619.7144   23288625.3624
      3133.0004       2441.2994
   3282107.53946   2557485.68346  22263106.0814   22263109.5624
     -2136.6094      -1664.8904
  -1225409.49745   -936633.49442  24719841.5814   24719844.7924
       -17.2974        -13.4784
  -4908752.60446  -3824998.57946  21829789.0344   21829793.2884
      2116.5634       1649.2694
   3015039.04247   2316438.59946  21686655.5894   21686658.9524
     -2053.5624      -1600.1794
  -4886879.58745  -3614135.19644  23693815.7454   23693822.2374
      3915.8914       3051.3434
 98  6 11 20 35 59.9990000  0  8G 5G 6G26G10G13G17G30G23
   5501701.34145   4287028.26843  23606743.7374   23606751.1244
     -2918.2344      -2273.9494
  -4468859.71747  -3482226.54047  20510036.9484   20510039.1404
      1801.8594       1404.0464
  -6802950.36945  -5148099.38745  23279684.5264   23279690.4444
      3127.8284       2437.2694
   3314216.50946   2582505.65146  22269216.4094   22269220.0074
     -2144.5314      -1671.0634
  -1225074.34244   -936372.28542  24719905.2304   24719910.2454
       -27.3444        -21.3074
  -4940462.50946  -3849707.58546  21823754.9334   21823759.1984
      2111.4844       1645.3134
   3045905.14246   2340490.07346  21692529.1904   21692532.7884
     -2061.8444      -1606.6314
  -4945582.03245  -3659877.23644  23682644.9954   23682651.6634
      3911.1564       3047.6544
 98  6 11 20 36 14.9990000  0  8G 5G 6G26G10G13G17G30G23
   5545497.12445   4321154.73443  23615079.2534   23615087.1324
     -2921.0944      -2276.1774
  -4495835.66947  -3503246.76146  20504903.6204   20504905.6474
      1795.0164       1398.7134
  -6849829.87245  -5184628.78645  23270763.7454   23270768.0934
      3122.8754       2433.4094
   3346441.72846   2607616.19946  22275348.5344   22275351.4404
     -2152.0624      -1676.9324
  -1224591.36144   -935995.95742  24719997.0814   24720000.6084
       -36.9844        -28.8194
  -4972096.45246  -3874357.39146  21817734.9174   21817738.9954
      2106.4694       1641.4044
   3076893.16546   2364636.54646  21698426.0264   21698429.6714
     -2069.8594      -1612.8774
  -5004214.90445  -3705565.09743  23671487.4404   23671493.2534
      3906.6094       3044.1114
 98  6 11 20 36 29.9990000  0  8G 5G 6G26G10G13G17G30G23
   5589340.31545   4355318.12743  23623421.8394   23623429.4014
     -2924.5004      -2278.8314
  -4522703.38147  -3524182.63547  20499790.7614   20499792.7064
      1787.4844       1392.8454
  -6896629.83545  -5221096.21845  23261857.8474   23261863.0264
      3117.3284       2429.0874
   3378783.77946   2632817.79246  22281502.9254   22281505.6324
     -2159.9534      -1683.0804
  -1223959.73344   -935503.79342  24720117.1904   24720122.8394
       -47.1094        -36.7094
  -5003652.18946  -3898946.25146  21811730.0894   21811733.8514
      2101.1254       1637.2404
   3108005.19947   2388879.65346  21704346.6674   21704350.1474
     -2078.2194      -1619.3914
  -5062773.11945  -3751194.77944  23660344.1514   23660349.8354
      3901.3444       3040.0084
 98  6 11 20 36 44.9990000  0  8G 5G 6G26G10G13G17G30G23
   5633233.92445   4389520.84143  23631774.5344   23631781.2614
     -2927.7194      -2281.3394
  -4549459.36547  -3545031.44847  20494699.4254   20494701.1474
      1780.1564       1387.1354
  -6943346.94645  -5257499.07845  23252968.0424   23252973.4444
      3111.7974       2424.7774
   3411239.66146   2658108.07346  22287679.3474   22287683.1084
     -2167.2344      -1688.7544
  -1223175.43744   -934892.62742  24720266.6674   24720269.5154
       -57.2034        -44.5744
  -5035129.47546  -3923473.99046  21805740.2764   21805743.8974
      2096.0784       1633.3084
   3139241.67647   2413219.73746  21710290.6984   21710293.8514
     -2086.4534      -1625.8084
  -5121254.08945  -3796764.27244  23649215.5504   23649222.0774
      3896.3444       3036.1124
 98  6 11 20 36 59.9990000  0  8G 5G 6G26G10G13G17G30G23
   5677172.69245   4423758.69043  23640136.0814   23640143.0694
     -2930.7974      -2283.7384
  -4576106.69947  -3565795.60446  20489628.7224   20489630.5854
      1772.8594       1381.4494
  -6989981.98545  -5293837.96344  23244093.7614   23244099.4564
      3106.1564       2420.3814
   3443801.02046   2683480.55546  22293875.3944   22293878.8514
     -2174.3124      -1694.2694
  -1222242.79744   -934165.88842  24720443.5584   24720449.5224
       -67.1254        -52.3054
  -5066533.50946  -3947944.64746  21799764.5114   21799768.2614
      2091.1414       1629.4604
   3170598.79647   2437653.81946  21716257.6364   21716260.9404
     -2094.4374      -1632.0294
  -5179662.13245  -3842276.89143  23638100.7534   23638107.3394
      3891.3754       3032.2404
 98  6 11 20 37 14.9990000  0  8G 5G 6G26G10G13G17G30G23
   5721158.42345   4458033.14943  23648506.0114   23648513.2334
     -2933.9694      -2286.2094
  -4602644.83747  -3586474.66747  20484578.5034   20484580.2024
      1765.5634       1375.7634
  -7036529.23945  -5330108.50245  23235235.5814   23235241.2414
      3100.1254       2415.6824
   3476467.76346   2708935.15446  22300091.8474   22300095.3154
     -2181.2814      -1699.7004
  -1221160.67544   -933322.63042  24720649.5504   24720657.3234
       -77.1874        -60.1464
  -5097862.59946  -3972356.90146  21793802.4954   21793806.1754
      2086.0004       1625.4554
   3202073.19947   2462179.28946  21722247.1054   21722250.5734
     -2102.2034      -1638.0804
  -5237995.16145  -3887731.11143  23627000.0424   23627007.3234
      3886.3444       3028.3204
 98  6 11 20 37 29.9990000  0  8G 5G 6G26G10G13G17G30G23
   5765190.85645   4492343.98043  23656885.5034   23656892.0774
     -2936.8914      -2288.4864
  -4629075.32347  -3607069.84846  20479548.9254   20479550.7304
      1758.6094       1370.3454
  -7082986.01645  -5366308.47945  23226395.4014   23226401.0974
      3094.2344       2411.0924
   3509238.42846   2734470.72445  22306327.8084   22306331.6634
     -2188.0784      -1704.9964
  -1219928.31544   -932362.35742  24720884.6364   24720888.7264
       -87.0944        -67.8654
  -5129113.43346  -3996708.18146  21787855.5584   21787859.3904
      2080.7814       1621.3884
   3233663.33947   2486794.95446  21728258.5264   21728261.9834
     -2109.7194      -1643.9374
  -5296254.20945  -3933127.69744  23615913.4564   23615919.9134
      3881.5944       3024.6194
 98  6 11 20 37 44.9990000  0  8G 5G 6G26G10G13G17G30G23
   5809266.43745   4526688.46243  23665272.8944   23665279.2334
     -2939.8124      -2290.7634
  -4655402.32147  -3627584.39146  20474539.0734   20474540.9954
      1751.7034       1364.9634
  -7129356.96845  -5402441.63845  23217570.9874   23217576.1204
      3088.6564       2406.7454
   3542110.95746   2760085.67246  22312583.2374   22312586.9994
     -2194.8754      -1710.2924
  -1218547.62744   -931286.53842  24721147.2924   24721147.4804
       -96.9534        -75.5484
  -5160285.17446  -4020997.83146  21781923.8234   21781927.9834
      2075.4844       1617.2614
   3265365.65847   2511498.02246  21734291.1124   21734294.3474
     -2117.1724      -1649.7444
  -5354440.44845  -3978467.52644  23604841.1364   23604848.1714
      3876.6414       3020.7594
 98  6 11 20 37 59.9990000  0  8G 5G 6G26G10G13G17G30G23
   5853385.83245   4561067.08943  23673668.9724   23673675.6514
     -2942.7664      -2293.0644
  -4681623.80647  -3648016.71146  20469549.2924   20469551.3194
      1744.3754       1359.2534
  -7175644.09545  -5438509.45145  23208762.9094   23208768.6874
      3082.8754       2402.2404
   3575083.85646   2785778.82946  22318857.8004   22318861.5624
     -2201.5314      -1715.4794
  -1217017.28744   -930094.05742  24721438.2374   24721441.3664
      -107.1094        -83.4624
  -5191377.15146  -4045225.32846  21776007.5264   21776011.6404
      2070.1094       1613.0724
   3297179.24346   2536287.80046  21740345.3864   21740348.8314
     -2124.7194      -1655.6254
  -5412553.96345  -4023750.65643  23593782.7144   23593788.5974
      3871.7664       3016.9604
 98  6 11 20 38 14.9990000  0  8G 5G 6G26G10G13G17G30G23
   5897545.92845   4595477.38643  23682072.5034   23682078.5384
     -2945.1724      -2294.9394
  -4707734.42647  -3668362.64346  20464580.7844   20464582.6834
      1737.0474       1353.5434
  -7221844.27745  -5474509.51845  23199971.5194   23199977.1674
      3077.2194       2397.8334
   3608154.79546   2811548.38246  22325151.0894   22325155.2144
     -2207.9224      -1720.4594
  -1215337.24544   -928784.91642  24721758.2454   24721761.4214
      -116.9064        -91.0964
  -5222390.28446  -4069391.38546  21770105.5974   21770109.5464
      2065.0164       1609.1034
   3329105.93846   2561165.70946  21746420.8004   21746424.4444
     -2132.2034      -1661.4574
  -5470594.33945  -4068976.87943  23582738.0034   23582744.9094
      3866.9384       3013.1984
 98  6 11 20 38 29.9990000  0  8G 5G 6G26G10G13G17G30G23
   5941740.54445   4629914.65543  23690481.9404   23690487.9054
     -2947.5164      -2296.7654
  -4733735.52947  -3688623.24146  20459632.8154   20459634.6554
      1729.6724       1347.7964
  -7267960.09245  -5510443.86245  23191195.5264   23191200.8354
      3071.5164       2393.3894
   3641322.77846   2837393.54846  22331462.5504   22331465.9954
     -2214.5944      -1725.6574
  -1213508.18644   -927359.65342  24722105.7064   24722106.3274
      -127.0784        -99.0224
  -5253326.15646  -4093497.24346  21764218.8314   21764222.8154
      2059.7194       1604.9764
   3361145.80146   2586131.80346  21752517.5894   21752521.2334
     -2139.8914      -1667.4474
  -5528560.39245  -4114145.14043  23571707.5504   23571713.2694
      3861.7664       3009.1684
 98  6 11 20 38 44.9990000  0  8G 5G 6G26G10G13G17G30G23
   5985970.49445   4664379.39843  23698898.6594   23698903.8624
     -2949.8124      -2298.5554
  -4759624.29147  -3708796.29746  20454706.4174   20454708.1514
      1722.1884       1341.9644
  -7313990.82645  -5546311.89345  23182436.1904   23182441.6514
      3065.9844       2389.0794
   3674591.52046   2863317.23845  22337793.5814   22337797.5074
     -2221.2664      -1730.8564
  -1211526.10444   -925815.15342  24722483.0504   24722487.1404
      -137.1874       -106.8994
  -5284183.61846  -4117541.99946  21758346.8624   21758350.7764
      2054.5944       1600.9824
   3393300.14246   2611187.09846  21758636.4014   21758639.9524
     -2147.3754      -1673.2794
  -5586449.87445  -4159253.73344  23560691.5424   23560698.5074
      3856.9224       3005.3944
 98  6 11 20 38 59.9990000  0  8G 5G 6G26G10G13G17G30G23
   6030234.58645   4698870.75843  23707322.1904   23707328.9174
     -2952.0784      -2300.3214
  -4785401.95647  -3728882.78446  20449801.1204   20449802.8664
      1714.7814       1336.1934
  -7359939.57845  -5582116.05344  23173692.5584   23173697.9374
      3060.5314       2384.8304
   3707960.96446   2889319.39945  22344143.5194   22344147.1984
     -2228.0784      -1736.1654
  -1209392.77843   -924152.85942  24722889.4014   24722891.9684
      -147.2194       -114.7164
  -5314963.39846  -4141526.21546  21752489.5894   21752493.5854
      2049.3594       1596.9034
   3425566.89547   2636329.98546  21764777.0654   21764780.3824
     -2154.8754      -1679.1234
  -5644267.59045  -4204306.43144  23549688.4404   23549695.6754
      3852.0474       3001.5954
 98  6 11 20 39 14.9990000  0  8G 5G 6G26G10G13G17G30G23
   6074537.24745   4733392.17444  23715753.1124   23715759.5224
     -2954.8594      -2302.4884
  -4811065.60447  -3748880.42846  20444917.1204   20444919.0774
      1707.2194       1330.3004
  -7405803.69945  -5617854.26245  23164964.7454   23164969.9834
      3054.8134       2380.3734
   3741437.47746   2915404.97345  22350513.5344   22350517.2494
     -2235.3124      -1741.8024
  -1207106.93143   -922371.65141  24723324.4174   24723331.1674
      -157.4844       -122.7154
  -5345661.81046  -4165447.03746  21746647.8704   21746651.7264
      2043.8914       1592.6424
   3457948.63447   2661562.48146  21770939.0034   21770942.1904
     -2162.5474      -1685.1014
  -5702007.21645  -4249298.24744  23538700.6674   23538708.3124
      3846.7194       2997.4434
 98  6 11 20 39 29.9990000  0  8G 5G 6G26G10G13G17G30G23
   6118880.31945   4767945.09843  23724191.5584   23724199.8354
     -2957.2504      -2304.3514
  -4836617.44847  -3768790.95646  20440055.1364   20440057.0584
      1699.9694       1324.6514
  -7451584.29945  -5653527.40545  23156252.6904   23156257.1084
      3049.6254       2376.3314
   3775020.13846   2941573.27545  22356904.5194   22356907.9404
     -2242.1094      -1747.0984
  -1204666.32443   -920469.87341  24723788.1054   24723795.1874
      -167.6254       -130.6174
  -5376279.26246  -4189304.76946  21740821.2764   21740824.8974
      2038.7194       1588.6124
   3490444.26747   2686883.71346  21777122.7764   21777126.2334
     -2169.9694      -1690.8854
  -5759668.42545  -4294228.97743  23527728.2924   23527734.4684
      3841.7034       2993.5354
 98  6 11 20 39 44.9990000  0  8G 5G 6G26G10G13G17G30G23
   6163259.83945   4802526.38543  23732636.3394   23732643.9604
     -2959.8594      -2306.3844
  -4862058.58547  -3788615.21246  20435213.9174   20435215.8744
      1692.3594       1318.7224
  -7497287.11445  -5689139.92345  23147556.3784   23147561.4294
      3044.2344       2372.1314
   3808706.02546   2967822.00845  22363314.6204   22363317.9134
     -2249.1564      -1752.5894
  -1202072.31343   -918448.61841  24724282.2534   24724284.9724
      -178.1874       -138.8474
  -5406818.53946  -4213101.58846  21735010.0034   21735013.5304
      2033.3284       1584.4124
   3523053.09946   2712293.15646  21783328.1124   21783331.5584
     -2177.7344      -1696.9364
  -5817251.14845  -4339098.56144  23516770.6674   23516777.2764
      3836.1254       2989.1884
 98  6 11 20 39 59.9990000  0  8G 5G 6G26G10G13G17G30G23
   6207678.00345   4837137.78443  23741089.3554   23741097.2924
     -2962.5944      -2308.5154
  -4887386.72247  -3808351.42146  20430393.9564   20430395.9134
      1684.7194       1312.7684
  -7542908.20445  -5724688.77145  23138874.1984   23138879.4374
      3038.5004       2367.6624
   3842496.80046   2994152.47145  22369744.8864   22369748.2964
     -2256.3284      -1758.1784
  -1199320.84643   -916304.66741  24724806.3154   24724812.9254
      -188.7194       -147.0544
  -5437278.05546  -4236836.26146  21729213.8864   21729217.4724
      2027.9384       1580.2114
   3555779.15146   2737793.93346  21789555.3864   21789559.1944
     -2185.7344      -1703.1704
  -5874750.92345  -4383903.49244  23505828.5264   23505835.3004
      3830.5634       2984.8544
 98  6 11 20 40 14.9990000  0  8G 5G 6G26G10G13G17G30G23
   6252135.40145   4871779.79543  23749549.5734   23749556.4914
     -2964.8914      -2310.3044
  -4912601.13747  -3827999.01246  20425595.8624   20425597.9484
      1677.4064       1307.0704
  -7588441.55045  -5760169.24645  23130209.8004   23130214.7334
      3032.8284       2363.2434
   3876395.12846   3020566.73845  22376195.6754   22376198.9334
     -2263.2974      -1763.6084
  -1196412.09643   -914038.07242  24725359.2374   24725361.1944
      -198.8594       -154.9554
  -5467658.17946  -4260509.07146  21723432.5814   21723436.1674
      2022.9384       1576.3154
   3588624.63847   2763387.79046  21795806.1364   21795809.5814
     -2193.4844      -1709.2094
  -5932168.32245  -4428644.24744  23494902.6594   23494909.3624
      3825.2344       2980.7024
 98  6 11 20 40 29.9990000  0  8G 5G 6G26G10G13G17G30G23
   6296628.09044   4906449.29643  23758015.6594   23758020.8154
     -2967.5784      -2312.3994
  -4937707.96647  -3847562.77546  20420818.1204   20420820.1474
      1670.1564       1301.4204
  -7633892.99445  -5795585.89245  23121560.6124   23121565.5814
      3027.3444       2358.9694
   3910398.30746   3047062.71245  22382666.2224   22382669.7144
     -2270.5474      -1769.2574
  -1193354.16943   -911655.25541  24725940.1204   24725941.4214
      -209.0004       -162.8574
  -5497964.25446  -4284124.17646  21717665.5584   21717669.3194
      2017.8134       1572.3214
   3621584.54547   2789070.80246  21802078.1284   21802081.3394
     -2201.2034      -1715.2234
  -5989505.28045  -4473322.32344  23483991.8314   23483997.9374
      3819.6884       2976.3804
 98  6 11 20 40 44.9990000  0  8G 5G 6G26G10G13G17G30G23
   6341163.58944   4941152.11244  23766491.1754   23766499.0894
     -2970.5164      -2314.6874
  -4962706.65147  -3867042.26647  20416060.9644   20416062.8274
      1662.9224       1295.7834
  -7679261.14745  -5830937.63844  23112926.9564   23112932.2184
      3021.6564       2354.5374
   3944511.16146   3073644.14745  22389157.6284   22389161.0734
     -2277.8594      -1774.9554
  -1190141.64842   -909151.96741  24726551.5894   24726552.9134
      -219.3754       -170.9424
  -5528192.30346  -4307678.47846  21711913.3154   21711917.2764
      2012.5784       1568.2434
   3654660.16047   2814843.97246  21808371.9174   21808375.0934
     -2208.9064      -1721.2264
  -6046759.64145  -4517936.03244  23473096.0734   23473102.9334
      3814.2194       2972.1194
 98  6 11 20 40 59.9990000  0  8G 5G 6G26G10G13G17G30G23
   6385742.21344   4975888.56743  23774974.2844   23774983.1014
     -2973.3594      -2316.9034
  -4987596.58447  -3886437.01747  20411324.3004   20411326.1164
      1655.6414       1290.1104
  -7724544.22745  -5866223.10445  23104310.2064   23104315.6324
      3015.9534       2350.0934
   3978731.79146   3100309.56445  22395669.4874   22395673.0734
     -2284.9694      -1780.4954
  -1186774.35543   -906528.12742  24727192.4094   24727199.0304
      -229.7504       -179.0264
  -5558343.24446  -4331172.70646  21706175.9644   21706179.9604
      2007.3754       1564.1884
   3687849.11947   2840705.45646  21814687.7064   21814691.2224
     -2216.4374      -1727.0944
  -6103933.91945  -4562487.32144  23462216.8084   23462223.3124
      3808.9064       2967.9794
 98  6 11 20 41 14.9990000  0  8G 5G 6G26G10G13G17G30G23
   6430362.36144   5010657.33843  23783464.8394   23783472.1084
     -2976.0474      -2318.9984
  -5012377.21647  -3905746.59847  20406608.8314   20406610.8584
      1648.3444       1284.4244
  -7769740.43245  -5901440.89545  23095709.7764   23095714.9564
      3010.1564       2345.5764
   4013057.11546   3127056.55345  22402201.4954   22402205.2334
     -2291.8444      -1785.8524
  -1183250.40843   -903782.23741  24727862.4724   24727865.5424
      -240.1414       -187.1234
  -5588414.59646  -4354604.90546  21700453.6364   21700457.7724
      2002.0944       1560.0734
   3721151.60147   2866655.41746  21821024.9724   21821028.1474
     -2223.9534      -1732.9504
  -6161027.43645  -4606975.72944  23451351.9804   23451358.8864
      3803.4694       2963.7424
 98  6 11 20 41 29.9990000  0  8G 5G 6G26G10G13G17G30G23
   6475022.31244   5045457.15643  23791963.4094   23791973.2924
     -2978.4374      -2320.8604
  -5037047.55447  -3924970.23147  20401914.2694   20401916.4724
      1641.0784       1278.7624
  -7814849.37945  -5936590.66645  23087125.5424   23087129.5854
      3004.5004       2341.1694
   4047485.70246   3153884.01545  22408753.2144   22408756.8354
     -2298.5004      -1791.0394
  -1179571.07242   -900915.18641  24728563.5504   24728573.1054
      -250.3124       -195.0494
  -5618406.85946  -4377975.48346  21694746.2924   21694750.2064
      1996.9384       1556.0554
   3754565.84446   2892692.45146  21827383.4094   21827386.7264
     -2231.1724      -1738.5754
  -6218040.74345  -4651401.58444  23440502.2694   23440508.9604
      3798.4844       2959.8584
 98  6 11 20 41 44.9990000  0  8G 5G 6G26G10G13G17G30G23
   6519714.02144   5080281.72643  23800468.0654   23800475.9094
     -2980.5784      -2322.5284
  -5061607.83947  -3944108.11347  20397240.8944   20397243.0624
      1633.4694       1272.8334
  -7859876.09845  -5971676.35944  23078557.0974   23078562.2304
      2998.9384       2336.8344
   4082012.29546   3180787.84945  22415323.4564   22415326.8664
     -2305.1724      -1796.2384
  -1175742.21842   -897931.67641  24729292.4564   24729294.5774
      -260.2344       -202.7804
  -5648321.50446  -4401285.58546  21689053.6514   21689057.3664
      1991.5784       1551.8794
   3788087.40646   2918813.10946  21833762.5504   21833766.1714
     -2238.5314      -1744.3104
  -6274982.97545  -4695772.07744  23429666.6904   23429673.2884
      3793.6884       2956.1204
 98  6 11 20 41 59.9990000  0  8G 5G 6G26G10G13G17G30G23
   6564440.53244   5115133.40843  23808980.1124   23808989.1874
     -2982.8754      -2324.3184
  -5086051.75447  -3963155.31747  20392589.3154   20392591.4484
      1625.8134       1266.8674
  -7904816.19145  -6006694.52445  23070005.5344   23070011.4524
      2993.1564       2332.3304
   4116640.71246   3207771.01045  22421912.6054   22421916.3434
     -2311.8444      -1801.4374
  -1171765.25142   -894832.64941  24730048.3864   24730047.9764
      -269.9224       -210.3294
  -5678155.20646  -4424532.59746  21683376.5114   21683380.3084
      1986.3284       1547.7884
   3821720.87946   2945020.97546  21840162.9174   21840166.4094
     -2245.8444      -1750.0084
  -6331852.62645  -4740086.02444  23418844.8154   23418850.9804
      3789.0314       2952.4924
 98  6 11 20 42 14.9990000  0  8G 5G 6G26G10G13G17G30G23
   6609200.68644   5150011.27443  23817497.4804   23817504.5034
     -2985.0474      -2326.0114
  -5110381.89547  -3982113.85947  20387959.3234   20387961.4914
      1618.2814       1260.9984
  -7949670.22445  -6041645.68745  23061469.8314   23061474.7764
      2987.5164       2327.9344
   4151368.29846   3234831.45345  22428521.2844   22428524.8704
     -2318.3594      -1806.5144
  -1167644.31942   -891621.53341  24730832.5504   24730837.9644
      -279.4064       -217.7194
  -5707911.46346  -4447719.27646  21677713.8474   21677717.5384
      1981.3284       1543.8924
   3855462.71446   2971313.27846  21846583.6204   21846587.4404
     -2252.8914      -1755.4994
  -6388654.01945  -4784346.78544  23408035.9174   23408041.8234
      3784.5634       2949.0104
 98  6 11 20 42 29.9990000  0  8G 5G 6G26G10G13G17G30G23
   6653993.61844   5184914.73143  23826021.6204   23826029.5224
     -2987.4374      -2327.8734
  -5134597.44647  -4000983.11447  20383351.4484   20383353.4874
      1610.3754       1254.8384
  -7994441.34345  -6076532.24345  23052949.6984   23052955.0074
      2981.9534       2323.6004
   4186192.31746   3261967.04645  22435148.1834   22435151.5694
     -2324.8914      -1811.6034
  -1163380.15142   -888298.88141  24731644.3234   24731651.4764
      -289.2194       -225.3654
  -5737592.59046  -4470847.41046  21672065.8004   21672069.3514
      1976.0784       1539.8014
   3889308.41846   2997686.51746  21853024.3004   21853027.9214
     -2259.8914      -1760.9544
  -6445386.12045  -4828553.53245  23397239.9404   23397245.8124
      3779.6414       2945.1754
 98  6 11 20 42 44.9990000  0  8G 5G 6G26G10G13G17G30G23
   6698822.22944   5219845.96143  23834552.4174   23834560.3084
     -2989.6094      -2329.5664
  -5158694.49447  -4019760.03247  20378765.7454   20378767.7144
      1602.6094       1248.7874
  -8039130.04745  -6111354.53345  23044445.8004   23044450.8624
      2976.5634       2319.3994
   4221113.88846   3289178.63545  22441793.4094   22441796.5854
     -2331.2664      -1816.5714
  -1158967.05742   -884860.23041  24732484.5894   24732495.5264
      -299.2344       -233.1704
  -5767195.38546  -4493914.50546  21666432.4804   21666436.3354
      1971.0474       1535.8814
   3923257.87346   3024140.60446  21859484.5344   21859488.2024
     -2266.7034      -1766.2624
  -6502043.85045  -4872702.32844  23386457.9484   23386464.3824
      3774.7814       2941.3884
 98  6 11 20 42 59.9990000  0  8G 5G 6G26G10G13G17G30G23
   6743681.69344   5254801.23143  23843088.7764   23843096.5264
     -2991.4534      -2331.0024
  -5182674.58547  -4038445.81147  20374202.4564   20374204.4604
      1594.8754       1242.7604
  -8083736.26545  -6146112.58145  23035957.7614   23035962.5074
      2971.1414       2315.1754
   4256130.49946   3316464.30245  22448456.8314   22448460.4524
     -2337.4534      -1821.3924
  -1154404.38542   -881304.75441  24733352.7614   24733359.6054
      -308.9844       -240.7674
  -5796722.63346  -4516922.74246  21660813.8394   21660817.7184
      1966.1094       1532.0334
   3957310.19546   3050674.83846  21865964.6834   21865968.2804
     -2273.4534      -1771.5224
  -6558628.00845  -4916793.82044  23375690.7534   23375697.4684
      3769.9064       2937.5894
 98  6 11 20 43 14.9990000  0  8G 5G 6G26G10G13G17G30G23
   6788569.51945   5289778.60143  23851631.1444   23851638.0854
     -2993.3124      -2332.4514
  -5206537.76047  -4057040.49047  20369661.6594   20369663.6054
      1587.1564       1236.7454
  -8128261.73645  -6180807.70245  23027484.8314   23027490.4334
      2965.7814       2310.9984
   4291241.13446   3343823.22145  22455138.2224   22455141.7264
     -2343.7194      -1826.2744
  -1149695.15242   -877635.18441  24734249.2374   24734252.9994
      -318.6874       -248.3284
  -5826175.42146  -4539872.94646  21655209.1594   21655213.0384
      1961.1884       1528.1984
   3991465.75146   3077289.52046  21872464.3944   21872467.7924
     -2280.4534      -1776.9764
  -6615137.22445  -4960826.92845  23364937.4404   23364943.4294
      3764.8914       2933.6814
 98  6 11 20 43 29.9990000  0  8G 5G 6G26G10G13G17G30G23
   6833483.76045   5324776.53643  23860177.3944   23860184.6404
     -2995.2974      -2333.9984
  -5230287.13647  -4075546.49747  20365142.1754   20365143.9804
      1579.4064       1230.7064
  -8172708.04945  -6215441.13145  23019026.8474   23019032.9764
      2960.3754       2306.7864
   4326444.06046   3371254.05245  22461837.3084   22461840.7884
     -2350.0624      -1831.2184
  -1144843.63342   -873854.86941  24735172.3784   24735185.2494
      -328.1874       -255.7314
  -5855557.65146  -4562768.17846  21649617.6754   21649621.3194
      1956.4844       1524.5334
   4025726.25446   3103985.97246  21878983.4804   21878987.0074
     -2287.6564      -1782.5894
  -6671572.76945  -5004802.58844  23354197.4564   23354203.7614
      3759.8284       2929.7364
 98  6 11 20 43 44.9990000  0  7G 5G 6G26G10G17G30G23
   6878430.52745   5359799.81843  23868731.4484   23868738.6474
     -2997.5474      -2335.7514
  -5253917.87347  -4093960.05547  20360645.3704   20360647.5854
      1571.3914       1224.4604
  -8217069.74845  -6250008.62445  23010585.7764   23010591.4484
      2954.5944       2302.2814
   4361745.15246   3398761.38045  22468554.7844   22468557.8784
     -2356.6724      -1836.3684
  -5884868.15146  -4585607.51346  21644040.2454   21644043.8664
      1951.6254       1520.7474
   4060097.74246   3130768.90946  21885524.5504   21885528.3944
     -2295.1564      -1788.4334
  -6727929.38445  -5048716.75145  23343473.8004   23343480.1984
      3754.3914       2925.4994
 98  6 11 20 43 59.9990000  0  7G 5G 6G26G10G17G30G23
   6923409.70945   5394848.40342  23877289.6834   23877296.1284
     -2999.9064      -2337.5894
  -5277431.34247  -4112282.23447  20356170.9484   20356173.0344
      1563.6414       1218.4214
  -8261346.03045  -6284509.58645  23002159.9564   23002165.9334
      2948.7344       2297.7154
   4397143.47646   3426344.47345  22475290.9094   22475294.3084
     -2363.2664      -1841.5064
  -5914108.47746  -4608392.16346  21638475.8784   21638479.5814
      1946.9844       1517.1314
   4094580.30646   3157638.39546  21892086.6284   21892090.3434
     -2302.6874      -1794.3024
  -6784204.07145  -5092567.08845  23332765.1594   23332771.0894
      3748.6884       2921.0554
 98  6 11 20 44 14.9990000  0  7G 5G 6G26G10G17G30G23
   6968425.63845   5429925.60043  23885856.7224   23885863.1084
     -3002.2504      -2339.4164
  -5300829.02747  -4130514.19447  20351718.4094   20351720.6124
      1556.0784       1212.5284
  -8305532.97345  -6318940.88645  22993751.0114   22993756.9644
      2942.7974       2293.0884
   4432642.26146   3454005.85245  22482046.0734   22482049.6474
     -2369.9374      -1846.7054
  -5943279.01346  -4631122.43546  21632925.0194   21632928.8974
      1942.3444       1513.5154
   4129176.00046   3184596.03546  21898669.7534   21898673.5854
     -2310.0784      -1800.0614
  -6840390.43145  -5136348.59545  23322073.1594   23322079.5114
      3742.7814       2916.4534
 98  6 11 20 44 29.9990000  0  7G 5G 6G26G10G17G30G23
   7013474.67445   5465028.63743  23894429.0504   23894434.2654
     -3004.2814      -2340.9984
  -5324116.18047  -4148660.02247  20347286.9874   20347289.1794
      1548.8594       1206.9034
  -8349632.57745  -6353304.17445  22985359.2144   22985363.8664
      2937.1094       2288.6574
   4468239.51546   3481743.95545  22488820.0894   22488823.2184
     -2376.4064      -1851.7454
  -5972380.24146  -4653798.70146  21627386.9094   21627390.5544
      1937.7974       1509.9724
   4163881.11246   3211638.94446  21905273.9334   21905277.6014
     -2317.3124      -1805.6984
  -6896490.05445  -5180062.50545  23311397.7694   23311404.4954
      3737.1414       2912.0584
 98  6 11 20 44 44.9990000  0  7G 5G 6G26G10G17G30G23
   7058554.58045   5500155.65143  23903008.1054   23903016.3474
     -3006.3754      -2342.6304
  -5347293.72147  -4166720.44147  20342876.3474   20342878.4684
      1541.5004       1201.1694
  -8393644.34445  -6387599.00145  22976983.9174   22976988.6404
      2931.1254       2283.9944
   4503936.06646   3509559.43545  22495612.8474   22495616.0814
     -2383.1094      -1856.9684
  -6001411.08646  -4676420.12246  21621862.7224   21621866.6124
      1933.0314       1506.2584
   4198697.56046   3238768.59846  21911899.2144   21911903.5384
     -2324.9224      -1811.6274
  -6952503.51445  -5223709.30544  23300738.5654   23300744.3664
      3731.3444       2907.5414
 98  6 11 20 44 59.9990000  0  7G 5G 6G26G10G17G30G23
   7103666.43945   5535307.58443  23911592.2224   23911600.4874
     -3008.5004      -2344.2864
  -5370361.31947  -4184695.19047  20338486.9174   20338489.0624
      1534.1724       1195.4594
  -8437564.99345  -6421822.82345  22968626.1204   22968631.3944
      2924.8594       2279.1114
   4539734.29346   3537454.14545  22502424.9954   22502428.2764
     -2389.9844      -1862.3254
  -6030371.26946  -4698986.48746  21616351.8474   21616355.8434
      1928.2344       1502.5204
   4233629.66446   3265988.37746  21918546.8084   21918550.8044
     -2332.7194      -1817.7034
  -7008430.09145  -5267288.36345  23290096.2224   23290103.1164
      3725.5164       2902.9994
 98  6 11 20 45 14.9990000  0  7G 5G 6G26G10G17G30G23
   7148811.89245   5570485.67143  23920183.7224   23920192.4804
     -3010.9534      -2346.1974
  -5393317.84547  -4202583.38747  20334118.4564   20334120.5304
      1526.6564       1189.6024
  -8481388.29545  -6455970.80145  22960286.9254   22960292.1164
      2918.1564       2273.8884
   4575635.82646   3565429.34845  22509256.8624   22509260.3194
     -2396.9224      -1867.7314
  -6059256.33646  -4721494.31346  21610854.8864   21610858.6474
      1923.0474       1498.4784
   4268679.61946   3293299.98946  21925216.7304   21925220.5154
     -2340.6254      -1823.8644
  -7064269.18845  -5310799.28844  23279469.6674   23279475.4914
      3719.6254       2898.4094
 98  6 11 20 45 29.9990000  0  7G 5G 6G26G10G17G30G23
   7193993.28345   5605691.80343  23928781.5974   23928787.7724
     -3013.1094      -2347.8774
  -5416161.52247  -4220383.65347  20329771.4254   20329773.6634
      1519.2974       1183.8684
  -8525110.45645  -6490039.95745  22951966.3234   22951972.2064
      2911.5784       2268.7624
   4611640.25746   3593484.73745  22516108.2304   22516111.6404
     -2403.5004      -1872.8574
  -6088063.09846  -4743941.12446  21605373.2924   21605377.1014
      1917.9224       1494.4854
   4303846.80346   3320702.94846  21931908.6984   21931912.5304
     -2348.1254      -1829.7084
  -7120021.11245  -5354242.30344  23268860.6594   23268866.3194
      3714.0784       2894.0874
 98  6 11 20 45 44.9990000  0  7G 5G 6G26G10G17G30G23
   7239208.76145   5640924.50243  23937386.1984   23937392.1514
     -3015.5004      -2349.7404
  -5438893.60847  -4238096.95947  20325445.5194   20325447.8154
      1511.7344       1177.9754
  -8568732.52745  -6524031.12945  22943666.2064   22943671.8314
      2904.8284       2263.5024
   4647742.67446   3621616.47345  22522978.3944   22522981.6634
     -2410.0784      -1877.9834
  -6116790.85646  -4766326.37046  21599906.6984   21599910.3664
      1912.4694       1490.2354
   4339123.85246   3348191.50446  21938621.7844   21938625.7334
     -2355.3444      -1835.3334
  -7175687.18545  -5397618.38444  23258267.8234   23258274.5504
      3708.1094       2889.4364
 98  6 11 20 45 59.9990000  0  7G 5G 6G26G10G17G30G23
   7284457.28345   5676182.94743  23945996.2144   23946002.9764
     -3017.5004      -2351.2994
  -5461513.96647  -4255723.20947  20321141.0734   20321143.1944
      1504.4844       1172.3254
  -8612254.72945  -6557944.48845  22935383.4724   22935388.5224
      2898.2664       2258.3894
   4683942.02746   3649823.74345  22529866.7694   22529870.2614
     -2416.4064      -1882.9144
  -6145436.80746  -4788647.87346  21594455.5654   21594459.3394
      1907.1254       1486.0714
   4374505.49346   3375761.57546  21945354.6984   21945358.3664
     -2362.0624      -1840.5684
  -7231264.59645  -5440925.38645  23247691.6754   23247698.5464
      3702.3444       2884.9434
 98  6 11 20 46 14.9990000  0  7G 5G 6G26G10G17G30G23
   7329736.86745   5711465.55043  23954613.2764   23954622.2334
     -3019.7814      -2353.0764
  -5484025.96747  -4273265.02447  20316857.4644   20316859.5384
      1497.0474       1166.5304
  -8655678.17345  -6591780.88145  22927120.4174   22927125.3744
      2891.5004       2253.1174
   4720238.64546   3678106.81045  22536773.9724   22536777.9804
     -2423.1414      -1888.1624
  -6174002.01146  -4810906.45046  21589019.7534   21589023.5034
      1901.5164       1481.7004
   4409987.82346   3403410.08946  21952106.7454   21952110.3084
     -2368.9064      -1845.9014
  -7286755.46345  -5484164.95544  23237132.1834   23237138.0074
      3696.4224       2880.3294
 98  6 11 20 46 29.9990000  0  7G 5G 6G26G10G17G30G23
   7375047.14945   5746772.09843  23963235.5034   23963245.3864
     -3021.7194      -2354.5864
  -5506426.54647  -4290720.02047  20312594.4954   20312596.6054
      1489.5784       1160.7104
  -8699001.66145  -6625539.39045  22918876.6674   22918882.2104
      2884.8284       2247.9184
   4756633.09446   3706466.10245  22543699.5424   22543703.5974
     -2429.5314      -1893.1414
  -6202484.47446  -4833100.56346  21583599.5504   21583603.2184
      1896.0474       1477.4394
   4445569.61746   3431136.12046  21958877.7304   21958881.4444
     -2375.4064      -1850.9664
  -7342159.57545  -5527336.91745  23226589.0894   23226595.3354
      3690.6884       2875.8604
 98  6 11 20 46 44.9990000  0  7G 5G 6G26G10G17G30G23
   7420386.66444   5782101.44242  23971862.7144   23971871.1084
     -3023.5784      -2356.0354
  -5528713.42447  -4308086.41347  20308353.3394   20308355.3434
      1481.9694       1154.7814
  -8742223.75545  -6659218.89345  22910650.9484   22910656.3274
      2878.1094       2242.6834
   4793123.06946   3734899.83645  22550643.5264   22550647.1944
     -2435.7814      -1898.0114
  -6230885.52746  -4855231.23846  21578194.8784   21578198.8744
      1890.7814       1473.3364
   4481249.34646   3458938.46346  21965667.6364   21965671.4914
     -2381.8754      -1856.0064
  -7397476.19845  -5570440.70144  23216062.3474   23216067.7614
      3684.8284       2871.2954
 98  6 11 20 46 59.9990000  0  7G 5G 6G26G10G17G30G23
   7465754.89644   5817453.18743  23980496.5894   23980506.6364
     -3025.5314      -2357.5574
  -5550884.22447  -4325362.35547  20304134.8084   20304136.8234
      1474.1414       1148.6814
  -8785344.60645  -6692819.49845  22902445.8154   22902450.7964
      2871.3754       2237.4354
   4829707.11546   3763406.86345  22557605.2694   22557608.9374
     -2442.0474      -1902.8944
  -6259207.73146  -4877300.46346  21572805.4644   21572809.3084
      1885.5634       1469.2694
   4517025.83546   3486816.19446  21972475.6984   21972479.2724
     -2388.2664      -1860.9864
  -7452703.85545  -5613475.16845  23205552.8474   23205557.7104
      3678.8914       2866.6684
 98  6 11 20 47 14.9990000  0  7G 5G 6G26G10G17G30G23
   7511152.93544   5852828.08342  23989135.8084   23989143.8394
     -3027.5004      -2359.0914
  -5572936.59447  -4342546.02447  20299938.2374   20299940.3004
      1466.1724       1142.4724
  -8828363.48845  -6726340.65145  22894258.7614   22894263.5894
      2864.4694       2232.0544
   4866386.69846   3791988.34445  22564584.9094   22564588.3434
     -2448.5004      -1907.9224
  -6287451.16446  -4899308.31746  21567430.8084   21567434.9094
      1880.2034       1465.0934
   4552896.51146   3514767.32546  21979301.8084   21979305.3944
     -2394.4844      -1865.8324
  -7507842.62145  -5656440.37044  23195060.0194   23195066.3124
      3673.0004       2862.0784
 98  6 11 20 47 29.9990000  0  7G 5G 6G26G10G17G30G23
   7556580.20044   5888225.82642  23997779.9564   23997787.6364
     -3029.6414      -2360.7594
  -5594868.10247  -4359635.50747  20295764.7144   20295766.6364
      1457.7814       1135.9334
  -8871279.19145  -6759781.42145  22886092.7374   22886097.9874
      2857.4844       2226.6114
   4903161.64346   3820644.12945  22571583.0974   22571586.1674
     -2455.0314      -1913.0114
  -6315614.00446  -4921253.36446  21562071.6364   21562075.6204
      1874.7034       1460.8084
   4588859.51246   3542790.39846  21986145.2224   21986149.0544
     -2400.7974      -1870.7514
  -7562894.17045  -5699337.59045  23184584.3704   23184590.1944
      3667.0314       2857.4274
 98  6 11 20 47 44.9990000  0  7G 5G 6G26G10G17G30G23
   7602035.29744   5923645.19342  24006430.5424   24006439.3124
     -3031.2034      -2361.9764
  -5616674.98747  -4376627.88547  20291614.9404   20291616.9334
      1449.6724       1129.6144
  -8914095.01545  -6793144.34345  22877945.1594   22877950.5504
      2851.1564       2221.6804
   4940032.54046   3849374.68445  22578599.4874   22578603.0384
     -2461.2504      -1917.8574
  -6343698.79246  -4943137.59846  21556727.2144   21556731.3274
      1869.8444       1457.0214
   4624915.34346   3570885.79746  21993006.3234   21993010.5304
     -2406.8124      -1875.4384
  -7617859.28245  -5742167.50845  23174124.8704   23174130.3194
      3661.4694       2853.0934
 98  6 11 20 47 59.9990000  0  7G 5G 6G26G10G17G30G23
   7647514.78843   5959083.61643  24015085.1594   24015093.2374
     -3032.7814      -2363.2064
  -5638359.79847  -4393525.13547  20287488.4874   20287490.6444
      1441.5474       1123.2834
  -8956815.16545  -6826432.73745  22869815.8704   22869820.6874
      2844.7664       2216.7004
   4976998.44846   3878179.26745  22585633.8624   22585637.2844
     -2467.6724      -1922.8614
  -6371712.65046  -4964966.56046  21551396.3004   21551400.2724
      1865.2664       1453.4544
   4661063.61846   3599053.23846  21999885.5114   21999889.6834
     -2413.1254      -1880.3574
  -7672740.28545  -5784931.83244  23163681.0504   23163686.5814
      3655.9534       2848.7954
 98  6 11 20 48 14.9990000  0  7G 5G 6G26G10G17G30G23
   7693018.05443   5994540.53542  24023742.9644   24023752.4954
     -3034.2814      -2364.3754
  -5659922.45747  -4410327.20647  20283385.3004   20283387.4564
      1433.5314       1117.0374
  -8999437.87145  -6859645.17545  22861704.5424   22861709.8624
      2838.3134       2211.6724
   5014062.01346   3907059.95345  22592686.7844   22592690.2654
     -2474.1254      -1927.8904
  -6399657.25446  -4986741.55846  21546078.8784   21546082.2064
      1860.7034       1449.8994
   4697310.10546   3627297.20046  22006782.8314   22006786.7454
     -2419.6874      -1885.4714
  -7727539.63845  -5827632.54745  23153253.2844   23153259.8004
      3650.7194       2844.7164
 98  6 11 20 48 29.9990000  0  7G 5G 6G26G10G17G30G23
   7738544.83643   6030015.73943  24032407.6124   24032414.3974
     -3035.8914      -2365.6294
  -5681363.18847  -4427034.26547  20279305.2304   20279307.3154
      1425.2504       1110.5844
  -9041964.28645  -6892782.59045  22853612.3554   22853618.0854
      2831.8914       2206.6684
   5051222.04646   3936015.80145  22599757.8154   22599761.4724
     -2480.4224      -1932.7964
  -6427532.36347  -5008462.40546  21540774.4094   21540777.8784
      1855.9534       1446.1974
   4733655.64746   3655618.35746  22013699.0734   22013702.8124
     -2426.3914      -1890.6944
  -7782260.29545  -5870271.96045  23142839.5114   23142845.2414
      3645.3914       2840.5644
 98  6 11 20 48 44.9990000  0  7G 5G 6G26G10G17G30G23
   7784095.57043   6065509.67343  24041075.6364   24041084.8394
     -3037.5944      -2366.9564
  -5702680.54447  -4443645.18847  20275248.8234   20275250.8154
      1417.0474       1104.1924
  -9084393.78045  -6925844.48045  22845538.0584   22845543.3784
      2825.3444       2201.5674
   5088474.67946   3965043.80845  22606847.1674   22606851.0344
     -2486.6254      -1937.6304
  -6455335.80446  -5030127.40246  21535483.3154   21535486.7724
      1851.1094       1442.4234
   4770103.14746   3684018.95346  22020634.8234   22020638.9014
     -2433.3444      -1896.1124
  -7836900.96945  -5912849.03345  23132442.3004   23132448.2064
      3640.0314       2836.3884
 98  6 11 20 48 59.9990000  0  7G 5G 6G26G10G17G30G23
   7829671.18043   6101022.97642  24049748.9954   24049759.8744
     -3039.0944      -2368.1254
  -5723877.41347  -4460162.23047  20271215.1904   20271217.3004
      1409.2664       1098.1294
  -9126726.74745  -6958831.14645  22837482.5034   22837487.2614
      2819.1724       2196.7574
   5125819.68446   3994143.80145  22613953.3624   22613957.2304
     -2492.6414      -1942.3174
  -6483066.37247  -5051735.61946  21530206.6594   21530210.2574
      1846.3284       1438.6974
   4806655.67946   3712501.39546  22027590.6514   22027594.7654
     -2440.2664      -1901.5064
  -7891463.50345  -5955365.22445  23122059.2304   23122064.9954
      3635.0784       2832.5284
 98  6 11 20 49 14.9990000  0  7G 5G 6G26G10G17G30G23
   7875270.83443   6136554.97343  24058426.2144   24058435.9334
     -3040.8444      -2369.4894
  -5744957.45447  -4476588.23347  20267203.6754   20267205.8084
      1401.4224       1092.0174
  -9168968.00645  -6991746.37145  22829444.0424   22829449.3274
      2812.9384       2191.8994
   5163255.04746   4023314.18845  22621077.1444   22621080.6714
     -2498.7194      -1947.0544
  -6510723.82346  -5073286.86446  21524943.6054   21524947.3194
      1841.3444       1434.8134
   4843312.64446   3741065.22046  22034566.3314   22034569.8124
     -2447.3284      -1907.0094
  -7945951.62445  -5997823.42245  23111690.7614   23111696.4094
      3629.9694       2828.5474
 98  6 11 20 49 29.9990000  0  7G 5G 6G26G10G17G30G23
   7920896.71043   6172107.44342  24067108.0814   24067115.7844
     -3042.7194      -2370.9504
  -5765920.21147  -4492922.84847  20263214.6124   20263216.6634
      1393.4844       1085.8324
  -9211114.57145  -7024587.79545  22821424.2304   22821429.2104
      2806.4694       2186.8594
   5200781.04446   4052555.20845  22628218.1204   22628222.5384
     -2504.7974      -1951.7904
  -6538305.46346  -5094779.03046  21519694.7534   21519698.6794
      1836.0474       1430.6864
   4880076.66746   3769712.46346  22041562.5584   22041566.6474
     -2454.7504      -1912.7924
  -8000361.63445  -6040220.77045  23101337.0264   23101343.3194
      3624.5314       2824.3104
 98  6 11 20 49 44.9990000  0  7G 5G 6G26G10G17G30G23
   7966548.33843   6207679.98443  24075795.7064   24075805.5654
     -3044.0784      -2372.0094
  -5786765.65047  -4509166.04647  20259247.8314   20259249.7654
      1386.0314       1080.0244
  -9253166.68545  -7057355.63745  22813421.6364   22813427.5654
      2800.6094       2182.2934
   5238393.72846   4081863.77345  22635375.6514   22635379.1324
     -2510.1094      -1955.9294
  -6565809.97146  -5116211.09446  21514461.0034   21514465.0694
      1831.3284       1427.0094
   4916951.55446   3798446.08946  22048579.1754   22048583.3584
     -2461.8284      -1918.3084
  -8054689.43945  -6082554.03145  23090997.8314   23091004.3234
      3619.2344       2820.1834
 98  6 11 20 49 59.9990000  0  7G 5G 6G26G10G17G30G23
   8012221.65943   6243269.40943  24084487.2454   24084496.2844
     -3045.5784      -2373.1784
  -5807500.61847  -4525323.16347  20255302.1124   20255303.8944
      1378.8134       1074.3994
  -9295130.71445  -7090054.81445  22805436.1284   22805442.0464
      2794.6724       2177.6664
   5276087.24746   4111235.33845  22642548.5504   22642552.2764
     -2515.5004      -1960.1304
  -6593242.59346  -5137587.14946  21509240.5264   21509244.5694
      1826.5164       1423.2594
   4953935.03846   3827264.32946  22055617.1444   22055621.0694
     -2469.0944      -1923.9694
  -8108934.61645  -6124822.93845  23080675.9094   23080681.8624
      3613.5944       2815.7874
 98  6 11 20 50 14.9990000  0  7G 5G 6G26G10G17G30G23
   8057919.45543   6278877.93442  24093183.0814   24093191.7454
     -3047.3754      -2374.5784
  -5828126.65747  -4541395.40147  20251377.3154   20251379.2724
      1371.3914       1068.6164
  -9337002.56645  -7122682.18345  22797468.0894   22797473.2694
      2788.2974       2172.6994
   5313861.37646   4140669.69745  22649736.4954   22649739.8124
     -2520.9534      -1964.3794
  -6620600.45046  -5158904.94246  21504034.6754   21504038.5654
      1821.2194       1419.1314
   4991027.40946   3856167.42646  22062675.5584   22062679.0854
     -2476.4534      -1929.7044
  -8163094.09845  -6167025.07845  23070369.8234   23070374.9804
      3607.6724       2811.1734
 98  6 11 20 50 29.9990000  0  7G 5G 6G26G10G17G30G23
   8103643.64843   6314507.00443  24101884.2924   24101895.2184
     -3049.0784      -2375.9054
  -5848642.41947  -4557381.70747  20247473.2764   20247475.3044
      1364.0474       1062.8944
  -9378779.70045  -7155235.74645  22789518.3234   22789522.8234
      2782.0634       2167.8414
   5351716.33046   4170167.05945  22656940.3944   22656943.5814
     -2526.2974      -1968.5434
  -6647879.21247  -5180161.11046  21498843.9014   21498847.7104
      1816.0314       1415.0894
   5028227.51846   3885154.47746  22069754.8784   22069758.3004
     -2483.4064      -1935.1224
  -8217163.85145  -6209157.24645  23060080.4874   23060086.3234
      3601.6884       2806.5104
 98  6 11 20 50 44.9990000  0  7G 5G 6G26G10G17G30G23
   8149394.05443   6350156.48143  24110590.1514   24110600.5734
     -3050.6874      -2377.1594
  -5869044.36247  -4573279.32647  20243590.8084   20243592.6124
      1356.4534       1056.9764
  -9420462.60045  -7187715.87845  22781585.9094   22781590.6904
      2775.8444       2162.9954
   5389652.15146   4199727.41145  22664159.5974   22664163.2304
     -2531.5944      -1972.6704
  -6675080.08147  -5201356.57646  21493667.5734   21493671.4294
      1810.9534       1411.1324
   5065532.89946   3914223.54846  22076853.4564   22076857.0654
     -2490.4374      -1940.6014
  -8271141.58545  -6251217.75745  23049808.5974   23049814.9604
      3595.5314       2801.7134
 98  6 11 20 50 59.9990000  0  7G 5G 6G26G10G17G30G23
   8195165.95844   6385822.72042  24119301.3314   24119311.4834
     -3052.2814      -2378.4014
  -5889334.82947  -4589090.08047  20239729.8624   20239731.7144
      1348.8284       1051.0354
  -9462053.29945  -7220124.15745  22773671.6124   22773675.4094
      2769.5784       2158.1134
   5427666.67746   4229349.10945  22671393.2924   22671396.7724
     -2537.1414      -1976.9934
  -6702207.38047  -5222494.71546  21488505.3944   21488509.2964
      1805.9844       1407.2614
   5102941.15946   3943372.79546  22083972.2454   22083976.0304
     -2497.3444      -1945.9824
  -8325027.87245  -6293206.98645  23039554.1444   23039559.6984
      3589.2504       2796.8184
 98  6 11 20 51 14.9990000  0  7G 5G 6G26G10G17G30G23
   8240961.14744   6421507.11543  24128016.0894   24128026.7104
     -3053.6414      -2379.4604
  -5909508.80847  -4604810.05947  20235890.5814   20235892.5974
      1341.0474       1044.9724
  -9503551.52545  -7252460.37645  22765775.0034   22765779.9604
      2763.5784       2153.4384
   5465766.75146   4259037.45245  22678643.1674   22678646.3784
     -2542.7664      -1981.3764
  -6729260.84147  -5243575.31646  21483357.4484   21483361.1284
      1801.2344       1403.5594
   5140451.23946   3972601.38346  22091110.4874   22091114.4604
     -2503.8754      -1951.0714
  -8378819.20445  -6335122.22345  23029317.8474   23029323.6944
      3582.9844       2791.9364
 98  6 11 20 51 29.9990000  0  7G 5G 6G26G10G17G30G23
   8286776.49644   6457207.22543  24136734.4804   24136743.2964
     -3055.0004      -2380.5194
  -5929563.41547  -4620437.02646  20232074.3784   20232076.3584
      1332.9384       1038.6534
  -9544957.03145  -7284724.35545  22757895.8704   22757900.8154
      2757.1724       2148.4464
   5503951.52346   4288791.80345  22685910.0894   22685912.9374
     -2548.5164      -1985.8564
  -6756243.47747  -5264600.73046  21478222.5344   21478225.9444
      1796.5004       1399.8704
   5178057.79646   4001905.13946  22098266.3624   22098270.1834
     -2510.2974      -1956.0754
  -8432515.55545  -6376963.45245  23019099.9564   23019106.5074
      3576.5944       2786.9564
 98  6 11 20 51 44.9990000  0  7G 5G 6G26G10G17G30G23
   8332608.95044   6492920.69443  24145455.9564   24145465.2064
     -3056.0004      -2381.2994
  -5949497.09547  -4635969.75646  20228281.2304   20228283.0694
      1324.9384       1032.4194
  -9586267.43645  -7316914.23945  22750034.3944   22750039.7024
      2750.9224       2143.5754
   5542222.99946   4318613.71645  22693192.6204   22693195.9254
     -2554.2664      -1990.3374
  -6783155.38047  -5285571.02746  21473101.4174   21473104.6874
      1791.8134       1396.2184
   5215759.42846   4031282.97946  22105440.8784   22105444.9334
     -2516.5314      -1960.9334
  -8486118.37045  -6418731.82645  23008899.5894   23008905.2264
      3570.5314       2782.2324
 98  6 11 20 51 59.9990000  0  7G 5G 6G26G10G17G30G23
   8378460.93244   6528649.35842  24154181.3944   24154191.2414
     -3057.6414      -2382.5774
  -5969307.62847  -4651406.53746  20224511.4644   20224513.3864
      1316.4694       1025.8204
  -9627481.48445  -7349029.02145  22742191.5264   22742196.8004
      2744.2194       2138.3524
   5580584.01746   4348505.39245  22700492.5654   22700495.9644
     -2560.6254      -1995.2924
  -6809995.06647  -5306485.05046  21467993.9254   21467997.1714
      1786.7814       1392.2974
   5253555.44746   4060734.37746  22112633.2764   22112637.1904
     -2522.9534      -1965.9374
  -8539628.72545  -6460428.13845  22998716.8784   22998722.7144
      3564.2194       2777.3134
 98  6 11 20 52 14.9990000  0  7G 5G 6G26G10G17G30G23
   8424334.76844   6564394.99243  24162911.3314   24162920.2184
     -3058.8594      -2383.5274
  -5988993.76547  -4666746.38246  20220765.0814   20220766.9334
      1308.3284       1019.4764
  -9668595.77045  -7381066.06545  22734367.3704   22734372.4684
      2737.6564       2133.2394
   5619039.28046   4378470.50845  22707810.3864   22707813.6674
     -2566.7034      -2000.0284
  -6836761.43347  -5327341.94646  21462900.6594   21462904.3864
      1782.1254       1388.6694
   5291444.59046   4090258.32446  22119843.2224   22119847.2534
     -2528.8284      -1970.5154
  -8593049.12045  -6502054.34545  22988551.0734   22988557.0504
      3558.5634       2772.9064
 98  6 11 20 52 29.9990000  0  7G 5G 6G26G10G17G30G23
   8470227.36544   6600155.31243  24171643.9174   24171653.5194
     -3060.2194      -2384.5864
  -6008555.97747  -4681989.66346  20217042.4564   20217044.2844
      1299.8594       1012.8774
  -9709609.63645  -7413024.86245  22726562.8154   22726567.5734
      2730.8134       2127.9064
   5657586.05446   4408506.94745  22715145.6594   22715149.2454
     -2572.9694      -2004.9114
  -6863457.53647  -5348144.08546  21457820.4174   21457824.2374
      1777.3134       1384.9194
   5329420.98846   4119850.26746  22127070.3314   22127074.4914
     -2534.7814      -1975.1544
  -8646384.69545  -6543614.46545  22978401.9724   22978408.1244
      3552.7344       2768.3644
 98  6 11 20 52 44.9990000  0  7G 5G 6G26G10G17G30G23
   8516140.03044   6635931.26343  24180381.5264   24180389.4174
     -3061.2974      -2385.4264
  -6027988.59447  -4697131.96546  20213344.5894   20213346.4524
      1291.2344       1006.1574
  -9750520.96045  -7444903.77545  22718777.7454   22718781.5194
      2724.1414       2122.7074
   5696229.10546   4438618.39445  22722499.3084   22722502.6834
     -2579.2504      -2009.8054
  -6890081.63547  -5368890.11646  21452754.0504   21452757.9294
      1772.6564       1381.2914
   5367487.74046   4149512.61046  22134314.0424   22134318.3554
     -2540.7194      -1979.7814
  -8699632.00545  -6585105.78745  22968268.9174   22968275.4094
      3547.0314       2763.9204
 98  6 11 20 52 59.9990000  0  7G 5G 6G26G10G17G30G23
   8562066.89544   6671718.27042  24189121.1124   24189131.3704
     -3062.3284      -2386.2304
  -6047293.59847  -4712174.82446  20209671.2764   20209673.1984
      1282.8444        999.6194
  -9791332.69545  -7476705.06845  22711011.3234   22711015.7304
      2717.4224       2117.4724
   5734963.33246   4468800.88345  22729870.2924   22729873.4214
     -2585.2814      -2014.5054
  -6916636.16847  -5389581.94046  21447700.6444   21447704.2414
      1767.9534       1377.6264
   5405644.24646   4179244.89846  22141575.1284   22141579.2304
     -2546.7814      -1984.5054
  -8752794.15745  -6626530.79245  22958152.4804   22958158.6324
      3541.2504       2759.4164
 98  6 11 20 53 14.9990000  0  7G 5G 6G26G10G17G30G23
   8608009.82343   6707517.74442  24197864.2534   24197875.8234
     -3063.4534      -2387.1064
  -6066475.08847  -4727121.44446  20206021.0814   20206022.9804
      1274.6564        993.2394
  -9832043.73345  -7508427.89445  22703264.2304   22703268.6364
      2710.6884       2112.2244
   5773786.61446   4499052.78345  22737257.8474   22737261.0694
     -2591.1874      -2019.1074
  -6943121.48547  -5410219.83846  21442660.7144   21442664.1834
      1763.3914       1374.0714
   5443888.08546   4209045.23946  22148852.8084   22148856.7454
     -2552.4534      -1988.9254
  -8805871.90845  -6667890.00845  22948051.7534   22948057.2964
      3535.7974       2755.1664
 98  6 11 20 53 29.9990000  0  7G 5G 6G26G10G17G30G23
   8653971.92343   6743332.24241  24206609.5344   24206615.9094
     -3064.7974      -2388.1534
  -6085532.12647  -4741971.08746  20202394.5344   20202396.4444
      1266.3444        986.7614
  -9872649.56945  -7540068.74945  22695537.2224   22695542.6714
      2703.4224       2106.5634
   5812698.79846   4529373.93545  22744662.6204   22744666.5224
     -2596.9534      -2023.6004
  -6969535.66847  -5430802.30446  21437634.3624   21437637.9834
      1758.5634       1370.3084
   5482219.32346   4238913.68146  22156146.7374   22156150.6984
     -2558.3284      -1993.5024
  -8858866.10445  -6709184.11945  22937967.5974   22937973.8194
      3530.1564       2750.7714
 98  6 11 20 53 44.9990000  0  7G 5G 6G26G10G17G30G23
   8699955.13343   6779163.16242  24215360.4334   24215369.1794
     -3066.2034      -2389.2494
  -6104464.17647  -4756723.33646  20198792.0894   20198793.9764
      1258.0314        980.2844
  -9913144.94245  -7571623.51245  22687831.2454   22687836.3664
      2696.0314       2100.8044
   5851696.59946   4559761.81045  22752083.9094   22752087.4484
     -2602.6724      -2028.0564
  -6995877.49747  -5451328.37946  21432621.7924   21432625.2144
      1753.7664       1366.5714
   5520640.82646   4268852.46046  22163458.3084   22163462.3394
     -2564.4694      -1998.2874
  -8911774.83245  -6750411.63945  22927899.0974   22927904.5934
      3524.4064       2746.2914
 98  6 11 20 53 59.9990000  0  7G 5G 6G26G10G17G30G23
   8745957.68743   6815009.13141  24224114.9014   24224122.6164
     -3067.4224      -2390.1994
  -6123274.60847  -4771380.81046  20195212.6124   20195214.5934
      1250.0474        974.0634
  -9953532.08045  -7603093.96545  22680145.7534   22680150.8974
      2688.9694       2095.3004
   5890776.52446   4590213.67645  22759520.5584   22759523.8394
     -2607.8914      -2032.1234
  -7022149.99047  -5471800.43646  21427622.2764   21427625.7104
      1749.2974       1363.0884
   5559151.87246   4298861.01546  22170786.8554   22170791.0384
     -2570.2974      -2002.8294
  -8964599.50545  -6791573.64245  22917847.9094   22917853.9444
      3518.8754       2741.9814
 98  6 11 20 54 14.9990000  0  7G 5G 6G26G10G17G30G23
   8791979.94043   6850870.49942  24232872.5114   24232882.9804
     -3068.7664      -2391.2464
  -6141963.16847  -4785943.31946  20191656.2374   20191658.2764
      1241.7814        967.6224
  -9993811.19045  -7634480.23245  22672480.9954   22672486.2454
      2681.6094       2089.5664
   5929934.86246   4620726.65045  22766971.9724   22766975.6634
     -2613.2194      -2036.2744
  -7048354.84547  -5492219.78746  21422635.4954   21422638.9644
      1744.7034       1359.5094
   5597752.42846   4328939.30246  22178132.4094   22178136.7224
     -2576.4374      -2007.6144
  -9017337.83445  -6832668.35745  22907811.2454   22907817.8084
      3512.9384       2737.3544
 98  6 11 20 54 29.9990000  0  7G 5G 6G26G10G17G30G23
   8838020.79643   6886746.29142  24241633.7454   24241644.7534
     -3070.0474      -2392.2444
  -6160527.17247  -4800408.77346  20188123.5654   20188125.2414
      1233.2974        961.0114
 -10033979.17545  -7665779.88645  22664836.6054   22664842.2064
      2674.0474       2083.6734
   5969171.84846   4651300.89445  22774438.6904   22774441.6204
     -2618.4064      -2040.3174
  -7074490.50147  -5512585.21546  21417662.0114   21417665.6674
      1740.0314       1355.8694
   5636445.01246   4359089.31946  22185495.2224   22185499.3234
     -2582.5784      -2012.3994
  -9069985.61145  -6873692.55845  22897793.0194   22897798.9254
      3506.6724       2732.4724
 98  6 11 20 54 44.9990000  0  7G 5G 6G26G10G17G30G23
   8884076.68842   6922633.87041  24250397.5814   24250407.0074
     -3070.9224      -2392.9264
  -6178967.49247  -4814777.85246  20184614.4724   20184616.3944
      1225.1564        954.6674
 -10074038.54045  -7696994.90745  22657214.0894   22657218.9874
      2666.9844       2078.1704
   6008482.99446   4681932.93545  22781919.2374   22781922.7064
     -2623.3754      -2044.1884
  -7100559.81947  -5532898.94946  21412701.2454   21412704.8434
      1735.6414       1352.4474
   5675225.63446   4389307.93046  22192874.8704   22192878.7614
     -2588.4534      -2016.9764
  -9122542.90745  -6914646.21445  22887791.3154   22887797.4804
      3500.7344       2727.8454
 98  6 11 20 54 59.9990000  0  7G 5G 6G26G10G17G30G23
   8930148.13542   6958533.47341  24259165.6834   24259179.0934
     -3072.0474      -2393.8034
  -6197283.36647  -4829049.96246  20181128.8864   20181130.9014
      1216.9064        948.2394
 -10113989.38345  -7728125.37245  22649611.7374   22649616.8584
      2659.7344       2072.5204
   6047870.42746   4712624.41945  22789414.5814   22789418.0624
     -2628.3754      -2048.0844
  -7126560.25747  -5553159.01446  21407753.3784   21407757.0814
      1730.9694       1348.8074
   5714096.96446   4419597.22546  22200271.8624   22200275.8824
     -2594.4844      -2021.6764
  -9175009.61845  -6955529.31045  22877807.5114   22877813.2184
      3494.7504       2723.1824
 98  6 11 20 55 14.9990000  0  8G 5G 6G26G10G22G17G30G23
   8976239.56542   6994448.75041  24267936.4724   24267944.7264
     -3073.5624      -2394.9844
  -6215476.96947  -4843226.79246  20177666.6834   20177668.7334
      1208.7664        941.8954
 -10153831.14645  -7759170.83445  22642030.0194   22642034.8584
      2652.4064       2066.8104
   6087334.35846   4743375.52145  22796924.0264   22796927.7414
     -2633.6414      -2052.1874
    -21343.07253                  24399814.9014
      2665.9384
  -7152489.86347  -5573363.88446  21402819.2534   21402823.0624
      1726.1884       1345.0814
   5753057.23846   4449955.81246  22207686.0194   22207690.2724
     -2600.2504      -2026.1694
  -9227386.68645  -6996342.56345  22867840.6054   22867846.3124
      3488.7664       2718.5194
 98  6 11 20 55 29.9990000  0  8G 5G 6G26G10G22G17G30G23
   9022353.98843   7030381.86741  24276712.5264   24276719.7614
     -3074.9064      -2396.0314
  -6233544.26347  -4857305.19746  20174228.7224   20174230.7144
      1200.2664        935.2724
 -10193560.79546  -7790128.93845  22634469.8784   22634474.3904
      2645.0164       2061.0514
   6126880.75446   4774190.88545  22804449.5974   22804452.9724
     -2639.1414      -2056.4734
    -61269.12543                  24392217.5584
      2657.6094
  -7178345.21947  -5593510.89846  21397899.1364   21397902.7334
      1721.2664       1341.2464
   5792104.44146   4480382.14946  22215116.4014   22215120.4804
     -2606.0004      -2030.6494
  -9279673.47045  -7037085.45145  22857890.6674   22857896.4804
      3482.8914       2713.9414
 98  6 11 20 55 44.9990000  0  8G 5G 6G26G10G22G17G30G23
   9068485.05543   7066328.05541  24285490.8004   24285500.7184
     -3075.8914      -2396.7984
  -6251484.40747  -4871284.52546  20170814.8474   20170816.7574
      1191.7974        928.6734
 -10233182.27645  -7821002.76345  22626929.7454   22626934.6444
      2637.9064       2055.5114
   6166507.88146   4805069.12745  22811990.3154   22811994.7224
     -2644.4534      -2060.6134
   -101070.68043                  24384643.9484
      2649.2034
  -7204127.81047  -5613601.21146  21392992.8704   21392996.5624
      1716.4384       1337.4844
   5831238.17146   4510875.90246  22222563.6514   22222567.9764
     -2611.7814      -2035.1544
  -9331872.34245  -7077759.83745  22847957.3084   22847962.7104
      3476.9844       2709.3384
 98  6 11 20 55 59.9990000  0  8G 5G 6G26G10G22G17G30G23
   9114632.36742   7102286.85542  24294271.6364   24294286.3704
     -3076.9064      -2397.5894
  -6269296.14547  -4885163.80146  20167425.2454   20167427.1324
      1183.3594        922.0984
 -10272696.02246  -7851792.62445  22619410.6124   22619415.0544
      2630.7974       2049.9724
   6206217.62346   4836011.76345  22819547.2454   22819551.1014
     -2650.0004      -2064.9354
   -140741.54443                  24377093.8704
      2640.4224
  -7229834.55447  -5633632.42346  21388100.7614   21388104.5694
      1711.2974       1333.4784
   5870460.97046   4541439.06946  22230027.2764   22230031.9764
     -2617.7034      -2039.7694
  -9383980.49845  -7118363.52745  22838041.3864   22838046.8354
      3471.0004       2704.6754
 98  6 11 20 56 14.9990000  0  8G 5G 6G26G10G22G17G30G23
   9160795.97342   7138258.31142  24303055.9094   24303068.8274
     -3078.0784      -2398.5024
  -6286982.21747  -4898945.15546  20164059.7374   20164061.4374
      1175.0004        915.5844
 -10312103.22946  -7882499.47645  22611912.0264   22611916.1874
      2623.6724       2044.4204
   6246011.86546   4867020.25445  22827119.6594   22827123.1054
     -2655.6724      -2069.3554
   -180280.25743                  24369570.0504
      2631.5944
  -7255462.33947  -5653602.10146  21383224.2374   21383227.7184
      1705.9064       1329.2784
   5909772.57346   4572071.42146  22237508.1444   22237512.5734
     -2623.5944      -2044.3594
  -9435998.61745  -7158897.07645  22828142.9254   22828148.7144
      3464.9224       2699.9394
 98  6 11 20 56 29.9990000  0  8G 5G 6G26G10G22G17G30G23
   9206975.17243   7174241.86942  24311845.1514   24311856.4174
     -3079.1254      -2399.3184
  -6304545.95547  -4912631.18446  20160717.3864   20160719.0154
      1166.8444        909.2294
 -10351405.50346  -7913124.55845  22604432.8864   22604437.3044
      2616.6724       2038.9654
   6285889.63346   4898093.81545  22834708.2844   22834712.1164
     -2661.3594      -2073.7874
   -219689.36443    -12270.00952  24362070.9014   24362076.5034
      2622.9694       2043.8724
  -7281011.19047  -5673510.27946  21378362.3314   21378365.7884
      1700.6254       1325.1624
   5949168.29946   4602769.34146  22245005.0894   22245009.0384
     -2629.0944      -2048.6444
  -9487928.24145  -7199361.66145  22818260.6594   22818266.3554
      3459.1094       2695.4104
 98  6 11 20 56 44.9990000  0  8G 5G 6G26G10G22G17G30G23
   9253170.81343   7210238.25942  24320635.0654   24320643.8824
     -3080.2194      -2400.1704
  -6321987.44947  -4926221.95246  20157398.6364   20157400.4294
      1158.7504        902.9224
 -10390603.28146  -7943668.21545  22596973.7614   22596978.5074
      2609.7814       2033.5964
   6325853.80146   4929234.69445  22842313.2924   22842316.8664
     -2667.1724      -2078.3164
   -258968.65043    -42877.25842  24354596.3394   24354600.6404
      2614.2814       2037.1024
  -7306479.61947  -5693355.79546  21373515.9724   21373519.6404
      1695.2664       1320.9864
   5988645.48146   4633530.71946  22252517.3084   22252521.2334
     -2634.4224      -2052.7964
  -9539771.65345  -7239759.07945  22808395.0034   22808400.8864
      3453.4384       2690.9904
 98  6 11 20 56 59.9990000  0  8G 5G 6G26G10G22G17G30G23
   9299382.94044   7246247.57042  24329429.4724   24329436.9524
     -3081.3444      -2401.0474
  -6339308.03847  -4939718.51646  20154102.4724   20154104.0424
      1150.7194        896.6644
 -10429698.35346  -7974131.85045  22589533.6984   22589538.3394
      2602.8914       2028.2264
   6365907.34446   4960445.24445  22849935.1674   22849938.8234
     -2673.2504      -2083.0524
   -298117.05244    -73382.48542  24347146.3004   24347149.3354
      2605.5784       2030.3214
  -7331867.62747  -5713138.63246  21368684.7064   21368688.5154
      1689.8594       1316.7744
   6028202.74446   4664354.50846  22260044.8234   22260048.9254
     -2639.8754      -2057.0454
  -9591530.47845  -7280090.54345  22798545.6444   22798551.6444
      3447.7664       2686.5714
 98  6 11 20 57 14.9990000  0  8G 5G 6G26G10G22G17G30G23
   9345610.90943   7282269.19842  24338226.1054   24338235.8584
     -3082.3914      -2401.8634
  -6356507.95747  -4953121.04646  20150829.3554   20150831.2184
      1142.5944        890.3334
 -10468691.01746  -8004515.68245  22582113.6364   22582118.7224
      2596.1094       2022.9424
   6406050.09146   4991725.27145  22857573.9644   22857578.3584
     -2679.1724      -2087.6664
   -337137.61044   -103788.17842  24339721.3154   24339721.3394
      2597.1414       2023.7464
  -7357175.86647  -5732859.32446  21363868.9404   21363872.6204
      1684.5784       1312.6584
   6067839.89746   4695240.53246  22267587.5734   22267591.7224
     -2645.0944      -2061.1124
  -9643204.40045  -7320355.90145  22788712.2374   22788717.7804
      3442.0004       2682.0784
 98  6 11 20 57 29.9990000  0  8G 5G 6G26G10G22G17G30G23
   9391853.37743   7318302.13243  24347026.3784   24347036.2964
     -3083.0944      -2402.4114
  -6373585.46847  -4966428.19946  20147579.8004   20147581.5934
      1134.4694        884.0024
 -10507581.46345  -8034819.83045  22574713.1204   22574717.9014
      2589.3594       2017.6834
   6446282.08746   5023074.85645  22865229.8474   22865234.0194
     -2684.9534      -2092.1714
   -376031.79843   -134095.36644  24332320.1674   24332323.9294
      2588.8444       2017.2814
  -7382406.42147  -5752519.47446  21359067.3784   21359070.8124
      1679.6094       1308.7874
   6107556.46146   4726188.43946  22275145.3554   22275149.8314
     -2650.4064      -2065.2524
  -9694790.03345  -7360552.44445  22778895.7454   22778901.5224
      3436.1564       2677.5244
 98  6 11 20 57 44.9990000  0  8G 5G 6G26G10G22G17G30G23
   9438103.91244   7354341.27442  24355828.0424   24355839.1204
     -3083.6564      -2402.8494
  -6390541.03147  -4979640.32446  20144353.2844   20144355.1594
      1126.3444        877.6704
 -10546369.73345  -8065044.43745  22567331.8944   22567336.3704
      2582.4224       2012.2774
   6486597.19046   5054489.19645  22872901.6674   22872905.4524
     -2690.3124      -2096.3474
   -414801.73344   -164305.54742  24324942.5654   24324944.2304
      2580.4534       2010.7434
  -7407564.60647  -5772123.24546  21354279.8554   21354283.2764
      1674.8914       1305.1104
   6147355.09546   4757200.29046  22282719.0114   22282723.0654
     -2656.0944      -2069.6834
  -9746287.80945  -7400680.51345  22769095.9174   22769101.8944
      3430.1884       2672.8734
 98  6 11 20 57 59.9990000  0  8G 5G 6G26G10G22G17G30G23
   9484361.70344   7390386.17343  24364630.5194   24364640.7414
     -3084.0944      -2403.1904
  -6407378.21747  -4992760.20846  20141149.3234   20141151.3274
      1118.6564        871.6804
 -10585055.12345  -8095188.81945  22559970.4254   22559974.7964
      2575.6094       2006.9684
   6526988.98346   5085963.29845  22880587.9174   22880591.0114
     -2695.2814      -2100.2194
   -453445.11944   -194417.18743  24317588.5584   24317594.4764
      2571.9844       2004.1444
  -7432654.62747  -5791673.89346  21349505.4644   21349509.1084
      1670.4844       1301.6764
   6187237.62046   4788277.52846  22290308.1514   22290311.9604
     -2661.5474      -2073.9334
  -9797694.86445  -7440737.91945  22759313.9174   22759319.5424
      3424.0784       2668.1134
 98  6 11 20 58 14.9990000  0  8G 5G 6G26G10G22G17G30G23
   9530630.26744   7426439.40043  24373434.9254   24373445.0074
     -3084.7974      -2403.7384
  -6424097.82447  -5005788.47246  20137967.5424   20137969.3474
      1110.8134        865.5684
 -10623634.57345  -8125250.66845  22552628.8154   22552632.8584
      2568.5474       2001.4654
   6567458.61946   5117498.06445  22888289.0504   22888292.5654
     -2700.4224      -2104.2254
   -491960.04344   -224428.86043  24310258.7844   24310264.0584
      2563.6094       1997.6184
  -7457677.06947  -5811171.88246  21344743.9564   21344747.7884
      1666.1564       1298.3044
   6227203.79546   4819419.93346  22297913.7614   22297917.9564
     -2667.0004      -2078.1824
  -9849008.66845  -7480722.65045  22749549.2694   22749555.3514
      3418.0004       2663.3774
 98  6 11 20 58 29.9990000  0  8G 5G 6G26G10G22G17G30G23
   9576911.23345   7462502.30744  24382242.2374   24382254.0774
     -3085.8284      -2404.5414
  -6440695.36947  -5018721.62046  20134809.1594   20134810.9994
      1102.2664        858.9084
 -10662105.10946  -8155227.66245  22545308.3554   22545312.7964
      2560.9844       1995.5724
   6608006.36246   5149093.69345  22896004.9874   22896008.5974
     -2705.7344      -2108.3644
   -530347.76244   -254341.34742  24302954.1984   24302959.5774
      2554.8914       1990.8244
  -7482634.54547  -5830619.24646  21339994.7064   21339998.1754
      1661.6414       1294.7854
   6267251.96646   4850626.23946  22305534.6594   22305538.9014
     -2672.6094      -2082.5534
  -9900227.87045  -7520633.65845  22739802.4484   22739808.0504
      3411.3754       2658.2144
 98  6 11 20 58 44.9990000  0  8G 5G 6G26G10G22G17G30G23
   9623200.79345   7498571.91443  24391051.5504   24391061.6204
     -3086.2194      -2404.8464
  -6457167.65047  -5031557.16946  20131674.5114   20131676.4564
      1093.8594        852.3584
 -10700466.31446  -8185119.43145  22538008.1834   22538012.7414
      2553.7034       1989.8994
   6648626.77746   5180745.93445  22903734.6284   22903738.8824
     -2710.4534      -2112.0414
   -568609.19044   -284155.44542  24295673.5894   24295680.2224
      2546.4224       1984.2254
  -7507530.05247  -5850018.32946  21335257.3474   21335260.6634
      1657.6254       1291.6564
   6307380.48246   4881895.15046  22313170.9094   22313175.2804
     -2678.0944      -2086.8264
  -9951352.87546  -7560471.26945  22730073.7614   22730079.4444
      3405.1414       2653.3564
 98  6 11 20 58 59.9990000  0  8G 5G 6G26G10G22G17G30G23
   9669496.35645   7534646.23843  24399861.5264   24399871.5974
     -3086.6564      -2405.1874
  -6473512.17247  -5044293.15346  20128564.2224   20128566.0154
      1085.2814        845.6744
 -10738716.59846  -8214924.78045  22530729.0264   22530733.4214
      2546.1884       1984.0424
   6689318.45146   5212453.71145  22911478.1904   22911482.3624
     -2715.1874      -2115.7314
   -606740.06244   -313867.78542  24288416.7534   24288422.8944
      2537.5474       1977.3094
  -7532364.50847  -5869369.83946  21330531.2224   21330534.5504
      1653.5634       1288.4904
   6347595.78446   4913231.68646  22320823.9644   22320828.6164
     -2684.0624      -2091.4774
 -10002381.42146  -7600233.71445  22720363.5034   22720368.9054
      3398.5164       2648.1944
 98  6 11 20 59 14.9990000  0  8G 5G 6G26G10G22G17G30G23
   9715798.11744   7570725.35943  24408672.0344   24408681.3194
     -3087.0474      -2405.4914
  -6489729.18147  -5056929.78246  20125478.4954   20125480.4524
      1076.8594        839.1114
 -10776852.83845  -8244641.27745  22523472.1754   22523476.4404
      2538.5004       1978.0524
   6730078.28346   5244214.58545  22919234.4954   22919238.6904
     -2719.5004      -2119.0914
   -644738.64644   -343477.02242  24281186.6754   24281192.6754
      2528.8284       1970.5154
  -7557139.72747  -5888675.18946  21325816.9094   21325820.2494
      1649.6724       1285.4594
   6387900.57546   4944637.95346  22328493.1984   22328497.5464
     -2690.0474      -2096.1404
 -10053311.03145  -7639919.07545  22710671.4174   22710677.6404
      3391.9694       2643.0934
 98  6 11 20 59 29.9990000  0  8G 5G 6G26G10G22G17G30G23
   9762105.75944   7606809.10842  24417483.5974   24417493.4564
     -3087.3444      -2405.7224
  -6505819.70147  -5069467.85346  20122416.5974   20122418.3554
      1068.6094        832.6834
 -10814872.95245  -8274267.27745  22516237.0894   22516241.2614
      2530.7814       1972.0374
   6770900.28346   5276023.92345  22927002.8624   22927006.4254
     -2723.5004      -2122.2084
   -682605.95144   -372984.00342  24273980.3554   24273985.8744
      2520.1254       1963.7344
  -7581855.42047  -5907934.15846  21321113.4174   21321116.8624
      1645.7034       1282.3664
   6428294.58746   4976113.74346  22336180.2694   22336184.8044
     -2695.8754      -2100.6824
 -10104141.65645  -7679527.28845  22700998.4804   22701004.5384
      3385.4064       2637.9794
 98  6 11 20 59 44.9990000  0  8G 5G 6G26G10G22G17G30G23
   9808419.60943   7642897.59842  24426297.3084   24426307.0854
     -3087.9534      -2406.1974
  -6521787.93347  -5081910.62646  20119377.7374   20119379.4014
      1060.3754        826.2664
 -10852774.60545  -8303800.97745  22509024.6984   22509029.1054
      2522.6724       1965.7184
   6811782.60546   5307880.25245  22934782.2924   22934786.1244
     -2727.5784      -2125.3864
   -720342.40544   -402389.02742  24266800.0734   24266807.1444
      2511.2974       1956.8554
  -7606510.00547  -5927145.51046  21316421.6204   21316425.2064
      1641.4224       1279.0304
   6468777.55646   5007658.84846  22343883.8154   22343888.2334
     -2701.9374      -2105.4064
 -10154873.71345  -7719058.71545  22691344.8394   22691350.6054
      3378.7664       2632.8044
 98  6 11 20 59 59.9990000  0  8G 5G 6G26G10G22G17G30G23
   9854742.99144   7678993.60442  24435112.9874   24435120.4444
     -3088.5784      -2406.6844
  -6537633.28647  -5094257.65246  20116362.5264   20116364.1674
      1052.3284        819.9964
 -10890555.16745  -8333240.30545  22501835.0584   22501839.2764
      2514.7504       1959.5454
   6852726.63546   5339784.64845  22942574.0584   22942577.8664
     -2731.7034      -2128.6004
   -757946.25744   -431690.67943  24259644.4874   24259650.2414
      2502.5474       1950.0374
  -7631098.69947  -5946305.51146  21311742.7924   21311746.4254
      1637.0004       1275.5844
   6509349.27346   5039273.10246  22351604.6364   22351609.1474
     -2707.6094      -2109.8254
 -10205507.60645  -7758513.65045  22681709.4564   22681715.4444
      3372.3754       2627.8254
 98  6 11 21  0 14.9990000  0  8G 5G 6G26G10G22G17G30G23
   9901077.58943   7715098.33343  24443930.2224   24443939.6244
     -3089.2504      -2407.2084
  -6553356.47247  -5106509.48546  20113370.5034   20113372.3664
      1044.1884        813.6534
 -10928216.67446  -8362586.88045  22494668.2694   22494672.1124
      2506.9064       1953.4334
   6893735.62946   5371739.70745  22950377.3864   22950380.5154
     -2736.0784      -2132.0094
   -795419.01044   -460890.26443  24252513.4404   24252517.5424
      2494.0004       1943.3774
  -7655617.70447  -5965411.21646  21307076.8704   21307080.4914
      1632.2974       1271.9204
   6550005.46946   5070953.18246  22359340.9484   22359344.9094
     -2713.0624      -2114.0754
 -10256045.75845  -7797893.98245  22672092.3624   22672098.3044
      3366.2814       2623.0764
 98  6 11 21  0 29.9990000  0  8G 5G 6G26G10G22G17G30G23
   9947424.70443   7751212.77442  24452749.9404   24452759.5544
     -3090.2194      -2407.9634
  -6568953.66047  -5118663.13646  20110402.5264   20110404.2964
      1035.5474        806.9204
 -10965757.99346  -8391839.79345  22487524.3944   22487528.0974
      2498.7814       1947.1024
   6934811.72846   5403747.01745  22958194.1834   22958197.4764
     -2740.6414      -2135.5644
   -832762.47544   -489989.02042  24245407.0114   24245412.4484
      2485.1884       1936.5104
  -7680063.38247  -5984459.77846  21302425.0424   21302428.7924
      1627.1884       1267.9384
   6590744.24946   5102697.63245  22367093.5654   22367097.3514
     -2718.6724      -2118.4464
 -10306492.31045  -7837202.92745  22662492.4564   22662498.4444
      3359.9694       2618.1574
 98  6 11 21  0 44.9990000  0  8G 5G 6G26G10G22G17G30G23
   9993780.26843   7787333.85142  24461571.0194   24461578.4174
     -3090.8284      -2408.4374
  -6584425.56147  -5130719.15646  20107458.3704   20107460.3744
      1027.1414        800.3694
 -11003182.43446  -8421001.63445  22480402.9724   22480406.3354
      2490.8914       1940.9544
   6975952.49145   5435804.73845  22966022.6904   22966026.1014
     -2745.0784      -2139.0224
   -869976.64444   -518987.02542  24238325.2764   24238331.1594
      2476.4694       1929.7164
  -7704435.13847  -6003450.74546  21297787.4254   21297791.1754
      1622.1254       1263.9944
   6631563.61946   5134504.86545  22374860.9334   22374865.5384
     -2724.2194      -2122.7684
 -10356846.07545  -7876439.58145  22652910.3234   22652915.9374
      3353.6414       2613.2264
 98  6 11 21  0 59.9990000  0  8G 5G 6G26G10G22G17G30G23
  10040145.68342   7823462.59242  24470394.6904   24470401.1714
     -3091.3594      -2408.8514
  -6599773.78247  -5142678.80546  20104537.5344   20104539.3974
      1019.1724        794.1604
 -11040490.18446  -8450072.54745  22473303.5734   22473307.4404
      2483.3444       1935.0734
   7017161.71445   5467915.79545  22973864.7454   22973868.2144
     -2749.6564      -2142.5894
   -907061.57644   -547884.37442  24231267.9874   24231273.1794
      2468.0784       1923.1784
  -7728731.61547  -6022383.05746  21293163.7764   21293167.6324
      1617.2974       1260.2314
   6672467.11346   5166377.65245  22382645.1594   22382649.6594
     -2729.6874      -2127.0294
 -10407106.67945  -7915603.62345  22643346.0264   22643351.4174
      3347.6884       2608.5884
 98  6 11 21  1 14.9990000  0  8G 5G 6G26G10G22G17G30G23
  10086523.67942   7859601.07541  24479219.9484   24479230.7104
     -3092.5164      -2409.7524
  -6615000.91747  -5154544.10246  20101640.0734   20101641.8904
      1010.9534        787.7564
 -11077682.24246  -8479053.31445  22466225.9804   22466230.5974
      2475.4534       1928.9254
   7058443.33345   5500083.26145  22981720.2924   22981724.8154
     -2754.6724      -2146.4984
   -944019.67644   -576682.90142  24224235.3554   24224238.6364
      2459.5784       1916.5544
  -7752952.81147  -6041256.69746  21288554.5264   21288558.0424
      1612.0784       1256.1654
   6713453.12946   5198314.73945  22390444.5734   22390449.1204
     -2735.1564      -2131.2914
 -10457275.81046  -7954696.39645  22633799.1984   22633804.6474
      3341.4384       2603.7184
 98  6 11 21  1 29.9990000  0  8G 5G 6G26G10G22G17G30G23
  10132918.32341   7895752.61241  24488048.6754   24488065.2024
     -3093.4694      -2410.4954
  -6630104.82347  -5166313.38446  20098765.9404   20098767.7104
      1002.7814        781.3884
 -11114756.83446  -8507942.53145  22459170.9094   22459175.6674
      2467.7814       1922.9464
   7099799.87046   5532309.10045  22989590.2924   22989593.5854
     -2759.6094      -2150.3454
   -980851.84344   -605383.23142  24217226.4874   24217233.3944
      2451.2974       1910.1014
  -7777095.95747  -6060069.52546  21283960.3314   21283963.7884
      1606.8914       1252.1234
   6754519.84546   5230314.71745  22398259.3554   22398263.8194
     -2740.4844      -2135.4424
 -10507352.18946  -7993716.91845  22624269.9724   22624275.4564
      3335.3134       2598.9454
 98  6 11 21  1 44.9990000  0  8G 5G 6G26G10G22G17G30G23
  10179325.54942   7931913.95941  24496879.1514   24496890.8624
     -3094.3124      -2411.1534
  -6645085.43347  -5177986.58246  20095915.1364   20095916.8004
       994.5164        774.9474
 -11151718.84446  -8536744.04245  22452137.2614   22452141.7724
      2460.3134       1917.1274
   7141230.56446   5564592.73645  22997474.4014   22997478.1634
     -2764.6564      -2154.2784
  -1017559.65844   -633986.70942  24210240.9564   24210246.5584
      2442.9224       1903.5754
  -7801161.34847  -6078821.76646  21279380.8704   21279384.6204
      1601.7034       1248.0804
   6795665.41346   5262376.12445  22406088.9874   22406093.5464
     -2745.7974      -2139.5824
 -10557336.54446  -8032665.70645  22614758.3944   22614763.7614
      3329.1884       2594.1724
 98  6 11 21  1 59.9990000  0  8G 5G 6G26G10G22G17G30G23
  10225744.58742   7968084.39141  24505713.1204   24505719.6244
     -3095.0944      -2411.7614
  -6659939.97247  -5189561.54946  20093088.3394   20093089.9914
       985.7814        768.1414
 -11188568.71946  -8565458.16145  22445124.7614   22445129.2494
      2452.8284       1911.2954
   7182737.34145   5596935.65045  23005373.1834   23005376.7334
     -2769.8444      -2158.3204
  -1054141.52144   -662492.06542  24203279.8704   24203284.1714
      2434.4064       1896.9404
  -7825150.55547  -6097514.63646  21274815.8704   21274819.2574
      1596.6414       1244.1364
   6836890.83446   5294499.76145  22413933.9804   22413938.9374
     -2751.1414      -2143.7464
 -10607231.80646  -8071545.07045  22605263.0194   22605268.8314
      3323.2504       2589.5454
 98  6 11 21  2 14.9990000  0  7G 6G26G10G22G17G30G23
  -6674660.57947  -5201032.14946  20090287.3004   20090289.1514
       976.8284        761.1654
 -11225306.48746  -8594084.93245  22438133.8554   22438138.0734
      2445.3594       1905.4754
   7224324.20745   5629340.96945  23013286.6444   23013290.8974
     -2775.2194      -2162.5084
  -1090595.11244   -690897.39942  24196343.2224   24196350.1514
      2425.9384       1890.3414
  -7849064.95747  -6116149.21946  21270265.1674   21270268.6014
      1591.8754       1240.4224
   6878196.69246   5326686.07245  22421794.3554   22421799.5814
     -2756.4534      -2147.8864
 -10657036.39046  -8110353.78145  22595786.3784   22595792.0974
      3317.1884       2584.8214
 98  6 11 21  2 29.9990000  0  7G 6G26G10G22G17G30G23
  -6689245.65747  -5212397.14446  20087511.6754   20087513.7144
       967.6724        754.0304
 -11261929.87246  -8622622.56545  22431164.2374   22431168.5384
      2437.6094       1899.4364
   7265991.35245   5661808.85545  23021215.8154   23021219.8124
     -2780.5474      -2166.6604
  -1126920.31844   -719202.73442  24189430.7064   24189438.3274
      2417.2194       1883.5474
  -7872908.53647  -6134728.62246  21265727.9254   21265731.3704
      1587.1884       1236.7694
   6919582.46846   5358934.65645  22429669.5034   22429674.3194
     -2761.8124      -2152.0624
 -10706748.06046  -8149090.10245  22586326.3864   22586332.1284
      3310.8444       2579.8784
 98  6 11 21  2 44.9990000  0  7G 6G26G10G22G17G30G23
  -6703694.89147  -5223656.28546  20084762.0504   20084764.0074
       958.8754        747.1754
 -11298437.92846  -8651070.35045  22424217.5344   22424222.0114
      2430.1254       1893.6044
   7307738.37745   5694338.95645  23029159.9254   23029163.5344
     -2785.7814      -2170.7394
  -1163114.38144   -747405.90342  24182543.4014   24182548.0654
      2408.5784       1876.8144
  -7896683.55247  -6153254.59446  21261203.6674   21261207.1244
      1582.7664       1233.3244
   6961048.63946   5391245.88045  22437560.7064   22437565.0654
     -2767.0474      -2156.1404
 -10756362.45046  -8187750.61745  22576885.1054   22576891.0224
      3304.3754       2574.8384
 98  6 11 21  2 59.9990000  0  7G 6G26G10G22G17G30G23
  -6718008.47847  -5234809.73746  20082038.3624   20082040.4834
       949.6094        739.9554
 -11334828.29646  -8679426.41845  22417292.3314   22417296.4684
      2421.8914       1887.1884
   7349568.44145   5726933.79345  23037119.9644   23037123.8434
     -2791.5624      -2175.2444
  -1199175.55544   -775505.51942  24175680.4804   24175686.2924
      2399.6094       1869.8254
  -7920387.87247  -6171725.47846  21256692.8314   21256696.3234
      1577.8284       1229.4764
   7002597.78746   5423621.77445  22445467.0584   22445471.5814
     -2772.7974      -2160.6214
 -10805876.94145  -8226333.29145  22567462.2144   22567467.9214
      3297.6254       2569.5784
 98  6 11 21  3 14.9990000  0  7G 6G26G10G22G17G30G23
  -6732185.49447  -5245856.76646  20079340.5584   20079342.2574
       940.6564        732.9794
 -11371096.88946  -8707687.60345  22410390.3004   22410394.0504
      2413.9384       1880.9904
   7391482.32945   5759593.94545  23045095.7454   23045099.6594
     -2796.8914      -2179.3954
  -1235105.36744   -803502.73642  24168842.9564   24168847.9954
      2391.0004       1863.1174
  -7944020.36547  -6190140.38746  21252195.7374   21252199.2414
      1573.2034       1225.8734
   7044229.15046   5456061.72445  22453389.4404   22453393.7304
     -2777.9374      -2164.6274
 -10855295.10546  -8264840.88145  22558058.1834   22558063.3864
      3291.4384       2564.7564
 98  6 11 21  3 29.9990000  0  7G 6G26G10G22G17G30G23
  -6746225.08847  -5256796.71046  20076668.8944   20076670.4524
       931.5944        725.9174
 -11407243.72546  -8735853.90645  22403512.1054   22403516.4764
      2405.8914       1874.7204
   7433477.15745   5792317.15745  23053087.4874   23053091.5654
     -2802.1254      -2183.4744
  -1270901.64144   -831395.96242  24162031.7224   24162035.2264
      2382.1094       1856.1894
  -7967580.88447  -6208499.22146  21247712.3084   21247715.7884
      1568.5164       1222.2204
   7085937.82146   5488561.91745  22461326.3474   22461330.8944
     -2782.9064      -2168.4984
 -10904616.38046  -8303272.98545  22548672.8234   22548678.4954
      3285.0164       2559.7524
 98  6 11 21  3 44.9990000  0  7G 6G26G10G22G17G30G23
  -6760129.83447  -5267631.57246  20074022.9804   20074024.8084
       922.3444        718.7094
 -11443269.67346  -8763926.01945  22396656.4014   22396660.2804
      2397.5164       1868.1944
   7475549.36845   5825100.66945  23061093.4874   23061097.3664
     -2807.5164      -2187.6754
  -1306565.09944   -859185.61142  24155245.1834   24155250.4914
      2372.9844       1849.0794
  -7991072.52147  -6226804.37546  21243242.2144   21243245.6594
      1563.6724       1218.4464
   7127719.10646   5521118.68345  22469277.4644   22469282.2804
     -2787.9064      -2172.3944
 -10953843.30445  -8341631.57645  22539305.3474   22539310.8084
      3278.5634       2554.7244
 98  6 11 21  3 59.9990000  0  7G 6G26G10G22G17G30G23
  -6773896.86047  -5278359.12546  20071402.9094   20071404.6444
       913.2344        711.6114
 -11479170.69646  -8791900.78845  22389825.0194   22389828.7694
      2389.2194       1861.7294
   7517702.08645   5857946.91045  23069114.7374   23069118.9914
     -2812.9064      -2191.8754
  -1342092.33344   -886869.19942  24148483.9724   24148489.0934
      2363.9694       1842.0544
  -8014492.49447  -6245053.69246  21238785.3004   21238788.8974
      1559.0004       1214.8054
   7169572.43246   5553731.59645  22477241.9254   22477246.0854
     -2792.5624      -2176.0234
 -11002975.73945  -8379916.52745  22529955.4404   22529961.5694
      3272.3914       2549.9154
 98  6 11 21  4 14.9990000  0  7G 6G26G10G22G17G30G23
  -6787525.32847  -5288978.70846  20068809.5034   20068811.3784
       904.0634        704.4644
 -11514945.58646  -8819777.26845  22383016.9014   22383020.7694
      2380.8444       1855.2034
   7559936.49845   5890856.80845  23077152.1364   23077156.4954
     -2818.2504      -2196.0394
  -1377483.43444   -914446.65342  24141750.5654   24141756.8354
      2354.9064       1834.9924
  -8037841.96747  -6263248.06846  21234342.0264   21234345.4374
      1554.2974       1211.1404
   7211495.37246   5586398.75245  22485219.3944   22485223.4954
     -2797.0944      -2179.5544
 -11052012.02346  -8418126.57945  22520624.2374   22520629.5934
      3265.7814       2544.7654
 98  6 11 21  4 29.9990000  0  7G 6G26G10G22G17G30G23
  -6801019.47847  -5299493.63146  20066241.7764   20066243.8744
       895.2034        697.5614
 -11550592.47046  -8847554.00945  22376233.5654   22376237.4564
      2372.0784       1848.3734
   7602251.00645   5923829.12545  23085204.1444   23085208.4804
     -2823.6094      -2200.2154
  -1412737.28244   -941917.18242  24135040.8944   24135045.0544
      2345.5784       1827.7234
  -8061119.68147  -6281386.53046  21229912.3864   21229915.8314
      1549.3284       1207.2694
   7253486.64746   5619119.15245  22493210.1054   22493214.8394
     -2801.7344      -2183.1704
 -11100947.13846  -8456257.77845  22511312.0894   22511317.2334
      3258.8914       2539.3954
 98  6 11 21  4 44.9990000  0  7G 6G26G10G22G17G30G23
  -6814383.71347  -5309907.31546  20063698.7614   20063700.8584
       886.6414        690.8894
 -11586110.79346  -8875230.56645  22369474.5344   22369477.8394
      2363.7194       1841.8594
   7644642.15845   5956861.15845  23093271.2924   23093275.9444
     -2828.5944      -2204.0994
  -1447851.47444   -969278.86342  24128359.5584   24128365.1834
      2336.2974       1820.4914
  -8084321.85147  -6299466.13346  21225497.0814   21225500.4684
      1544.2504       1203.3124
   7295545.47446   5651892.19145  22501213.5654   22501218.1244
     -2806.2194      -2186.6644
 -11149780.50645  -8494309.70145  22502019.3234   22502024.9254
      3252.1884       2534.1724
 98  6 11 21  4 59.9990000  0  7G 6G26G10G22G17G30G23
  -6827619.49847  -5320220.91046  20061180.1754   20061182.0624
       878.0784        684.2174
 -11621503.83746  -8902809.50845  22362739.2844   22362742.7064
      2355.3134       1835.3084
   7687107.98845   5989951.38845  23101352.2694   23101355.7844
     -2833.4844      -2207.9104
  -1482827.41444   -996532.86443  24121703.1054   24121708.7884
      2327.1884       1813.3934
  -8107446.98147  -6317485.69846  21221096.6834   21221100.2454
      1539.1094       1199.3064
   7337672.87446   5684718.65545  22509230.2534   22509235.5154
     -2810.7664      -2190.2074
 -11198513.02646  -8532283.02645  22492745.7064   22492751.6124
      3245.5164       2528.9734
 98  6 11 21  5 14.9990000  0  7G 6G26G10G22G17G30G23
  -6840726.31747  -5330434.01746  20058685.9804   20058687.7964
       869.4384        677.4844
 -11656771.37046  -8930290.64645  22356028.2144   22356032.3394
      2346.9694       1828.8074
   7729645.74745   6023097.65745  23109446.4254   23109450.2334
     -2838.2814      -2211.6484
  -1517667.37744  -1023680.87342  24115073.2304   24115078.8664
      2318.0314       1806.2584
  -8130497.09647  -6335446.80846  21216710.3154   21216713.8904
      1534.1724       1195.4594
   7379868.44746   5717598.25845  22517259.9644   22517264.6984
     -2815.4064      -2193.8234
 -11247145.89246  -8570178.71745  22483491.2144   22483497.3084
      3238.7974       2523.7384
 98  6 11 21  5 29.9990000  0  7G 6G26G10G22G17G30G23
  -6853704.44347  -5340546.84046  20056216.0814   20056217.7694
       860.8914        670.8244
 -11691916.10746  -8957676.09945  22349340.1674   22349344.4214
      2338.8444       1822.4764
   7772254.54545   6056299.29945  23117554.7614   23117558.2654
     -2842.9694      -2215.3004
  -1552368.68344  -1050720.86642  24108470.3314   24108474.8784
      2308.6254       1798.9294
  -8153473.16647  -6353350.22346  21212338.0894   21212341.4644
      1529.2034       1191.5874
   7422133.26846   5750531.81745  22525302.8474   22525307.7454
     -2820.0944      -2197.4764
 -11295676.90146  -8607995.03445  22474256.3394   22474261.1324
      3231.7814       2518.2714
 98  6 11 21  5 44.9990000  0  7G 6G26G10G22G17G30G23
  -6866555.79347  -5350560.87746  20053770.6754   20053772.4334
       852.4224        664.2254
 -11726939.33346  -8984966.88045  22342675.4254   22342679.4564
      2330.7194       1816.1444
   7814932.17945   6089554.57045  23125676.1594   23125680.7414
     -2847.5474      -2218.8684
  -1586928.25744  -1077650.37242  24101893.3154   24101897.4174
      2299.1564       1791.5504
  -8176375.91347  -6371196.50346  21207979.7924   21207983.2264
      1524.3134       1187.7764
   7464470.62646   5783521.87845  22533359.3864   22533364.5774
     -2825.1254      -2201.3964
 -11344101.10746  -8645728.13045  22465041.6284   22465047.1014
      3224.5784       2512.6584
 98  6 11 21  5 59.9990000  0  7G 6G26G10G22G17G30G23
  -6879275.32047  -5360472.19846  20051350.3394   20051352.3084
       843.4844        657.2614
 -11761837.00846  -9012159.81745  22336035.1834   22336039.1904
      2322.3444       1809.6194
   7857680.70045   6122865.07545  23133811.3004   23133815.5074
     -2852.2974      -2222.5694
  -1621342.29744  -1104466.53442  24095345.1754   24095350.8944
      2289.4064       1783.9534
  -8199200.74647  -6388982.06746  21203636.3314   21203639.5304
      1519.0004       1183.6364
   7506888.98846   5816575.08145  22541431.2694   22541436.5544
     -2830.7034      -2205.7434
 -11392412.13146  -8683373.02745  22455847.9094   22455853.5344
      3216.8284       2506.6194
 98  6 11 21  6 14.9990000  0  7G 6G26G10G22G17G30G23
  -6891866.38547  -5370283.41946  20048954.1834   20048956.1404
       835.1254        650.7474
 -11796615.53346  -9039259.92045  22329416.3704   22329419.7694
      2314.5004       1803.5064
   7900494.29345   6156226.28545  23141957.7454   23141961.6944
     -2856.3594      -2225.7354
  -1655616.33344  -1131173.61142  24088822.6284   24088829.3784
      2280.2504       1776.8184
  -8221952.19747  -6406710.45746  21199306.6364   21199309.9524
      1514.3284       1179.9964
   7549387.88046   5849691.00945  22549519.0344   22549524.0974
     -2836.0314      -2209.8944
 -11440609.94846  -8720929.69445  22446676.0344   22446681.8584
      3209.2974       2500.7514
 98  6 11 21  6 29.9990000  0  7G 6G26G10G22G17G30G23
  -6904330.18647  -5379995.47246  20046582.6364   20046584.5584
       826.7504        644.2214
 -11831272.51046  -9066265.30745  22322821.3004   22322824.6514
      2306.4384       1797.2244
   7943368.76145   6189634.93145  23150116.6444   23150119.9954
     -2860.2664      -2228.7784
  -1689750.24344  -1157771.37642  24082327.6284   24082333.0074
      2270.9534       1769.5744
  -8244630.52647  -6424381.86646  21194991.2924   21194994.6794
      1509.4534       1176.1974
   7591969.33046   5882871.28045  22557621.7844   22557626.5074
     -2841.5004      -2214.1564
 -11488692.19446  -8758396.32845  22437526.6284   22437532.5814
      3201.7504       2494.8704
 98  6 11 21  6 44.9990000  0  7G 6G26G10G22G17G30G23
  -6916666.24647  -5389607.98946  20044234.9404   20044236.9684
       818.0164        637.4154
 -11865807.37546  -9093175.54245  22316249.4954   22316252.7884
      2298.2664       1790.8564
   7986305.08245   6223091.77345  23158287.4644   23158290.9214
     -2864.5314      -2232.1024
  -1723744.14544  -1184260.16642  24075858.0264   24075863.2654
      2261.5634       1762.2564
  -8267234.61047  -6441995.42646  21190690.0584   21190693.2454
      1504.4384       1172.2894
   7634634.47546   5916116.77345  22565740.6904   22565745.2264
     -2847.1874      -2218.5884
 -11536661.84446  -8795775.22545  22428398.0734   22428403.6514
      3194.2034       2488.9894
 98  6 11 21  6 59.9990000  0  7G 6G26G10G22G17G30G23
  -6928867.61647  -5399115.54946  20041913.2764   20041914.9054
       809.0314        630.4144
 -11900220.63546  -9119991.02245  22309700.8704   22309704.5264
      2290.3594       1784.6964
   8029306.53545   6256599.38245  23166469.8704   23166473.4914
     -2868.7664      -2235.4024
  -1757596.45644  -1210638.62742  24069416.5734   24069424.3824
      2252.3444       1755.0734
  -8289763.05647  -6459550.04746  21186402.9014   21186406.3004
      1499.6724       1168.5754
   7677386.57446   5949430.02545  22573876.1834   22573880.9874
     -2852.8594      -2223.0074
 -11584517.62046  -8833065.39545  22419291.3784   22419296.7694
      3186.8134       2483.2314
 98  6 11 21  7 14.9990000  0  7G 6G26G10G22G17G30G23
  -6940936.83747  -5408520.13746  20039616.4724   20039618.2184
       800.0944        623.4504
 -11934516.01846  -9146714.65345  22303174.6124   22303178.7614
      2282.2344       1778.3644
   8072368.64445   6290154.23345  23174664.8704   23174668.8084
     -2872.9534      -2238.6654
  -1791312.53244  -1236910.85742  24063000.5894   24063006.2724
      2243.0004       1747.7924
  -8312224.53347  -6477052.47746  21182128.6124   21182131.9874
      1495.1094       1165.0204
   7720219.66446   5982806.37545  22582027.2374   22582032.4764
     -2858.2814      -2227.2324
 -11632265.52546  -8870271.49145  22410205.3704   22410210.9374
      3179.5164       2477.5454
 98  6 11 21  7 29.9990000  0  7G 6G26G10G22G17G30G23
  -6952871.13747  -5417819.59346  20037345.4014   20037347.0774
       790.9844        616.3514
 -11968688.33746  -9173342.37745  22296671.8234   22296675.9134
      2273.9224       1771.8874
   8115494.30545   6323758.61645  23182871.2374   23182875.2574
     -2877.2974      -2242.0504
  -1824887.02045  -1263072.81642  24056611.4484   24056615.9834
      2233.4534       1740.3534
  -8334616.17847  -6494500.49746  21177867.5734   21177870.8084
      1490.2974       1161.2704
   7763135.10246   6016246.90345  22590193.8554   22590198.8584
     -2863.8444      -2231.5674
 -11679904.53046  -8907392.73145  22401139.8864   22401145.8274
      3172.2034       2471.8474
 98  6 11 21  7 44.9990000  0  7G 6G26G10G22G17G30G23
  -6964667.28847  -5427011.40046  20035100.7454   20035102.5504
       781.7344        609.1444
 -12002734.98246  -9199872.17445  22290193.1284   22290196.9014
      2265.5474       1765.3614
   8158685.58945   6357414.14745  23191090.3624   23191094.9684
     -2881.5944      -2245.3984
  -1858317.74044  -1289122.70743  24050250.1124   24050252.6554
      2223.9384       1732.9384
  -8356936.03047  -6511892.57246  21173620.2764   21173623.6754
      1485.7034       1157.6914
   7806132.01046   6049750.90545  22598375.8944   22598380.8744
     -2869.1254      -2235.6824
 -11727432.69946  -8944427.61545  22392095.3624   22392100.8944
      3164.8754       2466.1364
 98  6 11 21  7 59.9990000  0  7G 6G26G10G22G17G30G23
  -6976322.48647  -5436093.36646  20032882.6904   20032884.5544
       772.1564        601.6804
 -12036654.72246  -9226303.11745  22283738.0114   22283742.3704
      2256.9844       1758.6894
   8201941.97345   6391120.36845  23199321.5734   23199325.9564
     -2886.0474      -2248.8684
  -1891607.56844  -1315062.81443  24043915.2224   24043918.8434
      2214.6414       1725.6944
  -8379188.93447  -6529232.48646  21169385.5584   21169389.0734
      1481.2504       1154.2214
   7849207.24146   6083315.94145  22606572.9174   22606577.7224
     -2874.2664      -2239.6874
 -11774853.00646  -8981378.44745  22383071.5974   22383077.0814
      3157.8284       2460.6454
 98  6 11 21  8 14.9990000  0  7G 6G26G10G22G17G30G23
  -6987828.02947  -5445058.72546  20030693.4014   20030695.2184
       762.1094        593.8514
 -12070440.59846  -9252629.70845  22277309.1984   22277313.1594
      2247.9384       1751.6404
   8245270.60545   6424882.92645  23207566.7764   23207571.0544
     -2890.9534      -2252.6914
  -1924754.73445  -1340891.77743  24037607.4804   24037612.1084
      2205.1254       1718.2794
  -8401370.28847  -6546516.64546  21165164.9094   21165168.5774
      1476.4384       1150.4714
   7892360.58546   6116941.83945  22614784.7374   22614789.8124
     -2879.2814      -2243.5964
 -11822164.77446  -9018244.69245  22374068.0504   22374073.9804
      3150.6724       2455.0694
 98  6 11 21  8 29.9990000  0  7G 6G26G10G22G17G30G23
  -6999186.31147  -5453909.33646  20028531.9254   20028533.8824
       752.2974        586.2054
 -12104092.55546  -9278851.96745  22270905.4334   22270908.3624
      2238.9224       1744.6144
   8288670.14445   6458700.69345  23215825.6514   23215829.2264
     -2895.6564      -2256.3564
  -1957760.82745  -1366610.80743  24031326.7374   24031331.9054
      2195.6254       1710.8774
  -8423480.88347  -6563745.65746  21160957.3704   21160960.9334
      1471.5634       1146.6724
   7935584.91946   6150623.05845  22623010.0654   22623015.2334
     -2883.9534      -2247.2364
 -11869374.76946  -9055031.65045  22365084.5814   22365090.6164
      3143.9844       2449.8584
 98  6 11 21  8 44.9990000  0  7G 6G26G10G22G17G30G23
  -7010394.91247  -5462643.31446  20026399.1364   20026401.1754
       742.1884        578.3284
 -12137608.86546  -9304968.52645  22264527.2534   22264530.4174
      2229.9534       1737.6264
   8332143.57845   6492576.09445  23224098.4484   23224102.5264
     -2900.8754      -2260.4224
  -1990622.05445  -1392216.94443  24025072.9254   24025078.5034
      2185.9224       1703.3164
  -8445515.72747  -6580915.65346  21156764.0814   21156767.4334
      1466.4384       1142.6794
   7978880.15846   6184359.52545  22631249.3864   22631254.2494
     -2888.7664      -2250.9864
 -11916483.68046  -9091739.83445  22356120.1204   22356125.7454
      3137.1884       2444.5624
 98  6 11 21  8 59.9990000  0  7G 6G26G10G22G17G30G23
  -7021450.89847  -5471258.36046  20024295.3394   20024297.4014
       732.0634        570.4384
 -12170990.67046  -9330980.28245  22258174.9254   22258178.2184
      2221.0784       1730.7104
   8375696.52245   6526513.40945  23232385.9804   23232388.9684
     -2905.9694      -2264.3914
  -2023337.51745  -1417709.50343  24018848.0264   24018852.8904
      2176.2814       1695.8044
  -8467474.34647  -6598026.25346  21152585.4564   21152588.9604
      1461.4844       1138.8194
   8022248.93846   6218153.29545  22639502.0654   22639506.5424
     -2893.5784      -2254.7364
 -11963488.91946  -9128367.24145  22347174.9254   22347180.4684
      3130.2664       2439.1684
 98  6 11 21  9 14.9990000  0  7G 6G26G10G22G17G30G23
  -7032355.85247  -5479755.73246  20022220.1284   20022222.0854
       722.0164        562.6104
 -12204237.37346  -9356886.75645  22251848.2924   22251852.1594
      2211.7974       1723.4784
   8419325.15345   6560509.74145  23240688.7224   23240693.0464
     -2911.1094      -2268.3974
  -2055908.92345  -1443089.83243  24012649.9014   24012655.4094
      2166.6564       1688.3044
  -8489357.54647  -6615078.07846  21148421.4334   21148424.7724
      1456.3594       1134.8254
   8065689.61846   6252003.09445  22647768.5814   22647773.4564
     -2898.4224      -2258.5114
 -12010390.08246  -9164913.55145  22338250.1514   22338255.9764
      3123.2814       2433.7264
 98  6 11 21  9 29.9990000  0  7G 6G26G10G22G17G30G23
  -7043116.11547  -5488140.35146  20020172.4644   20020174.3044
       712.5004        555.1954
 -12237348.45746  -9382687.56045  22245547.4254   22245551.0344
      2202.8914       1716.5384
   8463027.25445   6594563.28045  23249004.9564   23249009.5504
     -2916.0474      -2272.2444
  -2088340.22645  -1468360.95842  24006478.1444   24006481.7414
      2157.4064       1681.0964
  -8511167.36847  -6632072.73446  21144270.9174   21144274.3514
      1451.4384       1130.9904
   8109199.17246   6285906.55145  22656048.0194   22656052.8124
     -2903.0314      -2262.1024
 -12057190.52446  -9201381.37145  22329344.3784   22329350.2144
      3116.6414       2428.5514
 98  6 11 21  9 44.9990000  0  7G 6G26G10G22G17G30G23
  -7053729.17847  -5496410.26946  20018152.9094   20018154.8554
       702.7194        547.5734
 -12270324.01746  -9408382.75745  22239272.3704   22239276.5894
      2193.9534       1709.5744
   8506806.85445   6628677.23644  23257336.0734   23257340.4444
     -2921.1094      -2276.1894
  -2120631.78545  -1493523.19343  24000332.9644   24000337.9094
      2148.2194       1673.9374
  -8532899.49447  -6649006.84646  21140135.4334   21140138.9954
      1446.2814       1126.9724
   8152781.16646   6319866.47645  22664341.6364   22664346.7104
     -2907.8124      -2265.8284
 -12103888.70746  -9237769.51545  22320457.9254   22320462.9874
      3109.8444       2423.2554
 98  6 11 21  9 59.9990000  0  7G 6G26G10G22G17G30G23
  -7064199.08647  -5504568.64346  20016160.5034   20016162.3904
       693.2034        540.1584
 -12303167.06846  -9433974.69845  22233022.4564   22233025.8784
      2185.0164       1702.6104
   8550659.14145   6662847.81745  23265680.5584   23265685.4914
     -2925.9374      -2279.9514
  -2152786.71745  -1518579.01243  23994214.4564   23994218.3354
      2139.0164       1666.7654
  -8554555.59747  -6665881.71746  21136014.4254   21136017.9874
      1441.0474       1122.8944
   8196433.24846   6353880.98845  22672648.2844   22672652.5854
     -2912.6094      -2269.5664
 -12150486.40446  -9274079.35345  22311590.3234   22311595.7144
      3103.1254       2418.0194
 98  6 11 21 10 14.9990000  0  7G 6G26G10G22G17G30G23
  -7074528.25047  -5512617.33946  20014194.8944   20014196.8274
       683.9384        532.9384
 -12335875.84146  -9459462.02645  22226798.2844   22226802.0224
      2176.0784       1695.6454
   8594583.81845   6697074.80145  23274039.0894   23274042.7334
     -2930.7504      -2283.7014
  -2184804.35545  -1543527.76743  23988121.7764   23988127.3784
      2129.8594       1659.6314
  -8576130.17547  -6682693.06346  21131908.7304   21131912.0114
      1435.3914       1118.4864
   8240157.35946   6387951.64345  22680968.7844   22680974.2104
     -2917.3754      -2273.2794
 -12196983.38946  -9310310.70845  22302742.4014   22302748.0624
      3096.3134       2412.7114
 98  6 11 21 10 29.9990000  0  7G 6G26G10G22G17G30G23
  -7084724.13147  -5520562.18446  20012254.8154   20012256.7144
       675.4064        526.2914
 -12368454.94446  -9484848.29445  22220598.4334   22220602.0774
      2167.6094       1689.0464
   8638575.15845   6731353.73945  23282410.2304   23282414.2494
     -2934.9534      -2286.9764
  -2216686.10645  -1568370.71443  23982054.5974   23982060.1754
      2120.8284       1652.5934
  -8597621.69247  -6699439.68646  21127819.1514   21127822.5384
      1429.9844       1114.2744
   8283950.22546   6422075.87545  22689302.4174   22689307.1754
     -2921.9224      -2276.8224
 -12243379.86146  -9346463.75345  22293913.3554   22293918.8154
      3089.7034       2407.5614
 98  6 11 21 10 44.9990000  0  7G 6G26G10G22G17G30G23
  -7094787.79147  -5528404.00546  20010339.5654   20010341.6054
       666.5164        519.3634
 -12400902.43746  -9510132.01245  22214423.9254   22214427.1474
      2158.8594       1682.2284
   8682635.54945   6765686.47645  23290795.5344   23290800.1404
     -2939.6564      -2290.6414
  -2248426.54845  -1593103.51143  23976015.0504   23976021.7764
      2111.3594       1645.2154
  -8619027.43647  -6716119.47146  21123745.6054   21123749.4014
      1424.3134       1109.8544
   8327820.64446   6456260.52945  22697650.6444   22697656.1874
     -2927.3444      -2281.0474
 -12289671.09046  -9382534.79345  22285104.6674   22285110.2334
      3082.5474       2401.9854
 98  6 11 21 10 59.9990000  0  7G 6G26G10G22G17G30G23
  -7104720.15547  -5536143.50946  20008449.5584   20008451.5504
       657.8284        512.5934
 -12433221.17646  -9535315.40445  22208274.1204   22208277.6714
      2150.2814       1675.5444
   8726764.20045   6800072.40845  23299192.4724   23299196.8194
     -2944.1414      -2294.1364
  -2280027.87145  -1617727.93744  23970001.5734   23970006.2964
      2102.1414       1638.0324
  -8640354.39647  -6732737.86946  21119687.3784   21119690.9524
      1419.3284       1105.9704
   8371768.44646   6490505.48645  22706013.6754   22706019.5114
     -2932.3444      -2284.9434
 -12335857.47046  -9418524.12045  22276315.3234   22276320.7374
      3075.6564       2396.6154
 98  6 11 21 11 14.9990000  0  7G 6G26G10G22G17G30G23
  -7114524.90647  -5543783.57846  20006583.8944   20006586.0034
       649.2034        505.8734
 -12465410.95646  -9560398.30345  22202148.4404   22202152.1324
      2141.4534       1668.6654
   8770955.13445   6834506.88545  23307602.0344   23307606.6514
     -2948.2034      -2297.3014
  -2311492.21245  -1642245.57243  23964013.6674   23964017.6754
      2092.8284       1630.7754
  -8661609.22247  -6749300.05346  21115642.8864   21115646.3314
      1414.3284       1102.0744
   8415787.17346   6524805.70545  22714390.6904   22714396.4334
     -2937.0474      -2288.6084
 -12381942.49146  -9454434.46945  22267545.8084   22267551.6324
      3068.7814       2391.2584
 98  6 11 21 11 29.9990000  0  7G 6G26G10G22G17G30G23
  -7124198.65847  -5551321.56346  20004743.1904   20004744.9834
       640.3594        498.9814
 -12497466.73846  -9585376.79645  22196048.1284   22196052.2064
      2132.4694       1661.6644
   8815209.80345   6868991.00645  23316022.9874   23316028.4724
     -2952.6254      -2300.7474
  -2342814.70345  -1666652.72042  23958053.0734   23958058.6984
      2083.2344       1623.3004
  -8682786.77747  -6765802.03346  21111612.9014   21111616.4174
      1409.1564       1098.0444
   8459878.19346   6559162.25745  22722780.6444   22722785.9294
     -2941.9844      -2292.4554
 -12427924.14046  -9490264.26745  22258795.9334   22258801.5814
      3061.8754       2385.8774
 98  6 11 21 11 44.9990000  0  7G 6G26G10G22G17G30G23
  -7133741.01047  -5558757.16746  20002927.0504   20002928.9254
       631.7344        492.2614
 -12529391.99746  -9610253.57745  22189973.1054   22189977.4764
      2124.0474       1655.1014
   8859527.42845   6903524.17745  23324456.4644   23324461.1404
     -2956.5474      -2303.8034
  -2373993.85645  -1690948.12443  23952119.6364   23952125.1904
      2073.8134       1615.9584
  -8703888.86447  -6782245.20046  21107597.1984   21107600.4444
      1404.3134       1094.2694
   8504041.07646   6593574.80445  22731185.1284   22731189.8624
     -2946.4844      -2295.9624
 -12473803.37446  -9526014.28045  22250065.0814   22250070.1554
      3055.2034       2380.6784
 98  6 11 21 11 59.9990000  0  7G 6G26G10G22G17G30G23
  -7143148.33547  -5566087.55146  20001136.9174   20001138.8044
       622.5944        485.1384
 -12561184.67146  -9635027.04745  22183923.1444   22183927.2804
      2114.9694       1648.0284
   8903906.88945   6938105.55545  23332901.7304   23332906.4524
     -2960.7034      -2307.0414
  -2405025.91745  -1715128.94543  23946214.1904   23946219.7924
      2063.7504       1608.1174
  -8724913.90847  -6798628.33946  21103596.1284   21103599.4444
      1399.0634       1090.1794
   8548274.11846   6628042.02745  22739601.9334   22739607.0774
     -2951.2664      -2299.6874
 -12519576.41046  -9561681.51945  22241354.9094   22241360.4994
      3047.8594       2374.9554
 98  6 11 21 12 14.9990000  0  7G 6G26G10G22G17G30G23
  -7152418.43447  -5573311.00746  19999372.9644   19999374.8044
       613.3594        477.9424
 -12592840.51646  -9659693.89745  22177899.1284   22177902.8664
      2105.8134       1640.8934
   8948348.36745   6972735.22845  23341358.8394   23341363.5264
     -2964.8594      -2310.2804
  -2435906.35745  -1739191.61343  23940338.4644   23940343.5624
      2053.7194       1600.3004
  -8745863.36347  -6814952.57846  21099609.6364   21099612.9054
      1394.2504       1086.4294
   8592577.53146   6662564.08645  22748032.7924   22748037.3274
     -2955.8444      -2303.2554
 -12565240.73246  -9597264.05945  22232665.1984   22232670.8234
      3040.7194       2369.3914
 98  6 11 21 12 29.9990000  0  7G 6G26G10G22G17G30G23
  -7161547.27547  -5580424.38646  19997635.8704   19997637.8624
       603.8284        470.5154
 -12624358.73546  -9684253.49545  22171901.3944   22171904.6164
      2096.6414       1633.7464
   8992853.95645   7007414.89645  23349828.1054   23349832.3124
     -2969.1254      -2313.6044
  -2466635.51745  -1763136.43043  23934490.8864   23934495.6084
      2043.5314       1592.3624
  -8766742.61747  -6831222.11646  21095636.4724   21095639.8474
      1389.7664       1082.9344
   8636949.86346   6697139.83745  22756476.7224   22756481.5154
     -2960.4374      -2306.8344
 -12610796.14546  -9632761.72645  22223995.9564   22224001.2764
      3033.4224       2363.7054
 98  6 11 21 12 44.9990000  0  7G 6G26G10G22G17G30G23
  -7170532.31547  -5587425.71546  19995925.8084   19995927.7304
       594.3594        463.1374
 -12655738.61246  -9708705.31645  22165930.0584   22165933.3044
      2087.5474       1626.6604
   9037423.02945   7042144.01945  23358308.9174   23358312.1514
     -2973.2664      -2316.8304
  -2497211.53645  -1786961.86843  23928672.3314   23928677.7334
      2033.5474       1584.5824
  -8787556.04347  -6847440.35546  21091675.7144   21091679.1124
      1385.6094       1079.6964
   8681391.48146   6731769.58045  22764933.5194   22764938.8514
     -2964.8914      -2310.3044
 -12656242.43846  -9668174.36445  22215347.9334   22215353.0654
      3026.3284       2358.1784
 98  6 11 21 12 59.9990000  0  7G 6G26G10G22G17G30G23
  -7179374.18547  -5594315.48546  19994243.3554   19994245.1364
       584.5634        455.5034
 -12686982.64146  -9733051.26845  22159984.8314   22159988.6404
      2078.2974       1619.4524
   9082053.13445   7076920.67345  23366801.6284   23366806.0694
     -2977.4064      -2320.0574
  -2527640.80945  -1810673.00144  23922882.2064   23922886.5654
      2023.6884       1576.8994
  -8808308.87747  -6863611.38746  21087726.8394   21087730.2264
      1381.4224       1076.4334
   8725897.58246   6766449.55745  22773403.1284   22773408.8004
     -2969.1874      -2313.6534
 -12701582.92146  -9703504.56945  22206720.1904   22206725.3124
      3019.0634       2352.5164
 98  6 11 21 13 14.9990000  0  7G 6G26G10G22G17G30G23
  -7188067.82347  -5601089.75046  19992589.2924   19992590.8394
       574.7504        447.8574
 -12718084.91246  -9757286.76245  22154065.8004   22154069.7374
      2068.8134       1612.0624
   9126746.36345   7111746.54645  23375306.5504   23375310.6874
     -2981.5314      -2323.2714
  -2557919.45445  -1834266.70943  23917120.3084   23917125.4054
      2013.6414       1569.0714
  -8828995.88047  -6879731.11746  21083789.8554   21083793.2654
      1376.8914       1072.9024
   8770468.06746   6801179.72745  22781884.5974   22781889.5774
     -2973.4374      -2316.9644
 -12746811.56046  -9738747.60245  22198113.0654   22198118.0584
      3011.5314       2346.6484
 98  6 11 21 13 29.9990000  0  7G 6G26G10G22G17G30G23
  -7196617.48047  -5607751.82146  19990962.2224   19990963.9214
       565.2974        440.4914
 -12749047.98446  -9781413.79045  22148173.9874   22148178.1364
      2059.7034       1604.9634
   9171498.33945   7146618.18545  23383822.8314   23383827.4374
     -2985.3754      -2326.2664
  -2588051.41645  -1857746.14943  23911387.0974   23911392.9914
      2004.0784       1561.6194
  -8849615.26947  -6895798.16046  21079866.3944   21079869.8394
      1372.4694       1069.4564
   8815100.70646   6835958.31045  22790377.9404   22790383.3904
     -2977.5474      -2320.1664
 -12791928.77946  -9773903.82145  22189527.7374   22189532.5194
      3004.2504       2340.9744
 98  6 11 21 13 44.9990000  0  7G 6G26G10G22G17G30G23
  -7205024.38247  -5614302.66046  19989362.3234   19989364.1514
       555.6254        432.9554
 -12779872.90046  -9805433.15945  22142307.7844   22142311.1714
      2050.2814       1597.6224
   9216310.80345   7181536.93345  23392350.2764   23392354.6944
     -2989.5784      -2329.5414
  -2618038.81344  -1881112.94843  23905679.4644   23905684.3744
      1994.2194       1553.9374
  -8870167.29247  -6911812.71346  21075955.1444   21075958.7414
      1367.8134       1065.8284
   8859797.79546   6870787.12045  22798883.3314   22798888.9914
     -2982.0314      -2323.6614
 -12836935.10846  -9808973.63745  22180963.2844   22180968.3124
      2996.5784       2334.9964
 98  6 11 21 13 59.9990000  0  7G 6G26G10G22G17G30G23
  -7213287.84747  -5620741.72346  19987790.0264   19987791.8664
       546.1884        425.6014
 -12810556.83346  -9829342.66745  22136468.9014   22136472.9214
      2040.8444       1590.2684
   9261183.84345   7216502.93744  23400889.4254   23400893.8314
     -2993.4844      -2332.5854
  -2647879.01044  -1904365.02043  23900001.4404   23900006.8784
      1984.5314       1546.3884
  -8890650.13947  -6927773.36546  21072057.5424   21072061.3154
      1363.2504       1062.2734
   8904559.50346   6905666.28545  22807401.3154   22807406.4254
     -2986.1414      -2326.8634
 -12881827.04346  -9843954.30645  22172420.4334   22172425.8234
      2989.0634       2329.1404
 98  6 11 21 14 14.9990000  0  7G 6G26G10G22G17G30G23
  -7221410.39647  -5627070.98646  19986244.2844   19986246.1944
       536.8284        418.3084
 -12841099.37946  -9853142.01245  22130657.1594   22130660.7334
      2031.5474       1583.0244
   9306114.50245   7251513.76344  23409439.7064   23409443.5624
     -2997.2814      -2335.5444
  -2677576.34544  -1927505.80743  23894350.0974   23894356.3664
      1975.1094       1539.0464
  -8911065.28447  -6943681.26146  21068172.6674   21068176.4994
      1358.7814       1058.7914
   8949381.68546   6940592.56445  22815930.8234   22815936.0384
     -2990.1564      -2329.9924
 -12926608.27946  -9878848.73045  22163898.7694   22163903.7264
      2981.7664       2323.4544
 98  6 11 21 14 29.9990000  0  7G 6G26G10G22G17G30G23
  -7229391.82947  -5633290.28746  19984725.4254   19984727.1714
       527.5474        411.0754
 -12871501.53446  -9876831.96445  22124871.4014   22124875.1754
      2022.3134       1575.8284
   9351102.54845   7286569.37044  23418000.1204   23418002.8394
     -3000.9694      -2338.4174
  -2707133.33144  -1950537.22143  23888725.7144   23888730.9874
      1966.0474       1531.9854
  -8931411.11947  -6959535.14846  21064301.2064   21064304.8154
      1354.0634       1055.1144
   8994264.73146   6975566.27845  22824471.9094   22824477.2414
     -2994.1254      -2333.0844
 -12971278.33946  -9913656.51545  22155398.4724   22155403.8864
      2974.3594       2317.6834
 98  6 11 21 14 44.9990000  0  7G 6G26G10G22G17G30G23
  -7237233.18447  -5639400.43646  19983233.3154   19983235.4014
       518.1724        403.7704
 -12901764.70346  -9900413.61745  22119112.5734   22119115.9834
      2012.9534       1568.5354
   9396148.93345   7321670.40744  23426572.4094   23426576.7454
     -3005.0314      -2341.5834
  -2736551.99144  -1973460.80843  23883127.0264   23883131.5734
      1956.6254       1524.6434
  -8951679.57347  -6975328.74246  21060443.9334   21060447.5194
      1348.5164       1050.7914
   9039210.81646   7010589.10145  22833025.1204   22833029.9374
     -2998.4534      -2336.4574
 -13015833.05646  -9948374.41745  22146920.0974   22146925.1944
      2966.4694       2311.5344
 98  6 11 21 14 59.9990000  0  7G 6G26G10G22G17G30G23
  -7244941.23347  -5645406.70646  19981766.3704   19981768.3394
       509.4534        396.9764
 -12931894.65146  -9923891.45045  22113378.8474   22113382.2804
      2004.2194       1561.7294
   9441249.69545   7356813.81644  23435154.8394   23435159.5034
     -3008.5004      -2344.2864
  -2765837.41544  -1996280.61543  23877554.3624   23877560.2694
      1947.9844       1517.9104
  -8971869.78647  -6991061.36546  21056602.0974   21056605.4374
      1343.4224       1046.8224
   9084213.24646   7045655.84045  22841588.7144   22841594.0344
     -3001.9374      -2339.1724
 -13060276.81246  -9983005.84745  22138462.3554   22138467.1714
      2959.3134       2305.9584
 98  6 11 21 15 14.9990000  0  7G 6G26G10G22G17G30G23
  -7252514.39447  -5651307.87946  19980325.5894   19980327.3944
       500.2974        389.8424
 -12961889.10946  -9947263.72345  22107671.1594   22107674.6754
      1995.0944       1554.6194
   9486405.44345   7392000.09944  23443747.5264   23443751.7694
     -3012.2664      -2347.2204
  -2794988.42444  -2018995.70443  23872007.9404   23872014.8944
      1938.7664       1510.7264
  -8991981.26947  -7006732.64346  21052774.7924   21052778.3904
      1338.1414       1042.7074
   9129271.16746   7080765.81245  22850163.0894   22850168.6324
     -3005.7344      -2342.1314
 -13104611.52546 -10017552.33945  22130025.9334   22130031.1834
      2952.0314       2300.2844
 98  6 11 21 15 29.9990000  0  7G 6G26G10G22G17G30G23
  -7259950.07247  -5657101.91646  19978910.4014   19978912.1364
       491.0314        382.6224
 -12991748.20846  -9970530.50845  22101989.3784   22101993.0584
      1986.0634       1547.5814
   9531617.72645   7427230.39544  23452351.3474   23452357.3474
     -3016.0944      -2350.2034
  -2824000.29644  -2041602.32443  23866486.0504   23866491.7694
      1929.4064       1503.4334
  -9012015.03247  -7022343.35346  21048962.6674   21048966.1124
      1332.9534       1038.6654
   9174384.68246   7115919.10645  22858747.9564   22858753.8744
     -3009.4534      -2345.0284
 -13148837.74846 -10052014.28145  22121609.9954   22121615.5154
      2944.7034       2294.5744
 98  6 11 21 15 44.9990000  0  7G 6G26G10G22G17G30G23
  -7267246.53547  -5662787.46946  19977521.8624   19977523.5154
       481.7344        375.3774
 -13021473.11446  -9993692.72945  22096333.0504   22096336.6244
      1977.1884       1540.6664
   9576887.29845   7462505.34344  23460965.1904   23460969.5384
     -3019.8914      -2353.1624
  -2852872.15744  -2064099.87243  23860991.8234   23860996.8394
      1920.0784       1496.1654
  -9031973.24447  -7037895.20146  21045164.5504   21045168.0424
      1328.1094       1034.8904
   9219552.04546   7151114.36645  22867342.8084   22867347.9054
     -3012.9064      -2347.7194
 -13192954.90946 -10086391.23145  22113214.3704   22113219.5854
      2937.5784       2289.0224
 98  6 11 21 15 59.9990000  0  7G 6G26G10G22G17G30G23
  -7274398.79047  -5668360.65346  19976160.8944   19976162.6754
       471.9534        367.7564
 -13051062.72246 -10016749.52045  22090701.9874   22090706.0194
      1968.2194       1533.6774
   9622216.23045   7497826.57843  23469591.5034   23469595.6054
     -3023.8594      -2356.2544
  -2881599.39944  -2086484.73543  23855525.2224   23855530.1794
      1910.3594       1488.5924
  -9051854.88247  -7053387.37646  21041381.4254   21041384.9874
      1322.9224       1030.8484
   9264772.88546   7186351.29645  22875948.3004   22875954.1014
     -3016.3444      -2350.3984
 -13236961.45346 -10120681.99545  22104840.5114   22104845.8904
      2930.0944       2283.1904
 98  6 11 21 16 14.9990000  0  7G 6G26G10G22G17G30G23
  -7281404.19547  -5673819.40646  19974827.8234   19974829.6754
       462.1564        360.1224
 -13080519.39846 -10039702.73745  22085096.5654   22085100.3624
      1959.3914       1526.7984
   9667603.45545   7533193.21244  23478228.3704   23478233.1984
     -3027.7664      -2359.2984
  -2910183.64344  -2108758.14743  23850086.1904   23850091.2534
      1900.9694       1481.2744
  -9071660.83647  -7068820.58346  21037612.3864   21037615.7494
      1317.9844       1027.0014
   9310043.54146   7221627.05045  22884563.0344   22884568.9524
     -3019.6874      -2353.0034
 -13280857.91046 -10154886.96445  22096486.4564   22096491.5654
      2922.8594       2277.5534
 98  6 11 21 16 29.9990000  0  7G 6G26G10G22G17G30G23
  -7288263.17447  -5679164.07246  19973522.7534   19973524.5224
       452.3594        352.4884
 -13109846.06746 -10062554.63745  22079515.5264   22079519.5114
      1950.7974       1520.1014
   9713048.40845   7568604.83644  23486876.6674   23486880.7454
     -3031.6724      -2362.3424
  -2938627.69944  -2130922.32843  23844673.3154   23844678.8354
      1891.5164       1473.9084
  -9091395.24247  -7084198.03246  21033856.9644   21033860.4914
      1313.2344       1023.3004
   9355364.42446   7256941.93045  22893187.4094   22893192.6014
     -3023.1564      -2355.7064
 -13324647.17446 -10189008.42045  22088154.3474   22088159.7844
      2915.6414       2271.9284
 98  6 11 21 16 44.9990000  0  7G 6G26G10G22G17G30G23
  -7294973.31147  -5684392.75946  19972245.8154   19972247.4804
       442.3594        344.6964
 -13139040.60846 -10085303.58345  22073960.1674   22073963.9764
      1941.7974       1513.0884
   9758556.00945   7604065.25744  23495536.3474   23495541.2924
     -3036.0004      -2365.7144
  -2966926.28044  -2152973.15342  23839288.5344   23839295.5694
      1881.5784       1466.1654
  -9111056.29347  -7099518.32046  21030115.5814   21030119.2964
      1308.3284       1019.4764
   9400740.39845   7292299.74345  22901822.4954   22901828.6834
     -3026.9844      -2358.6894
 -13368325.97646 -10223043.79545  22079842.1674   22079847.9094
      2908.2504       2266.1694
 98  6 11 21 16 59.9990000  0  7G 6G26G10G22G17G30G23
  -7301535.23347  -5689505.94546  19970996.9954   19970998.6594
       432.3914        336.9284
 -13168098.38746 -10107945.96445  22068430.8864   22068434.5894
      1932.4224       1505.7834
   9804127.71245   7639575.63444  23504208.4014   23504214.0384
     -3040.3284      -2369.0874
  -2995073.52744  -2174906.12042  23833932.2144   23833937.7334
      1871.2504       1458.1174
  -9130648.21647  -7114784.75246  21026387.5034   21026391.0424
      1303.8594       1015.9944
   9446172.13645   7327701.01045  22910467.8084   22910473.8904
     -3030.7344      -2361.6114
 -13411896.63246 -10256994.90545  22071550.9644   22071556.4014
      2901.0784       2260.5804
 98  6 11 21 17 14.9990000  0  7G 6G26G10G22G17G30G23
  -7307943.92447  -5694499.73346  19969777.5894   19969779.4294
       422.1414        328.9414
 -13197011.35746 -10130475.50845  22062929.0974   22062932.9764
      1922.6564       1498.1744
   9849764.96945   7675137.12944  23512892.6054   23512897.2804
     -3044.6564      -2372.4594
  -3023063.57444  -2196716.47943  23828606.0264   23828609.6244
      1860.7194       1449.9114
  -9150172.19947  -7129998.23446  21022671.9874   21022675.4914
      1299.3754       1012.5004
   9491664.74145   7363149.68545  22919124.4804   22919130.2694
     -3034.9694      -2364.9114
 -13455357.26146 -10290860.28245  22063280.5424   22063286.0384
      2893.6564       2254.7974
 98  6 11 21 17 29.9990000  0  7G 6G26G10G22G17G30G23
  -7314202.67647  -5699376.68546  19968586.6364   19968588.4874
       412.3444        321.3074
 -13225782.02446 -10152894.16745  22057453.6124   22057457.1404
      1913.4224       1490.9784
   9895464.08245   7710746.78744  23521589.3004   23521593.9294
     -3048.6254      -2375.5524
  -3050897.45844  -2218405.23343  23823308.9874   23823314.6944
      1850.4384       1441.8994
  -9169632.53047  -7145162.12446  21018969.0654   21018972.4524
      1295.2034       1009.2494
   9537219.46845   7398646.77645  22927793.8154   22927799.8274
     -3039.0164      -2368.0644
 -13498706.95046 -10324639.20045  22055031.4724   22055036.0304
      2886.1884       2248.9774
 98  6 11 21 17 44.9990000  0  7G 6G26G10G22G17G30G23
  -7320318.16847  -5704142.00646  19967422.8474   19967424.8864
       402.9224        313.9654
 -13254414.85046 -10175205.42045  22052005.5034   22052008.9374
      1904.0314       1483.6614
   9941220.88745   7746401.40244  23530296.7924   23530303.0624
     -3052.4534      -2378.5354
  -3078579.73144  -2239975.79443  23818041.3944   23818046.9604
      1840.3284       1434.0224
  -9189028.96447  -7160276.21846  21015277.9254   21015281.3704
      1290.7664       1005.7914
   9582834.03745   7434190.51045  22936473.5034   22936479.7374
     -3043.1564      -2371.2914
 -13541944.33346 -10358330.62746  22046803.6204   22046808.3434
      2878.6414       2243.0974
 98  6 11 21 17 59.9990000  0  7G 6G26G10G22G17G30G23
  -7326290.52347  -5708795.79546  19966286.2764   19966288.4334
       393.4694        306.5994
 -13282902.87146 -10197403.83245  22046584.1984   22046587.3044
      1894.4384       1476.1854
   9987036.48345   7782101.83144  23539015.0264   23539020.5344
     -3056.2194      -2381.4694
  -3106108.88145  -2261427.08043  23812802.5034   23812808.1284
      1830.3284       1426.2304
  -9208354.70147  -7175335.23246  21011600.3234   21011603.7334
      1286.0634       1002.1274
   9628514.60045   7469785.64445  22945166.2694   22945172.6674
     -3047.5314      -2374.7004
 -13585068.52046 -10391933.83545  22038597.0194   22038602.2334
      2871.3444       2237.4114
 98  6 11 21 18 14.9990000  0  7G 6G26G10G22G17G30G23
  -7332120.15347  -5713338.36446  19965176.9334   19965179.0194
       384.1414        299.3304
 -13311243.92846 -10219487.72045  22041190.5814   22041193.9444
      1884.6094       1468.5274
  10032910.27545   7817847.63143  23547744.6754   23547749.7144
     -3060.0164      -2384.4284
  -3133486.00745  -2282759.90543  23807593.8394   23807598.9374
      1820.2504       1418.3774
  -9227606.77447  -7190336.83846  21007936.8084   21007940.1014
      1281.2344        998.3644
   9674262.79345   7505433.46545  22953872.2064   22953877.5974
     -3052.0004      -2378.1824
 -13628079.85546 -10425449.11246  22030412.4254   22030417.7454
      2863.7664       2231.5064
 98  6 11 21 18 29.9990000  0  7G 6G26G10G22G17G30G23
  -7337814.98647  -5717775.90046  19964092.9954   19964094.8124
       375.1724        292.3424
 -13339438.52046 -10241457.49345  22035825.6674   22035829.2184
      1874.6094       1460.7354
  10078838.49445   7853635.79844  23556484.3784   23556490.0264
     -3063.7814      -2387.3624
  -3160713.89945  -2303976.45543  23802411.9954   23802417.6204
      1810.0784       1410.4504
  -9246789.96947  -7205284.77646  21004286.3474   21004289.6054
      1276.4844        994.6634
   9720078.87945   7541134.23245  22962590.7454   22962596.8974
     -3056.8284      -2381.9444
 -13670979.76946 -10458877.56746  22022248.9334   22022254.0304
      2856.1724       2225.5884
 98  6 11 21 18 44.9990000  0  7G 6G26G10G22G17G30G23
  -7343378.78047  -5722111.33146  19963034.3234   19963036.3744
       366.5314        285.6094
 -13367485.35046 -10263312.12845  22030488.4094   22030491.6444
      1864.7344       1453.0404
  10124819.51345   7889465.13443  23565234.4254   23565239.8864
     -3067.2034      -2390.0284
  -3187792.33245  -2325076.51743  23797259.3784   23797265.8824
      1800.2194       1402.7684
  -9265904.17047  -7220178.95346  21000649.3624   21000652.7024
      1271.9064        991.0964
   9765963.26346   7576888.20945  22971322.6204   22971328.9834
     -3061.2194      -2385.3654
 -13713767.82446 -10492218.86246  22014106.5814   22014111.5734
      2848.7194       2219.7814
 98  6 11 21 18 59.9990000  0  7G 6G26G10G22G17G30G23
  -7348808.53447  -5726342.31646  19962001.4014   19962003.1014
       357.6724        278.7054
 -13395377.22546 -10285046.00845  22025180.7304   22025184.1984
      1854.3914       1444.9804
  10170854.67845   7925336.68244  23573994.4724   23573998.2104
     -3070.5624      -2392.6464
  -3214717.52445  -2346057.19643  23792135.4724   23792140.9684
      1790.0634       1394.8544
  -9284945.81247  -7235016.58646  20997025.5194   20997028.8124
      1267.2344        987.4554
   9811916.57046   7612695.86345  22980067.1674   22980073.0974
     -3065.6564      -2388.8234
 -13756438.54146 -10525468.72546  22005986.3234   22005991.5264
      2840.9064       2213.6934
 98  6 11 21 19 14.9990000  0  7G 6G26G10G22G17G30G23
  -7354107.17247  -5730471.13146  19960992.8944   19960994.7224
       348.8134        271.8024
 -13423117.61946 -10306661.86245  22019901.9874   22019905.6794
      1844.4384       1437.2244
  10216938.90745   7961246.41844  23582763.7374   23582768.7184
     -3073.9374      -2395.2764
  -3241493.87445  -2366921.85243  23787040.4804   23787045.1204
      1780.2194       1387.1834
  -9303918.63247  -7249800.59847  20993415.2224   20993418.4334
      1262.4694        983.7424
   9857933.57045   7648553.16345  22988824.0584   22988829.6714
     -3069.8914      -2392.1234
 -13798993.19746 -10558628.14546  21997888.9724   21997894.1164
      2833.0634       2207.5814
 98  6 11 21 19 29.9990000  0  7G 6G26G10G22G17G30G23
  -7359270.94347  -5734494.85846  19960010.4404   19960012.4334
       339.7814        264.7654
 -13450709.11546 -10328161.67345  22014650.8624   22014654.2844
      1834.5164       1429.4934
  10263074.57345   7997196.28744  23591543.5894   23591548.0894
     -3077.4534      -2398.0154
  -3268122.70245  -2387671.60743  23781972.7764   23781979.2224
      1770.3594       1379.5014
  -9322817.22147  -7264526.76746  20989819.0654   20989822.2184
      1257.4064        979.7974
   9904014.97146   7684460.65045  22997593.2924   22997599.0224
     -3074.1724      -2395.4594
 -13841427.83546 -10591694.05046  21989813.5894   21989818.5344
      2824.9694       2201.2744
 98  6 11 21 19 44.9990000  0  7G 6G26G10G22G17G30G23
  -7364300.01047  -5738413.60946  19959053.4174   19959055.3864
       330.6094        257.6184
 -13478153.58946 -10349546.94045  22009428.6444   22009432.4524
      1824.6254       1421.7864
  10309261.44345   8033186.02244  23600332.6754   23600336.0504
     -3080.8594      -2400.6704
  -3294605.95845  -2408307.89143  23776933.1754   23776939.5854
      1760.7034       1371.9764
  -9341641.60247  -7279195.10747  20986236.8004   20986240.0694
      1252.4224        975.9134
   9950155.73546   7720414.38045  23006373.4094   23006379.3864
     -3078.0004      -2398.4424
 -13883743.73446 -10624667.43446  21981760.9404   21981766.0504
      2817.1724       2195.1994
 98  6 11 21 19 59.9990000  0  7G 6G26G10G22G17G30G23
  -7369187.28247  -5742221.88246  19958123.4724   19958125.1944
       321.0004        250.1304
 -13505446.10546 -10370813.79145  22004235.1594   22004239.3434
      1814.4224       1413.8354
  10355501.40645   8069217.12043  23609131.5194   23609135.5034
     -3084.4694      -2403.4824
  -3320943.12145  -2428830.33943  23771921.9874   23771926.4054
      1750.9534       1364.3794
  -9360390.47347  -7293804.61247  20982668.7144   20982672.0194
      1247.4694        972.0544
   9996355.29846   7756413.94545  23015164.6054   23015170.5114
     -3081.8444      -2401.4374
 -13925943.22146 -10657550.10046  21973731.0264   21973735.7024
      2809.5004       2189.2214
 98  6 11 21 20 14.9990000  0  7G 6G26G10G22G17G30G23
  -7373927.63747  -5745915.67346  19957221.1904   19957223.0304
       311.1414        242.4474
 -13532586.48646 -10391962.08545  21999070.2764   21999073.5224
      1804.4534       1406.0674
  10401798.19845   8105292.53244  23617941.7844   23617944.9724
     -3088.3284      -2406.4894
  -3347133.87445  -2449238.73943  23766937.8474   23766941.4214
      1741.2194       1356.7944
  -9379064.98247  -7308356.17347  20979115.4874   20979118.8514
      1242.6414        968.2914
  10042611.55145   7792457.69345  23023967.5264   23023973.4684
     -3085.5314      -2404.3104
 -13968027.25446 -10690342.79246  21965722.4014   21965727.0074
      2801.7664       2183.1944
 98  6 11 21 20 29.9990000  0  7G 6G26G10G22G17G30G23
  -7378519.53947  -5749493.78546  19956347.5034   19956349.5304
       301.0784        234.6064
 -13559577.11346 -10412993.70645  21993934.3234   21993937.3124
      1794.3284       1398.1784
  10448153.89245   8141413.80744  23626762.6284   23626769.1204
     -3092.3754      -2409.6434
  -3373176.22345  -2469531.47843  23761982.3864   23761986.5694
      1731.1564       1348.9534
  -9397668.51547  -7322852.42246  20975575.2924   20975578.6904
      1237.8754        964.5784
  10088923.43046   7828544.74045  23032780.6514   23032786.0424
     -3089.4064      -2407.3304
 -14009992.75546 -10723043.14046  21957736.8864   21957741.5264
      2793.7344       2176.9364
 98  6 11 21 20 44.9990000  0  7G 6G26G10G22G17G30G23
  -7382957.56047  -5752951.98646  19955503.0504   19955505.1124
       290.7344        226.5464
 -13586415.50646 -10433906.70045  21988827.1284   21988830.5154
      1784.2194       1390.3004
  10494571.01745   8177582.96444  23635596.0584   23635601.0154
     -3096.4064      -2412.7844
  -3399068.03145  -2489706.93443  23757055.0654   23757059.0974
      1721.2504       1341.2344
  -9416199.22247  -7337291.92847  20972048.9724   20972052.3704
      1232.9534        960.7434
  10135294.23145   7864677.72945  23041604.2304   23041610.3354
     -3093.2034      -2410.2884
 -14051840.40046 -10755651.64646  21949773.4484   21949778.4174
      2786.0634       2170.9584
 98  6 11 21 20 59.9990000  0  7G 6G26G10G22G17G30G23
  -7387239.56547  -5756288.62246  19954688.0894   19954690.1754
       280.2974        218.4134
 -13613103.04546 -10454702.13945  21983748.5814   21983752.0264
      1774.2344       1382.5204
  10541046.22645   8213797.39044  23644439.6904   23644443.8624
     -3100.1724      -2415.7184
  -3424812.52545  -2509767.52343  23752156.2764   23752161.1634
      1711.3754       1333.5394
  -9434655.52547  -7351673.45847  20968536.9174   20968540.3744
      1227.9694        956.8594
  10181718.47546   7900852.37545  23050438.9334   23050444.4294
     -3096.6724      -2412.9914
 -14093573.68446 -10788171.04046  21941831.3084   21941836.2654
      2778.4694       2165.0414
 98  6 11 21 21 14.9990000  0  7G 6G26G10G22G17G30G23
  -7391367.22847  -5759504.99246  19953902.7764   19953904.7454
       270.0784        210.4504
 -13639644.93946 -10475384.10345  21978698.0264   21978701.5194
      1764.7664       1375.1424
  10587576.14645   8250054.42444  23653294.1444   23653299.2884
     -3103.8594      -2418.5924
  -3450410.27945  -2529713.85943  23747284.5814   23747289.8194
      1701.7034       1326.0024
  -9453038.61747  -7365997.93947  20965038.7224   20965041.9094
      1223.0474        953.0244
  10228193.79045   7937066.81345  23059282.8784   23059288.2334
     -3100.0004      -2415.5844
 -14135195.81646 -10820603.80946  21933911.1904   21933915.9484
      2771.1724       2159.3554
 98  6 11 21 21 29.9990000  0  7G 6G26G10G22G17G30G23
  -7395339.35547  -5762600.15846  19953146.8154   19953148.6554
       259.6094        202.2934
 -13666044.81546 -10495955.38745  21973673.8864   21973677.2844
      1755.2974       1367.7644
  10634163.79945   8286356.45743  23662159.3864   23662162.9254
     -3107.6254      -2421.5264
  -3475862.35945  -2549546.62943  23742441.3704   23742445.0624
      1692.0164       1318.4544
  -9471343.89147  -7380261.78447  20961555.3314   20961558.6244
      1217.7814        948.9204
  10274721.37845   7973321.97645  23068136.6364   23068142.5774
     -3103.5624      -2418.3604
 -14176707.94646 -10852950.89046  21926011.8004   21926016.6284
      2763.8914       2153.6814
 98  6 11 21 21 44.9990000  0  7G 6G26G10G22G17G30G23
  -7399157.82947  -5765575.60246  19952420.3394   19952422.0974
       249.3444        194.2944
 -13692304.96946 -10516417.80145  21968676.7454   21968680.3664
      1745.8914       1360.4344
  10680802.76145   8322698.46643  23671034.2064   23671038.2144
     -3111.0624      -2424.2054
  -3501171.52045  -2569268.06543  23737624.9014   23737630.1754
      1682.4224       1310.9784
  -9489575.07547  -7394467.89447  20958086.1054   20958089.4334
      1212.8914        945.1104
  10321297.54245   8009614.98745  23077000.3394   23077006.6554
     -3106.7504      -2420.8444
 -14218115.30946 -10885216.31846  21918132.0584   21918137.0854
      2756.9844       2148.3004
 98  6 11 21 21 59.9990000  0  7G 6G26G10G22G17G30G23
  -7402819.39747  -5768428.78346  19951723.6124   19951725.3354
       239.0314        186.2584
 -13718421.80446 -10536768.54045  21963707.1124   21963710.5584
      1736.4224       1353.0564
  10727495.16045   8359082.12343  23679919.7694   23679925.1714
     -3114.5164      -2426.8954
  -3526334.42745  -2588875.51843  23732836.9564   23732842.2184
      1672.6724       1303.3814
  -9507730.82847  -7408615.22847  20954630.9804   20954634.2964
      1207.9844        941.2874
  10367923.68845   8045946.93945  23085872.6834   23085878.9404
     -3109.9694      -2423.3524
 -14259417.50246 -10917399.79146  21910272.8474   21910277.9444
      2750.0474       2142.8944
 98  6 11 21 22 14.9990000  0  7G 6G26G10G22G17G30G23
  -7406330.00447  -5771164.32946  19951055.4174   19951057.3274
       229.2194        178.6124
 -13744397.27046 -10557009.12345  21958764.2224   21958767.8084
      1727.1254       1345.8124
  10774238.71945   8395505.62643  23688814.4644   23688820.0654
     -3117.8594      -2429.5014
  -3551349.85945  -2608368.08443  23728076.8554   23728081.3664
      1662.8284       1295.7104
  -9525813.61547  -7422705.70647  20951190.0114   20951193.4444
      1203.1414        937.5124
  10414597.85945   8082316.32245  23094754.4564   23094759.9524
     -3113.1094      -2425.8004
 -14300614.46846 -10949501.28046  21902432.9254   21902437.8234
      2742.9534       2137.3664
 98  6 11 21 22 29.9990000  0  7G 6G26G10G22G17G30G23
  -7409692.02347  -5773784.09246  19950415.7924   19950418.0194
       219.1884        170.7954
 -13770232.24946 -10577140.23445  21953847.7844   21953850.8904
      1717.6254       1338.4094
  10821033.69145   8431969.19343  23697719.6984   23697724.7264
     -3121.2814      -2432.1674
  -3576214.23545  -2627742.91443  23723345.3084   23723351.4374
      1652.4844       1287.6504
  -9543820.86247  -7436737.31347  20947763.2304   20947766.6284
      1198.0004        933.5064
  10461321.95145   8118724.60445  23103645.9404   23103652.0464
     -3116.6414      -2428.5514
 -14341701.43346 -10981517.04146  21894614.3864   21894619.0734
      2735.4534       2131.5224
 98  6 11 21 22 44.9990000  0  7G 6G26G10G22G17G30G23
  -7412907.79847  -5776289.89746  19949803.8234   19949805.9804
       209.6724        163.3814
 -13795924.85446 -10597160.41245  21948958.4724   21948961.9054
      1708.1254       1331.0064
  10867874.37545   8468468.42043  23706633.2764   23706636.6874
     -3124.0624      -2434.3344
  -3600926.34845  -2646999.07643  23718642.1364   23718647.5154
      1642.5474       1279.9074
  -9561752.90747  -7450710.33247  20944351.1514   20944354.4334
      1192.9694        929.5864
  10508095.35045   8155171.29745  23112546.3154   23112552.1054
     -3119.7034      -2430.9374
 -14382678.44346 -11013447.13746  21886816.7924   21886821.7374
      2728.2664       2125.9214
 98  6 11 21 22 59.9990000  0  7G 6G26G10G22G17G30G23
  -7415982.39447  -5778685.68946  19949218.5814   19949220.5504
       200.4844        156.2224
 -13821476.05946 -10617070.40145  21944096.2304   21944099.7924
      1698.8754       1323.7994
  10914757.43045   8505000.59843  23715555.1284   23715561.2104
     -3126.8284      -2436.4894
  -3625489.64845  -2666139.32443  23713968.3704   23713972.3194
      1632.7664       1272.2854
  -9579609.31847  -7464624.40947  20940952.7694   20940955.9444
      1188.1094        925.8004
  10554912.86045   8191652.37145  23121456.0034   23121462.1904
     -3122.3754      -2433.0194
 -14423548.08246 -11045293.55246  21879039.3624   21879044.0384
      2721.1564       2120.3814
 98  6 11 21 23 14.9990000  0  7G 6G26G10G22G17G30G23
  -7418918.83447  -5780973.83446  19948659.9644   19948661.8154
       191.0944        148.9044
 -13846888.98046 -10636872.64045  21939260.1444   21939263.9404
      1689.5314       1316.5184
  10961682.10345   8541565.27143  23724484.5264   23724488.8744
     -3129.8284      -2438.8274
  -3649904.66445  -2685164.04543  23709322.1904   23709327.5814
      1622.5944       1264.3594
  -9597394.76247  -7478483.18547  20937568.6834   20937571.9174
      1183.3594        922.0984
  10601769.21945   8228163.70845  23130372.1594   23130377.4804
     -3125.1564      -2435.1874
 -14464308.62146 -11077054.96546  21871283.0424   21871287.4724
      2713.6094       2114.5014
 98  6 11 21 23 29.9990000  0  7G 6G26G10G22G17G30G23
  -7421714.93247  -5783152.61846  19948127.8394   19948129.6554
       181.6414        141.5384
 -13872162.06346 -10656565.91145  21934451.1754   21934454.5264
      1680.1254       1309.1884
  11008651.70445   8578164.91943  23733422.9564   23733428.2064
     -3132.8444      -2441.1774
  -3674169.40045  -2704071.60143  23704704.7764   23704709.3474
      1612.6254       1256.5914
  -9615110.82547  -7492287.90147  20934197.3004   20934200.4174
      1178.7194        918.4824
  10648667.44045   8264707.66845  23139296.8084   23139302.9014
     -3127.9694      -2437.3784
 -14504957.78646 -11108729.59646  21863547.6054   21863552.0694
      2706.2034       2108.7304
 98  6 11 21 23 44.9990000  0  7G 6G26G10G22G17G30G23
  -7424366.70047  -5785218.94046  19947623.3084   19947625.2304
       171.8134        133.8804
 -13897290.63246 -10676146.58245  21929668.8864   21929672.4954
      1670.1884       1301.4454
  11055668.23645   8614801.12243  23742370.0734   23742373.4834
     -3136.1564      -2443.7584
  -3698281.02445  -2722859.85243  23700116.4014   23700121.6404
      1602.1094       1248.3974
  -9632756.86047  -7506038.04947  20930839.3944   20930842.5694
      1174.0004        914.8054
  10695609.24745   8301285.59245  23148229.6514   23148235.6754
     -3131.0164      -2439.7524
 -14545493.82346 -11140316.06646  21855833.6984   21855838.4914
      2698.4694       2102.7034
 98  6 11 21 23 59.9990000  0  7G 6G26G10G22G17G30G23
  -7426871.20047  -5787170.50746  19947146.6834   19947148.6754
       162.0944        126.3074
 -13922267.89346 -10695609.33945  21924916.3624   21924919.4914
      1660.0784       1293.5674
  11102736.67145   8651477.81543  23751326.4334   23751331.1904
     -3139.6874      -2446.5104
  -3722233.24245  -2741523.91643  23695558.2764   23695564.7104
      1591.4844       1240.1184
  -9650331.43047  -7519732.51447  20927494.9254   20927498.0774
      1169.1884        911.0554
  10742597.92545   8337900.07045  23157171.2844   23157178.6594
     -3134.1874      -2442.2244
 -14585911.59446 -11171810.38746  21848142.4804   21848147.0624
      2690.4844       2096.4814
 98  6 11 21 24 14.9990000  0  7G 6G26G10G22G17G30G23
  -7429233.33547  -5789011.14046  19946697.1364   19946699.2574
       152.7974        119.0634
 -13947094.84646 -10714954.97645  21920192.1984   21920195.5734
      1650.0634       1285.7634
  11149856.08245   8688194.19943  23760293.2374   23760297.3864
     -3143.0164      -2449.1034
  -3746027.71945  -2760065.07643  23691030.2844   23691037.1164
      1581.0474       1231.9854
  -9667835.42047  -7533371.97547  20924164.1054   20924167.4444
      1164.5784        907.4634
  10789633.04445   8374550.68445  23166121.8394   23166128.9214
     -3137.2664      -2444.6234
 -14626210.24046 -11203211.88446  21840473.9484   21840478.5194
      2682.5944       2090.3334
 98  6 11 21 24 29.9990000  0  7G 6G26G10G22G17G30G23
  -7431456.16547  -5790743.21346  19946274.0424   19946276.2574
       143.5944        111.8914
 -13971772.02846 -10734183.91146  21915495.7694   21915499.0034
      1640.2974       1278.1534
  11197026.41845   8724950.25344  23769268.8554   23769272.8744
     -3146.2814      -2451.6484
  -3769667.77445  -2778485.88843  23686531.9564   23686537.0424
      1571.0944       1224.2294
  -9685269.97147  -7546957.32947  20920846.3624   20920849.5854
      1160.0944        903.9694
  10836715.89045   8411238.49945  23175081.4094   23175088.4334
     -3140.3444      -2447.0214
 -14666391.40246 -11234521.82646  21832827.6364   21832832.5224
      2674.9844       2084.4034
 98  6 11 21 24 44.9990000  0  7G 6G26G10G22G17G30G23
  -7433535.47447  -5792363.45646  19945878.4404   19945880.4914
       133.7504        104.2214
 -13996298.39546 -10753295.33545  21910828.6444   21910831.9014
      1630.0164       1270.1424
  11244248.39645   8761746.58643  23778255.6594   23778260.5114
     -3149.8284      -2454.4124
  -3793156.59845  -2796788.86743  23682062.6054   23682067.3744
      1560.9534       1216.3274
  -9702635.21347  -7560488.68147  20917541.7764   20917544.9764
      1155.4534        900.3534
  10883847.43245   8447964.26545  23184051.1754   23184056.8234
     -3143.7034      -2449.6394
 -14706456.45546 -11265741.30346  21825203.4254   21825207.9724
      2667.1724       2078.3164
 98  6 11 21 24 59.9990000  0  7G 6G26G10G22G17G30G23
  -7435466.32547  -5793868.02146  19945510.9404   19945513.0154
       123.5784         96.2954
 -14020670.16446 -10772286.28445  21906190.9334   21906194.2844
      1619.5474       1261.9854
  11291524.67745   8798585.20943  23787251.3394   23787256.4374
     -3153.7974      -2457.5044
  -3816495.55145  -2814975.06143  23677620.6754   23677627.1794
      1550.7974       1208.4134
  -9719931.05947  -7573965.94947  20914250.5114   20914253.7694
      1150.6414        896.6034
  10931028.61345   8484728.71345  23193029.0584   23193035.2924
     -3147.2504      -2452.4034
 -14746403.75046 -11296869.02346  21817601.7924   21817606.3514
      2659.0474       2071.9854
 98  6 11 21 25 14.9990000  0  7G 6G26G10G22G17G30G23
  -7437244.62947  -5795253.71546  19945172.5974   19945174.5774
       113.2814         88.2714
 -14044887.85146 -10791157.16945  21901582.2694   21901585.7264
      1609.2344       1253.9494
  11338859.79245   8835469.67443  23796258.9724   23796264.9484
     -3157.7344      -2460.5724
  -3839683.29845  -2833043.41443  23673208.0654   23673212.2844
      1540.6884       1200.5364
  -9737158.68147  -7587390.05947  20910972.2844   20910975.6714
      1146.1254        893.0844
  10978262.82445   8521534.46545  23202017.3704   23202023.2064
     -3150.8754      -2455.2274
 -14786231.22546 -11327903.36446  21810022.6754   21810027.2334
      2651.0164       2065.7264
 98  6 11 21 25 29.9990000  0  7G 6G26G10G22G17G30G23
  -7438871.57147  -5796521.46446  19944863.1204   19944865.4054
       103.5474         80.6864
 -14068952.96746 -10809909.16746  21897002.8624   21897006.0974
      1599.3594       1246.2544
  11386249.91745   8872397.00443  23805277.8784   23805281.9914
     -3161.0624      -2463.1664
  -3862721.67745  -2850995.41343  23668824.2064   23668829.7964
      1531.0004       1192.9874
  -9754320.68647  -7600763.04347  20907706.5114   20907709.7104
      1141.9844        889.8584
  11025548.78745   8558380.58945  23211015.6594   23211022.0814
     -3154.0624      -2457.7114
 -14825940.45946 -11358845.58246  21802466.4484   21802471.4054
      2643.4534       2059.8344
 98  6 11 21 25 44.9990000  0  7G 6G26G10G22G17G30G23
  -7440347.35047  -5797671.42746  19944582.1124   19944584.3394
        93.3754         72.7604
 -14092862.44046 -10828539.89045  21892452.9874   21892456.0114
      1588.7344       1237.9754
  11433695.18745   8909367.35543  23814306.3314   23814309.6944
     -3164.8594      -2466.1244
  -3885609.58445  -2868830.12543  23664468.8394   23664474.5464
      1520.7974       1185.0374
  -9771413.17347  -7614081.85247  20904453.8944   20904457.1514
      1137.1564        886.0964
  11072888.93845   8595268.91545  23220024.4094   23220030.2694
     -3157.8284      -2460.6454
 -14865530.91646 -11389695.25146  21794932.3004   21794936.8824
      2635.3134       2053.4904
 98  6 11 21 25 59.9990000  0  7G 6G26G10G22G17G30G23
  -7441675.04247  -5798705.99346  19944329.5814   19944331.4094
        83.4844         65.0534
 -14116616.10246 -10847049.18946  21887932.4334   21887935.3044
      1578.2664       1229.8174
  11481194.59045   8946379.83243  23823344.9954   23823349.2844
     -3168.4844      -2468.9494
  -3908346.84245  -2886547.45843  23660141.8864   23660146.8904
      1510.7344       1177.1964
  -9788437.52347  -7627347.57547  20901214.2764   20901217.6164
      1132.6254        882.5654
  11120282.75445   8632199.04545  23229043.1514   23229049.7494
     -3161.4374      -2463.4584
 -14904999.63846 -11420450.05346  21787421.7614   21787426.5544
      2627.0474       2047.0504
 98  6 11 21 26 14.9990000  0  7G 6G26G10G22G17G30G23
  -7442853.77547  -5799624.49246  19944105.0114   19944106.8864
        73.6254         57.3704
 -14140211.67146 -10865435.31446  21883442.6834   21883445.3554
      1567.7974       1221.6604
  11528748.05145   8983434.43043  23832393.7844   23832396.7844
     -3171.9844      -2471.6764
  -3930934.08345  -2904147.87743  23655844.0424   23655850.1714
      1500.8914       1169.5254
  -9805392.63947  -7640559.34247  20897987.8474   20897991.1164
      1128.0474        878.9984
  11167730.80645   8669171.42445  23238072.7064   23238078.9174
     -3165.0004      -2466.2344
 -14944343.34946 -11451107.44246  21779934.8084   21779939.5424
      2618.7664       2040.5974
 98  6 11 21 26 29.9990000  0  7G 6G26G10G22G17G30G23
  -7443881.90547  -5800425.63946  19943909.6054   19943911.4804
        63.5784         49.5414
 -14163648.25546 -10883697.54045  21878982.4644   21878985.5694
      1557.2814       1213.4664
  11576356.47445   9020531.88543  23841453.6904   23841456.6674
     -3175.6254      -2474.5134
  -3953372.97745  -2921632.75043  23651574.1444   23651578.5734
      1491.1564       1161.9404
  -9822278.54247  -7653717.17247  20894774.6594   20894777.7884
      1123.5634        875.5034
  11215233.70945   8706186.57045  23247111.9724   23247118.3354
     -3168.5624      -2469.0104
 -14983562.16346 -11481667.51946  21772471.8154   21772476.4444
      2610.5784       2034.2174
 98  6 11 21 26 44.9990000  0  7G 6G26G10G22G17G30G23
  -7444758.25347  -5801108.51246  19943742.7454   19943744.4684
        53.1094         41.3844
 -14186929.60846 -10901838.82745  21874552.2304   21874555.0544
      1546.7344       1205.2484
  11624016.92745   9057669.87243  23850523.1674   23850528.1014
     -3179.1724      -2477.2774
  -3975666.34145  -2939004.19844  23647331.5194   23647335.8904
      1481.0634       1154.0754
  -9839096.98947  -7666822.44747  20891574.0814   20891577.2104
      1118.7504        871.7534
  11262788.01245   8743241.75345  23256161.5344   23256167.4404
     -3172.0944      -2471.7614
 -15022658.24646 -11512131.95146  21765031.8234   21765036.4994
      2602.1094       2027.6184
 98  6 11 21 26 59.9990000  0  7G 6G26G10G22G17G30G23
  -7445478.78947  -5801669.97946  19943605.7304   19943607.5224
        42.8914         33.4214
 -14210052.47846 -10919856.60745  21870152.2454   21870155.4444
      1536.2664       1197.0904
  11671728.70045   9094847.81543  23859602.7614   23859607.7304
     -3182.5164      -2479.8824
  -3997805.64245  -2956255.55944  23643118.7144   23643123.9174
      1470.7814       1146.0634
  -9855843.19047  -7679871.42547  20888387.1754   20888390.4684
      1113.9534        868.0154
  11310392.97845   8780336.40245  23265220.3704   23265226.4294
     -3175.3444      -2474.2944
 -15061628.96346 -11542498.70146  21757616.3314   21757620.8904
      2593.8444       2021.1774
 98  6 11 21 27 14.9990000  0  7G 6G26G10G22G17G30G23
  -7446051.64247  -5802116.37046  19943496.8314   19943498.9054
        33.5634         26.1534
 -14233020.96546 -10937754.09146  21865781.6124   21865784.7064
      1526.2664       1189.2984
  11719488.01045   9132062.84843  23868690.3944   23868694.0264
     -3185.2814      -2482.0374
  -4019792.76445  -2973388.41044  23638935.0194   23638940.0344
      1460.8594       1138.3324
  -9872517.76247  -7692864.58747  20885214.1904   20885217.3664
      1109.3914        864.4604
  11358044.99145   8817467.72645  23274288.3004   23274294.7694
     -3178.1564      -2476.4854
 -15100477.97746 -11572770.62046  21750223.2614   21750227.8784
      2586.1564       2015.1874
 98  6 11 21 27 29.9990000  0  7G 6G26G10G22G17G30G23
  -7446480.83447  -5802450.80646  19943414.8474   19943416.7334
        23.9694         18.6774
 -14255834.81746 -10955531.08346  21861440.0584   21861443.5854
      1515.9064       1181.2264
  11767291.94345   9169312.68042  23877787.1444   23877792.3824
     -3188.2504      -2484.3514
  -4041626.44045  -2990401.65044  23634779.6904   23634785.3394
      1450.6094       1130.3454
  -9889118.27147  -7705800.04247  20882055.0264   20882058.3314
      1104.2814        860.4794
  11405742.88945   8854634.80545  23283365.0424   23283371.5694
     -3181.1874      -2478.8474
 -15139208.21446 -11602949.97946  21742853.1284   21742857.8624
      2578.1414       2008.9414
 98  6 11 21 27 44.9990000  0  7G 6G26G10G22G17G30G23
  -7446768.95547  -5802675.32346  19943360.1444   19943362.2184
        14.3444         11.1774
 -14278496.66446 -10973189.62745  21857127.7224   21857130.9804
      1505.5944       1173.1904
  11815137.18345   9206594.61043  23886892.2534   23886895.0074
     -3191.2034      -2486.6524
  -4063308.70245  -3007296.89444  23630653.4484   23630659.1674
      1440.3134       1122.3214
  -9905644.87947  -7718677.90847  20878910.2924   20878913.6324
      1099.2034        856.5224
  11453481.83645   8891833.86945  23292449.5974   23292455.7144
     -3184.1094      -2481.1244
 -15177821.20346 -11633037.98346  21735505.2694   21735509.9564
      2570.2194       2002.7684
 98  6 11 21 27 59.9990000  0  7G 6G26G10G22G17G30G23
  -7446912.59747  -5802787.26246  19943332.9254   19943335.0224
         4.7814          3.7264
 -14301004.59746 -10990728.24246  21852844.5424   21852847.7654
      1495.4384       1165.2764
  11863026.53845   9243910.97142  23896004.9174   23896008.7144
     -3194.0474      -2488.8684
  -4084839.06045  -3024073.80344  23626556.6514   23626562.6634
      1430.3914       1114.5904
  -9922095.90147  -7731496.87747  20875779.8554   20875783.1834
      1094.2194        852.6384
  11501264.64045   8929067.10445  23301542.7374   23301548.5734
     -3186.9064      -2483.3044
 -15216317.15346 -11663034.78046  21728179.8004   21728184.5224
      2562.5784       1996.8144
 98  6 11 21 28 14.9990000  0  7G 6G26G10G22G17G30G23
  -7446911.34247  -5802786.29446  19943333.0654   19943334.8944
        -4.9694         -3.8724
 -14323359.39846 -11008147.53246  21848590.5894   21848593.6014
      1485.1884       1157.2894
  11910958.44145   9281260.46743  23905126.0194   23905129.7334
     -3196.8284      -2491.0354
  -4106220.36445  -3040734.56244  23622488.1364   23622493.5974
      1420.4844       1106.8714
  -9938470.62647  -7744256.39547  20872663.7764   20872667.2924
      1089.0634        848.6204
  11549088.10545   8966332.02345  23310642.6444   23310649.6904
     -3189.5004      -2485.3254
 -15254700.54246 -11692943.88446  21720875.6514   21720880.1054
      2555.3134       1991.1534
 98  6 11 21 28 29.9990000  0  7G 6G26G10G22G17G30G23
  -7446762.44647  -5802670.28546  19943361.5584   19943363.4334
       -14.8914        -11.6034
 -14345560.41446 -11025446.99846  21844365.8394   21844368.9914
      1475.0164       1149.3634
  11958932.69845   9318642.98642  23914255.3154   23914259.5224
     -3199.7034      -2493.2754
  -4127452.05245  -3057278.70744  23618447.9484   23618453.0814
      1410.4384       1099.0424
  -9954764.88347  -7756953.20247  20869563.0194   20869566.4174
      1083.5314        844.3104
  11596951.25245   9003627.87445  23319751.3084   23319758.4604
     -3192.2344      -2487.4554
 -15292975.94646 -11722768.81946  21713592.0344   21713596.1364
      2548.0944       1985.5284
 98  6 11 21 28 44.9990000  0  7G 6G26G10G22G17G30G23
  -7446462.60147  -5802436.64946  19943418.4254   19943420.5344
       -25.0314        -19.5054
 -14367607.93146 -11042626.84546  21840170.5584   21840173.4764
      1464.7194       1141.3394
  12006950.18945   9356059.14042  23923393.8154   23923399.3234
     -3202.5164      -2495.4674
  -4148529.86745  -3073702.99944  23614436.7844   23614441.8704
      1399.9844       1090.8974
  -9970974.96247  -7769584.42747  20866478.3394   20866481.5854
      1077.8444        839.8784
  11644855.84845   9040955.99545  23328867.1124   23328873.0654
     -3194.9224      -2489.5504
 -15331141.82246 -11752508.42546  21706329.0344   21706333.1244
      2540.7664       1979.8174
 98  6 11 21 28 59.9990000  0  7G 6G26G10G22G17G30G23
  -7446010.89347  -5802084.68546  19943504.5814   19943506.4684
       -35.2814        -27.4924
 -14389501.10746 -11059686.43746  21836004.3394   21836007.4094
      1454.2664       1133.1944
  12055007.32644   9393506.24642  23932538.0344   23932543.6364
     -3205.2504      -2497.5974
  -4169450.82645  -3090005.02944  23610455.9094   23610461.3004
      1389.3754       1082.6304
  -9987100.19047  -7782149.52747  20863409.9564   20863413.0854
      1072.1724        835.4594
  11692798.74045   9078313.99145  23337990.7844   23337996.1754
     -3197.5474      -2491.5954
 -15369198.34546 -11782162.81446  21699087.3314   21699091.9834
      2533.3444       1974.0344
 98  6 11 21 29 14.9990000  0  7G 6G26G10G22G17G30G23
  -7445406.49847  -5801613.73946  19943619.6594   19943621.4054
       -45.2034        -35.2234
 -14411237.83546 -11076624.10746  21831867.7614   21831870.7964
      1444.1254       1125.2924
  12103106.52044   9430986.06843  23941690.9564   23941696.3474
     -3207.7664      -2499.5584
  -4190215.54245  -3106185.31744  23606504.2694   23606510.0934
      1379.4694       1074.9114
 -10003143.59647  -7794650.87647  20860356.9254   20860360.1364
      1067.1254        831.5264
  11740780.88645   9115702.54245  23347121.6754   23347127.2184
     -3199.9534      -2493.4704
 -15407143.29646 -11811730.26546  21691866.6904   21691870.8274
      2526.0784       1968.3734
 98  6 11 21 29 29.9990000  0  7G 6G26G10G22G17G30G23
  -7444652.34047  -5801026.09246  19943763.1754   19943765.0034
       -55.6414        -43.3564
 -14432822.13946 -11093443.00946  21827760.0734   21827762.6874
      1433.5784       1117.0744
  12151243.30144   9468495.20043  23950851.4404   23950856.4914
     -3210.6414      -2501.7984
  -4210832.75345  -3122250.66444  23602580.6444   23602586.7724
      1369.2814       1066.9724
 -10019113.09547  -7807094.63047  20857317.9484   20857321.2184
      1062.0004        827.5324
  11788798.92145   9153119.09945  23356259.1754   23356265.4094
     -3202.6254      -2495.5524
 -15444977.70246 -11841211.57546  21684666.9254   21684671.3904
      2518.2974       1962.3094
 98  6 11 21 29 44.9990000  0  7G 6G26G10G22G17G30G23
  -7443739.02247  -5800314.42546  19943937.0344   19943938.8274
       -66.0474        -51.4654
 -14454248.09146 -11110138.53946  21823683.2534   21823686.3124
      1423.3134       1109.0754
  12199423.48944   9506038.19443  23960019.4874   23960022.0194
     -3213.2974      -2503.8684
  -4231297.42645  -3138197.15644  23598686.6204   23598692.5624
      1359.3754       1059.2534
 -10035007.41747  -7819479.80747  20854293.5114   20854296.7574
      1057.3134        823.8804
  11836857.27045   9190567.02645  23365404.3004   23365410.3474
     -3205.0474      -2497.4394
 -15482694.09246 -11870600.92846  21677489.7614   21677494.4724
      2510.6094       1956.3194
 98  6 11 21 29 59.9990000  0  7G 6G26G10G22G17G30G23
  -7442666.51047  -5799478.70746  19944140.9644   19944143.0624
       -76.8754        -59.9034
 -14475516.40846 -11126711.22246  21819636.0654   21819638.7144
      1412.5164       1100.6624
  12247645.77844   9543613.96443  23969195.2924   23969200.2614
     -3216.2194      -2506.1444
  -4251609.90344  -3154025.04743  23594821.0424   23594826.8084
      1349.0314       1051.1934
 -10050828.61547  -7831808.00047  20851282.6124   20851285.6364
      1052.2194        819.9114
  11884954.99545   9228045.67044  23374556.8474   23374564.3624
     -3207.9694      -2499.7164
 -15520292.67746 -11899898.48446  21670335.0894   21670339.7414
      2502.6094       1950.0854
 98  6 11 21 30 14.9990000  0  7G 6G26G10G22G17G30G23
  -7441430.18347  -5798515.34246  19944376.1674   19944378.3234
       -87.9534        -68.5354
 -14496620.94246 -11143156.29446  21815619.8554   21815622.6904
      1401.4844       1092.0664
  12295910.80544   9581223.04643  23978380.8004   23978388.0344
     -3219.0944      -2508.3854
  -4271766.15844  -3169731.20244  23590985.9724   23590992.1244
      1338.4224       1042.9264
 -10066572.86547  -7844076.23947  20848286.7924   20848289.6754
      1047.0474        815.8814
  11933097.15345   9265558.88044  23383718.2454   23383724.8554
     -3210.9844      -2502.0664
 -15557769.40046 -11929101.08446  21663203.0344   21663207.6634
      2494.2664       1943.5844
 98  6 11 21 30 29.9990000  0  7G 6G26G10G22G17G30G23
  -7440031.14947  -5797425.18446  19944642.4014   19944644.4294
       -98.4694        -76.7294
 -14517563.85346 -11159475.41346  21811634.5814   21811637.2304
      1391.0314       1083.9204
  12344215.99344   9618863.35043  23987573.2144   23987577.8664
     -3221.5314      -2510.2844
  -4291763.76444  -3185313.73144  23587180.0114   23587186.7724
      1328.0314       1034.8304
 -10082245.03047  -7856288.30147  20845304.2694   20845307.3154
      1042.6884        812.4844
  11981282.32245   9303105.64444  23392887.7224   23392893.9444
     -3213.6564      -2504.1484
 -15595122.05846 -11958207.00546  21656095.3394   21656099.5694
      2486.0944       1937.2164
 98  6 11 21 30 44.9990000  0  7G 6G26G10G22G17G30G23
  -7438470.98547  -5796209.47846  19944939.4724   19944941.4644
      -109.3594        -85.2154
 -14538346.44546 -11175669.61246  21807679.7454   21807682.1714
      1380.1094       1075.4104
  12392562.56845   9656535.99143  23996772.3554   23996776.9954
     -3224.4844      -2512.5854
  -4311600.89244  -3200771.27844  23583405.3234   23583410.7374
      1317.1724       1026.3684
 -10097848.94947  -7868447.19147  20842334.9804   20842338.1554
      1038.0784        808.8924
  12029512.97145   9340687.83945  23402065.6204   23402071.2104
     -3216.8914      -2506.6684
 -15632344.97946 -11987211.84046  21649012.0424   21649016.2964
      2477.1414       1930.2394
 98  6 11 21 30 59.9990000  0  7G 6G26G10G22G17G30G23
  -7436751.61447  -5794869.71646  19945266.5974   19945268.7764
      -119.8284        -93.3734
 -14558966.80146 -11191737.40246  21803755.7534   21803758.9174
      1369.3284       1067.0094
  12440949.82145   9694240.29843  24005981.0814   24005985.1594
     -3227.0784      -2514.6064
  -4331279.58645  -3216105.31044  23579660.7144   23579666.5264
      1306.7034       1018.2104
 -10113388.57547  -7880555.98247  20839378.0114   20839381.1404
      1033.9384        805.6664
  12077787.88545   9378304.52844  23411252.5734   23411259.4804
     -3219.7504      -2508.8964
 -15669437.96046 -12016115.42346  21641953.4954   21641957.7844
      2468.6254       1923.6044
 98  6 11 21 31 14.9990000  0  7G 6G26G10G22G17G30G23
  -7434874.18847  -5793406.79146  19945623.5264   19945625.2844
      -130.3594       -101.5794
 -14579422.90546 -11207677.19346  21799863.1444   21799865.9214
      1358.2664       1058.3894
  12489378.09645   9731976.56643  24015196.4014   24015199.0384
     -3229.9534      -2516.8474
  -4350800.07045  -3231316.06544  23575945.7614   23575950.9524
      1296.1414       1009.9804
 -10128864.69047  -7892615.27847  20836432.9254   20836436.2534
      1029.6414        802.3174
  12126109.55545   9415957.68845  23420447.6904   23420454.1364
     -3223.0314      -2511.4534
 -15706400.11646 -12044917.04946  21634919.7064   21634924.1594
      2459.7344       1916.6764
 98  6 11 21 31 29.9990000  0  7G 6G26G10G22G17G30G23
  -7432842.31247  -5791823.52246  19946010.4174   19946012.3154
      -140.5474       -109.5174
 -14599713.94946 -11223488.37146  21796001.6364   21796004.2144
      1347.2194       1049.7814
  12537847.05745   9769744.53243  24024419.2454   24024422.3044
     -3232.5944      -2518.9044
  -4370164.27345  -3246405.04244  23572261.3004   23572266.0114
      1285.6724       1001.8224
 -10144276.29947  -7904624.31247  20833500.1834   20833503.4764
      1025.2344        798.8844
  12174479.03345   9453648.05744  23429652.0034   23429657.8514
     -3226.2194      -2513.9374
 -15743230.89346 -12073616.31746  21627910.8864   21627915.2454
      2451.0474       1909.9074
 98  6 11 21 31 44.9990000  0  7G 6G26G10G22G17G30G23
  -7430658.47847  -5790121.84546  19946426.2224   19946428.4014
      -150.5164       -117.2854
 -14619839.91846 -11239170.93146  21792171.9014   21792175.0304
      1336.4534       1041.3924
  12586355.48045   9807543.27344  24033650.8084   24033655.5194
     -3235.0624      -2520.8284
  -4389369.59245  -3261370.23644  23568606.4804   23568611.5894
      1275.1884        993.6534
 -10159621.03847  -7916581.24547  20830580.1124   20830583.3234
      1020.8594        795.4754
  12222895.39245   9491374.99144  23438865.1514   23438873.0544
     -3229.0944      -2516.1774
 -15779932.73946 -12102215.12646  21620926.8234   21620931.1014
      2442.7034       1903.4054
 98  6 11 21 31 59.9990000  0  7G 6G26G10G22G17G30G23
  -7428325.13047  -5788303.66046  19946870.1834   19946871.9874
      -160.6094       -125.1504
 -14639805.55346 -11254728.54246  21788372.6284   21788375.6874
      1325.6414       1032.9674
  12634901.15145   9845371.04643  24042888.3864   24042892.2764
     -3237.6564      -2522.8494
  -4408416.04445  -3276211.59844  23564982.1364   23564986.9764
      1264.3134        985.1794
 -10174898.99447  -7928486.13447  20827672.8154   20827676.1084
      1016.1414        791.7984
  12271353.58145   9529134.46144  23448086.9174   23448094.3974
     -3231.9844      -2518.4294
 -15816510.66746 -12130717.35646  21613966.2924   21613970.3824
      2434.3444       1896.8914
 98  6 11 21 32 14.9990000  0  7G 6G26G10G22G17G30G23
  -7425841.34447  -5786368.24846  19947342.5974   19947344.4724
      -170.7034       -133.0154
 -14659610.76146 -11270161.14146  21784603.8234   21784606.8004
      1314.9694       1024.6514
  12683484.00945   9883227.76843  24052134.0194   24052139.3624
     -3240.2034      -2524.8344
  -4427301.31045  -3290927.40245  23561388.2764   23561393.5624
      1253.6254        976.8514
 -10190107.89047  -7940337.20647  20824778.8784   20824782.0774
      1011.5784        788.2434
  12319852.69645   9566925.87944  23457317.1054   23457324.4334
     -3234.6874      -2520.5364
 -15852965.59246 -12159123.75546  21607029.1594   21607033.7764
      2426.1564       1890.5114
 98  6 11 21 32 29.9990000  0  7G 6G26G10G22G17G30G23
  -7423209.03447  -5784317.10846  19947843.5194   19947845.5224
      -180.3754       -140.5524
 -14679259.16046 -11285471.56646  21780865.0734   21780868.1204
      1304.6724       1016.6274
  12732104.97045   9921114.20543  24061385.9404   24061389.1164
     -3242.8444      -2526.8914
  -4446029.95645  -3305521.14444  23557824.4644   23557830.2884
      1243.3594        968.8514
 -10205251.36147  -7952137.30247  20821897.1054   20821900.2574
      1007.2974        784.9074
  12368388.88345   9604746.16344  23466552.3314   23466559.7184
     -3236.9844      -2522.3254
 -15889299.35146 -12187435.73546  21600115.0344   21600119.2414
      2418.1884       1884.3024
 98  6 11 21 32 44.9990000  0  7G 6G26G10G22G17G30G23
  -7420433.05547  -5782154.01546  19948371.9174   19948373.8154
      -189.8444       -147.9304
 -14698753.94446 -11300662.28146  21777154.9874   21777157.9644
      1294.5634       1008.7504
  12780768.22045   9959033.57343  24070646.4644   24070650.7304
     -3245.6254      -2529.0584
  -4464604.62345  -3319994.88844  23554289.8084   23554294.9524
      1233.2504        960.9744
 -10220328.42147  -7963885.64847  20819027.9644   20819031.0934
      1002.8444        781.4374
  12416958.77145   9642592.69344  23475794.8004   23475802.1874
     -3239.0164      -2523.9084
 -15925514.74746 -12215655.48146  21593223.1754   21593227.5814
      2410.4534       1878.2754
 98  6 11 21 32 59.9990000  0  7G 6G26G10G22G17G30G23
  -7417515.30347  -5779880.45546  19948927.1754   19948929.0264
      -199.3594       -155.3454
 -14718097.47046 -11315735.13446  21773474.0894   21773476.8314
      1284.4534       1000.8734
  12829470.71445   9996983.53243  24079914.1514   24079919.5074
     -3248.1874      -2531.0554
  -4483030.06445  -3334352.38944  23550783.7454   23550788.4094
      1223.3284        953.2434
 -10235338.10147  -7975581.49647  20816171.5974   20816174.8434
       998.2974        777.8944
  12465556.41545   9680460.83744  23485043.4174   23485050.2024
     -3240.8124      -2525.3084
 -15961616.49046 -12243786.67146  21586353.4334   21586358.1794
      2402.9694       1872.4434
 98  6 11 21 33 14.9990000  0  7G 6G26G10G22G17G30G23
  -7414454.12947  -5777495.13546  19949509.6674   19949511.7534
      -209.0004       -162.8574
 -14737290.51646 -11330690.72846  21769821.8554   21769824.8434
      1274.4224        993.0564
  12878212.53845  10034964.11843  24089189.5194   24089193.1754
     -3250.9064      -2533.1744
  -4501305.27145  -3348592.78744  23547305.5034   23547311.2454
      1213.1414        945.3044
 -10250277.67647  -7987222.71147  20813328.8394   20813331.8394
       993.4384        774.1074
  12514182.05045   9718350.84944  23494296.8314   23494303.0544
     -3242.7814      -2526.8434
 -15997605.37346 -12271829.91046  21579504.9094   21579509.3274
      2395.2664       1866.4414
 98  6 11 21 33 29.9990000  0  7G 6G26G10G22G17G30G23
  -7411247.45047  -5774996.42746  19950119.8944   19950122.0384
      -218.4694       -170.2354
 -14756331.96046 -11345528.19946  21766198.3704   21766201.3704
      1264.5944        985.3984
  12926997.45245  10072978.33943  24098472.7924   24098477.8664
     -3253.6414      -2535.3044
  -4519427.35745  -3362713.87144  23543857.4334   23543862.3314
      1203.2344        937.5854
 -10265142.71047  -7998805.84247  20810500.0194   20810503.2064
       988.6884        770.4064
  12562836.97245   9756263.65444  23503554.8084   23503560.5504
     -3244.3914      -2528.0974
 -16033476.84446 -12299781.67646  21572679.0504   21572683.4094
      2387.7504       1860.5844
 98  6 11 21 33 44.9990000  0  7G 6G26G10G22G17G30G23
  -7407895.18747  -5772384.27946  19950757.7924   19950759.9374
      -228.4224       -177.9914
 -14775225.40346 -11360250.34446  21762602.9334   21762605.9804
      1254.7034        977.6914
  12975826.44745  10111026.85743  24107764.6984   24107769.2924
     -3256.7974      -2537.7644
  -4537398.04245  -3376717.01744  23540437.7924   23540442.9834
      1192.9534        929.5744
 -10279934.48347  -8010331.89147  20807685.1754   20807688.3044
       983.7034        766.5224
  12611517.45745   9794196.40044  23512818.7924   23512825.7104
     -3246.1874      -2529.4974
 -16069234.45646 -12327644.71446  21565874.4174   21565878.8584
      2380.0784       1854.6064
 98  6 11 21 33 59.9990000  0  7G 6G26G10G22G17G30G23
  -7404393.44047  -5769655.64846  19951424.1204   19951426.0774
      -238.5784       -185.9054
 -14793972.78346 -11374858.67146  21759035.4094   21759038.1634
      1244.8134        969.9844
  13024702.23145  10149111.83543  24117065.8784   24117069.6514
     -3260.0474      -2540.2964
  -4555215.54245  -3390600.78845  23537046.9804   23537052.1014
      1182.6564        921.5504
 -10294653.27747  -8021801.07147  20804884.0974   20804887.3904
       978.7194        762.6384
  12660223.38345   9832148.91845  23522087.6904   23522094.2534
     -3247.9844      -2530.8974
 -16104878.48146 -12355419.24446  21559091.4564   21559095.9214
      2372.3914       1848.6164
 98  6 11 21 34 14.9990000  0  7G 6G26G10G22G17G30G23
  -7400741.35247  -5766809.86646  19952119.1284   19952120.8274
      -248.4064       -193.5634
 -14812570.32546 -11389350.24446  21755496.4174   21755499.7454
      1234.8444        962.2164
  13073625.08545  10187233.51342  24126374.9564   24126380.2884
     -3262.9534      -2542.5614
  -4572880.28345  -3404365.52545  23533685.8154   23533690.9014
      1172.7034        913.7954
 -10309298.88347  -8033213.21847  20802097.2304   20802100.7454
       974.0164        758.9734
  12708955.33545   9870121.70644  23531361.0894   23531367.1014
     -3249.6564      -2532.2004
 -16140407.68946 -12383104.30746  21552330.4564   21552334.9564
      2364.7814       1842.6874
 98  6 11 21 34 29.9990000  0  7G 6G26G10G22G17G30G23
  -7396939.19747  -5763847.15246  19952842.7224   19952844.7964
      -258.3914       -201.3434
 -14831015.69046 -11403723.23646  21751986.3314   21751988.8154
      1224.6094        954.2414
  13122593.56144  10225390.75242  24135694.1984   24135699.5894
     -3266.0474      -2544.9724
  -4590396.29445  -3418014.36645  23530352.5974   23530357.3194
      1162.8444        906.1124
 -10323871.63147  -8044568.58947  20799324.0264   20799327.6474
       969.1414        755.1754
  12757716.00445   9908116.91544  23540639.6514   23540647.2024
     -3251.6724      -2533.7704
 -16175819.59546 -12410697.95746  21545591.9644   21545596.5344
      2356.8754       1836.5264
 98  6 11 21 34 44.9990000  0  7G 6G26G10G22G17G30G23
  -7392988.35947  -5760768.58146  19953594.4484   19953596.6404
      -268.2814       -209.0504
 -14849306.63646 -11417975.90146  21748505.5974   21748508.0934
      1214.2814        946.1934
  13171608.65544  10263584.27842  24145021.3784   24145026.3474
     -3269.1254      -2547.3704
  -4607762.96045  -3431546.83745  23527047.8084   23527053.1404
      1152.8134        898.2954
 -10338370.30047  -8055866.24447  20796565.2534   20796568.5464
       964.1094        751.2544
  12806508.63645   9946137.04444  23549924.9644   23549933.2884
     -3253.8754      -2535.4874
 -16211111.67946 -12438198.24646  21538875.9014   21538880.2614
      2348.8754       1830.2924
 98  6 11 21 34 59.9990000  0  8G21G 6G26G10G22G17G30G23
    -35734.88753                  24524964.0654
      3247.4694
  -7388887.69847  -5757573.27146  19954374.9094   19954377.1364
      -278.4694       -216.9894
 -14867441.23146 -11432106.74546  21745054.5734   21745057.7374
      1203.6414        937.9024
  13220666.49643  10301811.18142  24154355.8154   24154360.8904
     -3271.8444      -2549.4894
  -4624978.40845  -3444961.46544  23523771.3704   23523776.3514
      1142.6094        890.3454
 -10352795.26047  -8067106.46447  20793820.3084   20793823.6834
       959.2814        747.4924
  12855333.51745   9984182.27545  23559215.9724   23559222.4174
     -3256.0624      -2537.1924
 -16246283.68246 -12465604.97946  21532182.6444   21532187.2374
      2340.7504       1823.9614
 98  6 11 21 35 14.9990000  0  8G21G 6G26G10G22G17G30G23
    -84419.38743                  24515699.8624
      3243.7344
  -7384634.29847  -5754258.94046  19955184.1674   19955186.1124
      -288.6254       -224.9034
 -14885414.55346 -11446111.90646  21741634.3554   21741637.1674
      1192.8284        929.4764
  13269762.96343  10340068.09342  24163698.9334   24163702.8004
     -3274.3754      -2551.4614
  -4642040.28645  -3458256.42744  23520524.8554   23520531.3584
      1132.3444        882.3464
 -10367149.75347  -8078291.77047  20791088.7224   20791091.8154
       954.7034        743.9254
  12904192.28445  10022253.88445  23568513.3394   23568520.4804
     -3258.4064      -2539.0184
 -16281334.57846 -12492917.32346  21525513.0034   21525517.6204
      2332.7194       1817.7034
 98  6 11 21 35 29.9990000  0  8G21G 6G26G10G22G17G30G23
   -133045.82443                  24506446.1754
      3240.0004
  -7380227.18147  -5750824.83546  19956023.1124   19956025.1754
      -298.7814       -232.8174
 -14903223.49046 -11459988.99046  21738245.4254   21738248.3194
      1181.8754        920.9424
  13318897.65643  10378354.81042  24173048.7454   24173051.2304
     -3276.7034      -2553.2754
  -4658947.08445  -3471430.55744  23517307.8084   23517313.5034
      1122.1414        874.3954
 -10381435.17247  -8089423.25546  20788370.0264   20788373.5424
       950.2974        740.4914
  12953086.01345  10060352.75144  23577817.9874   23577824.7494
     -3260.4694      -2540.6254
 -16316264.36646 -12520135.31046  21518865.8394   21518870.4564
      2324.8284       1811.5544
 98  6 11 21 35 44.9990000  0  8G21G 6G26G10G22G17G30G23
   -181620.05043                  24497203.3084
      3236.3284
  -7375670.93747  -5747274.52946  19956890.0114   19956891.8974
      -308.9694       -240.7554
 -14920871.54146 -11473740.70046  21734887.3474   21734890.2534
      1171.0004        912.4684
  13368063.15843  10416665.57241  24182405.0034   24182409.0584
     -3278.8754      -2554.9684
  -4675705.71945  -3484489.23245  23514118.8314   23514124.1754
      1112.0474        866.5304
 -10395659.46347  -8100507.10747  20785663.5894   20785667.0114
       946.0784        737.2044
  13002005.74545  10098471.92944  23587126.7844   23587132.9834
     -3262.3914      -2542.1234
 -16351081.13646 -12547265.22846  21512240.7924   21512245.2334
      2317.1564       1805.5764
 98  6 11 21 35 59.9990000  0  8G21G 6G26G10G22G17G30G23
   -230135.26544                  24487971.0424
      3232.5944
  -7370957.30447  -5743601.58146  19957786.8784   19957788.6714
      -319.3124       -248.8154
 -14938351.69946 -11487361.58146  21731560.9484   21731563.5384
      1159.8134        903.7504
  13417263.98543  10455003.82341  24191767.4724   24191768.2924
     -3281.0944      -2556.6964
  -4692307.45045  -3497425.64245  23510959.3624   23510964.4724
      1101.7344        858.4944
 -10409817.20347  -8111539.10446  20782968.9094   20782972.2494
       941.7814        733.8564
  13050959.13445  10136617.28644  23596442.8554   23596449.1594
     -3264.5164      -2543.7784
 -16385777.02246 -12574300.94946  21505638.2144   21505642.5034
      2309.1254       1799.3184
 98  6 11 21 36 14.9990000  0  8G21G 6G26G10G22G17G30G23
   -278599.21544    -22651.80552  24478748.2534   24478757.1054
      3229.4064       2516.4204
  -7366092.11547  -5739810.53346  19958712.5194   19958714.7334
      -329.2344       -256.5464
 -14955665.54646 -11500852.86846  21728266.1984   21728268.8944
      1148.8444        895.2034
  13466493.16843  10493364.15041  24201135.5344   24201139.9764
     -3282.6414      -2557.9024
  -4708758.33145  -3510244.50145  23507829.2144   23507834.4994
      1091.9064        850.8364
 -10423913.23747  -8122523.01546  20780286.7374   20780289.9954
       937.7974        730.7514
  13099941.56345  10174785.29745  23605764.0194   23605771.4294
     -3266.2974      -2545.1664
 -16420354.43046 -12601244.34846  21499057.9174   21499062.0654
      2301.2974       1793.2184
 98  6 11 21 36 29.9990000  0  8G21G 6G26G10G22G17G30G23
   -327014.43544    -60377.81742  24469535.6904   24469546.7334
      3225.8754       2513.6694
  -7361079.40347  -5735904.53046  19959666.6834   19959668.7804
      -339.2504       -264.3514
 -14972816.26846 -11514217.06646  21725002.5114   21725005.0774
      1137.8754        886.6564
  13515745.89743  10531742.90742  24210507.7844   24210511.2654
     -3284.4534      -2559.3144
  -4725063.89245  -3522950.16045  23504726.4094   23504731.5194
      1082.1094        843.2024
 -10437949.87147  -8133460.64646  20777615.4484   20777618.4834
       933.6724        727.5374
  13148949.21645  10212972.93044  23615089.3474   23615097.2844
     -3268.1564      -2546.6154
 -16454814.86346 -12628096.59746  21492500.5264   21492504.7224
      2293.3594       1787.0334
 98  6 11 21 36 44.9990000  0  8G21G 6G26G10G22G17G30G23
   -375376.37144    -98062.26042  24460332.2064   24460340.1794
      3222.2814       2510.8694
  -7355917.33047  -5731882.14646  19960649.0424   19960651.2224
      -349.0314       -271.9724
 -14989803.41946 -11527453.79046  21721769.7694   21721772.4294
      1127.0634        878.2314
  13565026.71743  10570143.51142  24219885.8234   24219890.9214
     -3286.2974      -2560.7514
  -4741222.36945  -3535541.19945  23501651.2764   23501655.3784
      1072.2814        835.5444
 -10451925.51647  -8144350.74547  20774956.1514   20774959.3394
       929.7814        724.5054
  13197983.25245  10251181.08444  23624420.6984   23624428.0504
     -3269.7194      -2547.8334
 -16489157.76746 -12654857.26946  21485965.3004   21485969.3554
      2285.6884       1781.0554
 98  6 11 21 36 59.9990000  0  8G21G 6G26G10G22G17G30G23
   -423678.99243   -135700.52842  24451139.9804   24451148.1054
      3218.0634       2507.5814
  -7350605.25447  -5727742.87346  19961659.6754   19961661.7614
      -359.1874       -279.8864
 -15006625.28646 -11540561.73246  21718568.8234   21718571.7414
      1115.8914        869.5254
  13614337.18343  10608567.24142  24229268.9254   24229273.6474
     -3288.3124      -2562.3214
  -4757229.84145  -3548014.54545  23498604.9174   23498610.7534
      1062.1414        827.6424
 -10465840.33947  -8155193.45847  20772308.2304   20772311.3354
       925.6254        721.2664
  13247042.68645  10289409.08045  23633756.3624   23633763.5384
     -3271.3914      -2549.1364
 -16523383.70446 -12681526.79346  21479452.2694   21479456.7804
      2277.8594       1774.9554
 98  6 11 21 37 14.9990000  0  8G21G 6G26G10G22G17G30G23
   -471917.00943   -173288.43442  24441960.6834   24441972.4174
      3213.6884       2504.1724
  -7345141.41247  -5723485.34146  19962699.4804   19962701.4484
      -369.2194       -287.7034
 -15023279.77946 -11553539.24346  21715399.7224   21715402.5694
      1104.7974        860.8814
  13663675.12943  10647012.28242  24238658.0114   24238661.7024
     -3290.0004      -2563.6364
  -4773086.14445  -3560370.09845  23495587.6444   23495593.5734
      1052.1414        819.8504
 -10479694.22147  -8165988.68246  20769671.9094   20769675.1084
       921.5784        718.1134
  13296124.52845  10327654.55444  23643096.1444   23643102.6944
     -3272.7814      -2550.2194
 -16557493.35646 -12708105.71146  21472961.3554   21472965.5034
      2270.1564       1768.9534
 98  6 11 21 37 29.9990000  0  8G21G 6G26G10G22G17G30G23
   -520089.73743   -210825.46842  24432793.3314   24432802.5694
      3209.1564       2500.6414
  -7339530.71947  -5719113.38846  19963767.3704   19963769.1754
      -378.9374       -295.2764
 -15039771.97646 -11566390.29146  21712261.2304   21712263.5504
      1094.0944        852.5414
  13713036.78344  10685475.87042  24248051.5584   24248056.9134
     -3291.6874      -2564.9514
  -4788796.37645  -3572611.84845  23492598.4724   23492603.5814
      1042.5314        812.3624
 -10493487.92047  -8176737.01047  20767047.3474   20767050.5934
       917.4384        714.8864
  13345223.88245  10365913.65944  23652439.7614   23652447.4644
     -3273.8754      -2551.0714
 -16591489.55146 -12734596.22146  21466492.2614   21466496.6904
      2262.5314       1763.0114
 98  6 11 21 37 44.9990000  0  8G21G 6G26G10G22G17G30G23
   -568193.87043   -248309.07842  24423639.3394   24423648.1444
      3204.7194       2497.1834
  -7333773.95647  -5714627.60846  19964862.8704   19964864.7694
      -388.5944       -302.8004
 -15056102.30646 -11579115.21146  21709153.8314   21709156.3624
      1083.2664        844.1034
  13762426.70444  10723961.55942  24257450.2374   24257454.9374
     -3293.6564      -2566.4854
  -4804361.72245  -3584740.68544  23489636.3624   23489640.5694
      1032.8284        804.8014
 -10507216.90547  -8187434.91547  20764434.6444   20764438.1124
       913.0784        711.4894
  13394340.89345  10404186.48144  23661787.0974   23661793.9914
     -3275.1254      -2552.0454
 -16625368.06846 -12760995.02846  21460045.1514   21460049.3704
      2254.5784       1756.8144
 98  6 11 21 37 59.9990000  0  8G21G 6G26G10G22G17G30G23
   -616232.33143   -285741.51542  24414497.6594   24414507.3784
      3200.2504       2493.7014
  -7327873.40147  -5710029.77546  19965985.6054   19965987.3394
      -398.1874       -310.2764
 -15072270.81646 -11591714.03346  21706076.9484   21706080.0654
      1072.4064        835.6414
  13811847.67544  10762471.30042  24266854.6594   24266860.1554
     -3295.8594      -2568.2024
  -4819780.33545  -3596755.19244  23486702.3154   23486707.9294
      1022.9064        797.0704
 -10520878.91347  -8198080.62447  20761834.8624   20761838.2724
       908.4694        707.8984
  13443478.80645  10442475.63744  23671137.7534   23671144.9874
     -3276.6874      -2553.2634
 -16659124.57746 -12787298.77046  21453621.3624   21453625.6164
      2246.1884       1750.2764
 98  6 11 21 38 14.9990000  0  8G21G 6G26G10G22G17G30G23
   -664204.35643   -323122.17042  24405369.3154   24405378.2844
      3196.1564       2490.5114
  -7321831.56047  -5705321.85246  19967135.2614   19967137.1364
      -407.2344       -317.3254
 -15088276.35846 -11604185.87546  21703031.0974   21703033.7694
      1061.7974        827.3744
  13861300.52844  10801005.98342  24276265.7144   24276272.5584
     -3297.7504      -2569.6754
  -4835052.01545  -3608655.19744  23483796.2374   23483801.1714
      1013.4844        789.7284
 -10534473.25847  -8208673.61147  20759247.8864   20759251.0854
       904.2344        704.5984
  13492639.92845  10480782.87643  23680492.5194   23680498.6944
     -3277.9534      -2554.2494
 -16692757.17046 -12813505.94046  21447221.5974   21447225.8744
      2238.2974       1744.1274
 98  6 11 21 38 29.9990000  0  8G21G 6G26G10G22G17G30G23
   -712111.73843   -360452.38942  24396252.3704   24396262.0074
      3191.6094       2486.9684
  -7315650.95447  -5700505.80446  19968311.3944   19968313.1984
      -416.7344       -324.7284
 -15104120.65446 -11616532.06446  21700016.1284   21700018.8474
      1050.9224        818.9004
  13910783.44944  10839564.04643  24285682.0894   24285689.3234
     -3299.8754      -2571.3314
  -4850179.65745  -3620442.98744  23480917.3704   23480922.6904
      1003.6724        782.0824
 -10548000.90647  -8219214.62847  20756673.6834   20756676.9174
       899.6094        700.9944
  13541822.85044  10519107.08043  23689851.6284   23689858.7694
     -3279.5784      -2555.5154
 -16726269.81146 -12839619.65146  21440844.4334   21440848.2884
      2230.1724       1737.7964
